Wetterdaten: Dienstag, 23.02.2016
Datum Zeit Auen-Temp. Temp gefhlt Luftfeuchte Luftdruck Regen Wind Richtung Richtung Sonnenschein Taupunkt Windben
23.02.2016 00:00 8,7 C 8,2 C 66 % 1011,9 hPa 0,0 mm 17,0 km/h (3 Bft) W-NW 292 0 min 2,7 C 17,0 km/h (3 Bft)
23.02.2016 00:01 8,7 C 8,3 C 66 % 1011,9 hPa 0,0 mm 16,4 km/h (3 Bft) W 270 0 min 2,7 C 15,8 km/h (3 Bft)
23.02.2016 00:02 8,7 C 8,2 C 66 % 1011,9 hPa 0,0 mm 16,4 km/h (3 Bft) W 270 0 min 2,7 C 15,8 km/h (3 Bft)
23.02.2016 00:03 8,7 C 8,2 C 66 % 1011,6 hPa 0,0 mm 16,4 km/h (3 Bft) W 270 0 min 2,7 C 15,8 km/h (3 Bft)
23.02.2016 00:04 8,7 C 8,2 C 66 % 1011,6 hPa 0,0 mm 16,4 km/h (3 Bft) W 270 0 min 2,7 C 15,8 km/h (3 Bft)
23.02.2016 00:05 8,7 C 8,3 C 67 % 1011,6 hPa 0,0 mm 18,2 km/h (3 Bft) NW 315 0 min 2,9 C 28,3 km/h (4 Bft)
23.02.2016 00:06 8,7 C 8,1 C 67 % 1011,6 hPa 0,0 mm 18,2 km/h (3 Bft) NW 315 0 min 2,9 C 28,3 km/h (4 Bft)
23.02.2016 00:07 8,6 C 8,2 C 67 % 1011,6 hPa 0,0 mm 18,5 km/h (3 Bft) W-SW 247 0 min 2,8 C 18,2 km/h (3 Bft)
23.02.2016 00:08 8,6 C 8,0 C 67 % 1011,6 hPa 0,0 mm 18,5 km/h (3 Bft) W-SW 247 0 min 2,8 C 18,2 km/h (3 Bft)
23.02.2016 00:09 8,4 C 8,0 C 69 % 1011,6 hPa 0,0 mm 18,2 km/h (3 Bft) W 270 0 min 3,0 C 18,2 km/h (3 Bft)
23.02.2016 00:10 8,4 C 7,8 C 69 % 1011,6 hPa 0,0 mm 18,2 km/h (3 Bft) W 270 0 min 3,0 C 18,2 km/h (3 Bft)
23.02.2016 00:11 8,3 C 7,9 C 69 % 1011,6 hPa 0,0 mm 17,6 km/h (3 Bft) W 270 0 min 3,0 C 13,1 km/h (3 Bft)
23.02.2016 00:12 8,3 C 7,6 C 69 % 1011,6 hPa 0,0 mm 17,6 km/h (3 Bft) W 270 0 min 3,0 C 13,1 km/h (3 Bft)
23.02.2016 00:13 8,1 C 7,6 C 70 % 1011,6 hPa 0,0 mm 15,8 km/h (3 Bft) NW 315 0 min 3,0 C 16,4 km/h (3 Bft)
23.02.2016 00:14 8,1 C 7,4 C 70 % 1011,6 hPa 0,0 mm 15,8 km/h (3 Bft) NW 315 0 min 3,0 C 29,2 km/h (5 Bft)
23.02.2016 00:15 8,0 C 7,4 C 70 % 1011,6 hPa 0,0 mm 15,8 km/h (3 Bft) W-SW 247 0 min 2,9 C 17,6 km/h (3 Bft)
23.02.2016 00:16 8,0 C 7,2 C 70 % 1011,6 hPa 0,0 mm 15,8 km/h (3 Bft) W-SW 247 0 min 2,9 C 17,6 km/h (3 Bft)
23.02.2016 00:17 7,9 C 7,2 C 72 % 1011,6 hPa 0,0 mm 14,0 km/h (3 Bft) NW 315 0 min 3,2 C 10,1 km/h (2 Bft)
23.02.2016 00:18 7,9 C 7,2 C 72 % 1011,6 hPa 0,0 mm 14,0 km/h (3 Bft) NW 315 0 min 3,2 C 10,1 km/h (2 Bft)
23.02.2016 00:19 7,8 C 7,1 C 73 % 1011,6 hPa 0,0 mm 12,8 km/h (3 Bft) NO 45 0 min 3,3 C 9,8 km/h (2 Bft)
23.02.2016 00:20 7,8 C 7,1 C 73 % 1011,6 hPa 0,0 mm 12,8 km/h (3 Bft) NO 45 0 min 3,3 C 9,8 km/h (2 Bft)
23.02.2016 00:21 7,7 C 7,0 C 73 % 1011,6 hPa 0,0 mm 12,2 km/h (2 Bft) NW 315 0 min 3,2 C 20,6 km/h (4 Bft)
23.02.2016 00:22 7,7 C 7,0 C 73 % 1011,6 hPa 0,0 mm 12,2 km/h (2 Bft) NW 315 0 min 3,2 C 20,6 km/h (4 Bft)
23.02.2016 00:23 7,7 C 6,9 C 74 % 1011,8 hPa 0,0 mm 13,4 km/h (3 Bft) SW 225 0 min 3,4 C 15,2 km/h (3 Bft)
23.02.2016 00:24 7,7 C 6,9 C 74 % 1011,8 hPa 0,0 mm 13,4 km/h (3 Bft) SW 225 0 min 3,4 C 34,3 km/h (5 Bft)
23.02.2016 00:25 7,6 C 6,7 C 74 % 1011,8 hPa 0,0 mm 13,7 km/h (3 Bft) W 270 0 min 3,3 C 22,1 km/h (4 Bft)
23.02.2016 00:26 7,6 C 6,7 C 74 % 1011,8 hPa 0,0 mm 13,7 km/h (3 Bft) W 270 0 min 3,3 C 22,1 km/h (4 Bft)
23.02.2016 00:27 7,5 C 6,7 C 74 % 1011,8 hPa 0,0 mm 12,8 km/h (3 Bft) W 270 0 min 3,2 C 18,2 km/h (3 Bft)
23.02.2016 00:28 7,5 C 6,7 C 74 % 1011,8 hPa 0,0 mm 12,8 km/h (3 Bft) W 270 0 min 3,2 C 18,2 km/h (3 Bft)
23.02.2016 00:29 7,5 C 6,6 C 74 % 1011,8 hPa 0,0 mm 12,5 km/h (3 Bft) S-SW 202 0 min 3,2 C 14,0 km/h (3 Bft)
23.02.2016 00:30 7,5 C 6,6 C 74 % 1011,8 hPa 0,0 mm 12,5 km/h (3 Bft) S-SW 202 0 min 3,2 C 14,0 km/h (3 Bft)
23.02.2016 00:31 7,5 C 6,6 C 73 % 1011,8 hPa 0,0 mm 12,8 km/h (3 Bft) W-SW 247 0 min 3,0 C 9,5 km/h (2 Bft)
23.02.2016 00:32 7,5 C 6,6 C 73 % 1011,8 hPa 0,0 mm 12,8 km/h (3 Bft) W-SW 247 0 min 3,0 C 9,5 km/h (2 Bft)
23.02.2016 00:33 7,5 C 6,6 C 73 % 1011,8 hPa 0,0 mm 12,8 km/h (3 Bft) W-NW 292 0 min 3,0 C 16,1 km/h (3 Bft)
23.02.2016 00:34 7,5 C 6,6 C 73 % 1011,8 hPa 0,0 mm 12,8 km/h (3 Bft) W-NW 292 0 min 3,0 C 16,1 km/h (3 Bft)
23.02.2016 00:35 7,4 C 6,6 C 73 % 1011,8 hPa 0,0 mm 11,3 km/h (2 Bft) W-SW 247 0 min 2,9 C 7,7 km/h (2 Bft)
23.02.2016 00:36 7,4 C 6,6 C 73 % 1011,8 hPa 0,0 mm 11,3 km/h (2 Bft) W-SW 247 0 min 2,9 C 7,7 km/h (2 Bft)
23.02.2016 00:37 7,4 C 6,6 C 74 % 1011,8 hPa 0,0 mm 11,3 km/h (2 Bft) W-SW 247 0 min 3,1 C 21,2 km/h (4 Bft)
23.02.2016 00:38 7,4 C 6,6 C 74 % 1011,8 hPa 0,0 mm 11,3 km/h (2 Bft) W-SW 247 0 min 3,1 C 21,2 km/h (4 Bft)
23.02.2016 00:39 7,4 C 6,5 C 74 % 1011,8 hPa 0,0 mm 11,6 km/h (2 Bft) SW 225 0 min 3,1 C 14,6 km/h (3 Bft)
23.02.2016 00:40 7,4 C 6,5 C 74 % 1011,8 hPa 0,0 mm 11,6 km/h (2 Bft) SW 225 0 min 3,1 C 14,6 km/h (3 Bft)
23.02.2016 00:41 7,4 C 6,5 C 74 % 1011,8 hPa 0,0 mm 11,9 km/h (2 Bft) W-SW 247 0 min 3,1 C 8,9 km/h (2 Bft)
23.02.2016 00:42 7,4 C 6,5 C 74 % 1011,8 hPa 0,0 mm 11,9 km/h (2 Bft) W-SW 247 0 min 3,1 C 8,9 km/h (2 Bft)
23.02.2016 00:43 7,3 C 6,5 C 74 % 1011,4 hPa 0,0 mm 11,0 km/h (2 Bft) W 270 0 min 3,0 C 10,4 km/h (2 Bft)
23.02.2016 00:44 7,3 C 6,5 C 74 % 1011,4 hPa 0,0 mm 11,0 km/h (2 Bft) W 270 0 min 3,0 C 10,4 km/h (2 Bft)
23.02.2016 00:45 7,4 C 6,7 C 74 % 1011,4 hPa 0,0 mm 11,3 km/h (2 Bft) W 270 0 min 3,1 C 9,8 km/h (2 Bft)
23.02.2016 00:46 7,4 C 6,7 C 74 % 1011,4 hPa 0,0 mm 11,3 km/h (2 Bft) W 270 0 min 3,1 C 9,8 km/h (2 Bft)
23.02.2016 00:47 7,4 C 6,6 C 74 % 1011,4 hPa 0,0 mm 11,6 km/h (2 Bft) W 270 0 min 3,1 C 13,7 km/h (3 Bft)
23.02.2016 00:48 7,4 C 6,6 C 74 % 1011,4 hPa 0,0 mm 11,6 km/h (2 Bft) W 270 0 min 3,1 C 13,7 km/h (3 Bft)
23.02.2016 00:49 7,4 C 6,7 C 73 % 1011,4 hPa 0,0 mm 11,6 km/h (2 Bft) W-SW 247 0 min 2,9 C 17,0 km/h (3 Bft)
23.02.2016 00:50 7,4 C 6,7 C 73 % 1011,4 hPa 0,0 mm 11,6 km/h (2 Bft) W-SW 247 0 min 2,9 C 17,0 km/h (3 Bft)
23.02.2016 00:51 7,4 C 6,8 C 73 % 1011,4 hPa 0,0 mm 10,1 km/h (2 Bft) SW 225 0 min 2,9 C 6,9 km/h (2 Bft)
23.02.2016 00:52 7,4 C 6,8 C 73 % 1011,4 hPa 0,0 mm 10,1 km/h (2 Bft) SW 225 0 min 2,9 C 6,9 km/h (2 Bft)
23.02.2016 00:53 7,3 C 6,8 C 73 % 1011,4 hPa 0,0 mm 10,1 km/h (2 Bft) W-SW 247 0 min 2,8 C 19,4 km/h (3 Bft)
23.02.2016 00:54 7,3 C 6,8 C 73 % 1011,4 hPa 0,0 mm 10,1 km/h (2 Bft) W-SW 247 0 min 2,8 C 19,4 km/h (3 Bft)
23.02.2016 00:55 7,4 C 6,8 C 73 % 1011,4 hPa 0,0 mm 10,1 km/h (2 Bft) W 270 0 min 2,9 C 16,1 km/h (3 Bft)
23.02.2016 00:56 7,4 C 6,8 C 73 % 1011,4 hPa 0,0 mm 10,1 km/h (2 Bft) W 270 0 min 2,9 C 16,1 km/h (3 Bft)
23.02.2016 00:57 7,4 C 6,9 C 73 % 1011,4 hPa 0,0 mm 9,5 km/h (2 Bft) NW 315 0 min 2,9 C 9,5 km/h (2 Bft)
23.02.2016 00:58 7,4 C 6,9 C 73 % 1011,4 hPa 0,0 mm 9,5 km/h (2 Bft) NW 315 0 min 2,9 C 9,5 km/h (2 Bft)
23.02.2016 00:59 7,4 C 6,9 C 73 % 1011,4 hPa 0,0 mm 9,2 km/h (2 Bft) SW 225 0 min 2,9 C 8,3 km/h (2 Bft)
23.02.2016 01:00 7,4 C 6,9 C 73 % 1011,4 hPa 0,0 mm 9,2 km/h (2 Bft) SW 225 0 min 2,9 C 8,3 km/h (2 Bft)
23.02.2016 01:01 7,4 C 6,9 C 73 % 1011,4 hPa 0,0 mm 9,2 km/h (2 Bft) W-SW 247 0 min 2,9 C 12,5 km/h (3 Bft)
23.02.2016 01:02 7,4 C 6,9 C 73 % 1011,4 hPa 0,0 mm 9,2 km/h (2 Bft) W-SW 247 0 min 2,9 C 12,5 km/h (3 Bft)
23.02.2016 01:03 7,4 C 7,0 C 73 % 1011,4 hPa 0,0 mm 9,2 km/h (2 Bft) O 90 0 min 2,9 C 8,3 km/h (2 Bft)
23.02.2016 01:04 7,4 C 7,0 C 73 % 1011,4 hPa 0,0 mm 9,2 km/h (2 Bft) O 90 0 min 2,9 C 8,3 km/h (2 Bft)
23.02.2016 01:05 7,4 C 7,0 C 73 % 1011,4 hPa 0,0 mm 8,9 km/h (2 Bft) W-NW 292 0 min 2,9 C 7,5 km/h (2 Bft)
23.02.2016 01:06 7,4 C 7,0 C 73 % 1011,4 hPa 0,0 mm 8,9 km/h (2 Bft) W-NW 292 0 min 2,9 C 7,5 km/h (2 Bft)
23.02.2016 01:07 7,4 C 7,0 C 73 % 1011,4 hPa 0,0 mm 8,3 km/h (2 Bft) W-NW 292 0 min 2,9 C 14,6 km/h (3 Bft)
23.02.2016 01:08 7,4 C 7,0 C 73 % 1011,4 hPa 0,0 mm 8,3 km/h (2 Bft) W-NW 292 0 min 2,9 C 14,6 km/h (3 Bft)
23.02.2016 01:09 7,4 C 7,0 C 73 % 1011,4 hPa 0,0 mm 8,0 km/h (2 Bft) W 270 0 min 2,9 C 19,1 km/h (3 Bft)
23.02.2016 01:10 7,4 C 7,0 C 73 % 1011,4 hPa 0,0 mm 8,0 km/h (2 Bft) W 270 0 min 2,9 C 19,1 km/h (3 Bft)
23.02.2016 01:11 7,5 C 7,0 C 73 % 1011,4 hPa 0,0 mm 8,9 km/h (2 Bft) W-NW 292 0 min 3,0 C 21,5 km/h (4 Bft)
23.02.2016 01:12 7,5 C 7,0 C 73 % 1011,4 hPa 0,0 mm 8,9 km/h (2 Bft) W-NW 292 0 min 3,0 C 21,5 km/h (4 Bft)
23.02.2016 01:13 7,6 C 7,1 C 72 % 1011,4 hPa 0,0 mm 9,5 km/h (2 Bft) W-SW 247 0 min 2,9 C 9,2 km/h (2 Bft)
23.02.2016 01:14 7,6 C 7,1 C 72 % 1011,4 hPa 0,0 mm 9,5 km/h (2 Bft) W-SW 247 0 min 2,9 C 9,2 km/h (2 Bft)
23.02.2016 01:15 7,6 C 7,0 C 72 % 1011,4 hPa 0,0 mm 10,7 km/h (2 Bft) SW 225 0 min 2,9 C 19,1 km/h (3 Bft)
23.02.2016 01:16 7,6 C 7,0 C 72 % 1011,4 hPa 0,0 mm 10,7 km/h (2 Bft) SW 225 0 min 2,9 C 19,1 km/h (3 Bft)
23.02.2016 01:17 7,6 C 7,0 C 72 % 1011,4 hPa 0,0 mm 11,0 km/h (2 Bft) W 270 0 min 2,9 C 9,5 km/h (2 Bft)
23.02.2016 01:18 7,6 C 7,0 C 72 % 1011,4 hPa 0,0 mm 11,0 km/h (2 Bft) W 270 0 min 2,9 C 9,5 km/h (2 Bft)
23.02.2016 01:19 7,6 C 7,0 C 71 % 1011,4 hPa 0,0 mm 12,5 km/h (3 Bft) S-SW 202 0 min 2,7 C 13,7 km/h (3 Bft)
23.02.2016 01:20 7,6 C 7,0 C 71 % 1011,4 hPa 0,0 mm 12,5 km/h (3 Bft) S-SW 202 0 min 2,7 C 13,7 km/h (3 Bft)
23.02.2016 01:21 7,6 C 7,0 C 70 % 1011,4 hPa 0,0 mm 12,5 km/h (3 Bft) W 270 0 min 2,5 C 19,1 km/h (3 Bft)
23.02.2016 01:22 7,6 C 7,0 C 70 % 1011,4 hPa 0,0 mm 12,5 km/h (3 Bft) W 270 0 min 2,5 C 19,1 km/h (3 Bft)
23.02.2016 01:23 7,6 C 7,1 C 70 % 1010,9 hPa 0,0 mm 11,6 km/h (2 Bft) SW 225 0 min 2,5 C 23,8 km/h (4 Bft)
23.02.2016 01:24 7,6 C 7,1 C 70 % 1010,9 hPa 0,0 mm 11,6 km/h (2 Bft) SW 225 0 min 2,5 C 23,8 km/h (4 Bft)
23.02.2016 01:25 7,6 C 7,0 C 70 % 1010,9 hPa 0,0 mm 12,5 km/h (3 Bft) W 270 0 min 2,5 C 22,7 km/h (4 Bft)
23.02.2016 01:26 7,6 C 7,0 C 70 % 1010,9 hPa 0,0 mm 12,5 km/h (3 Bft) W 270 0 min 2,5 C 22,7 km/h (4 Bft)
23.02.2016 01:27 7,6 C 7,0 C 70 % 1010,9 hPa 0,0 mm 14,0 km/h (3 Bft) W 270 0 min 2,5 C 20,9 km/h (4 Bft)
23.02.2016 01:28 7,6 C 7,0 C 70 % 1010,9 hPa 0,0 mm 14,0 km/h (3 Bft) W 270 0 min 2,5 C 20,9 km/h (4 Bft)
23.02.2016 01:29 7,7 C 7,1 C 69 % 1010,9 hPa 0,0 mm 13,4 km/h (3 Bft) W-SW 247 0 min 2,4 C 8,0 km/h (2 Bft)
23.02.2016 01:30 7,7 C 7,1 C 69 % 1010,9 hPa 0,0 mm 13,4 km/h (3 Bft) W-SW 247 0 min 2,4 C 8,0 km/h (2 Bft)
23.02.2016 01:31 7,6 C 7,1 C 69 % 1010,9 hPa 0,0 mm 12,5 km/h (3 Bft) W 270 0 min 2,3 C 4,2 km/h (1 Bft)
23.02.2016 01:32 7,6 C 7,1 C 69 % 1010,9 hPa 0,0 mm 12,5 km/h (3 Bft) W 270 0 min 2,3 C 4,2 km/h (1 Bft)
23.02.2016 01:33 7,5 C 7,0 C 69 % 1010,9 hPa 0,0 mm 12,8 km/h (3 Bft) W 270 0 min 2,2 C 24,7 km/h (4 Bft)
23.02.2016 01:34 7,5 C 7,0 C 69 % 1010,9 hPa 0,0 mm 12,8 km/h (3 Bft) W 270 0 min 2,2 C 34,9 km/h (5 Bft)
23.02.2016 01:35 7,5 C 7,0 C 69 % 1010,9 hPa 0,0 mm 12,5 km/h (3 Bft) W 270 0 min 2,2 C 11,6 km/h (2 Bft)
23.02.2016 01:36 7,5 C 7,0 C 69 % 1010,9 hPa 0,0 mm 12,5 km/h (3 Bft) W 270 0 min 2,2 C 11,6 km/h (2 Bft)
23.02.2016 01:37 7,5 C 7,0 C 69 % 1010,9 hPa 0,0 mm 11,6 km/h (2 Bft) S 180 0 min 2,2 C 16,1 km/h (3 Bft)
23.02.2016 01:38 7,5 C 7,0 C 69 % 1010,9 hPa 0,0 mm 11,6 km/h (2 Bft) S 180 0 min 2,2 C 16,1 km/h (3 Bft)
23.02.2016 01:39 7,5 C 7,1 C 69 % 1010,9 hPa 0,0 mm 10,1 km/h (2 Bft) W-SW 247 0 min 2,2 C 18,8 km/h (3 Bft)
23.02.2016 01:40 7,5 C 7,1 C 69 % 1010,9 hPa 0,0 mm 10,1 km/h (2 Bft) W-SW 247 0 min 2,2 C 18,8 km/h (3 Bft)
23.02.2016 01:41 7,5 C 7,0 C 69 % 1010,9 hPa 0,0 mm 11,6 km/h (2 Bft) W-SW 247 0 min 2,2 C 24,4 km/h (4 Bft)
23.02.2016 01:42 7,5 C 7,0 C 69 % 1010,9 hPa 0,0 mm 11,6 km/h (2 Bft) W-SW 247 0 min 2,2 C 24,4 km/h (4 Bft)
23.02.2016 01:43 7,6 C 7,0 C 68 % 1011,0 hPa 0,0 mm 12,8 km/h (3 Bft) W-SW 247 0 min 2,1 C 20,0 km/h (4 Bft)
23.02.2016 01:44 7,6 C 7,0 C 68 % 1011,0 hPa 0,0 mm 12,8 km/h (3 Bft) W-SW 247 0 min 2,1 C 20,0 km/h (4 Bft)
23.02.2016 01:45 7,5 C 7,0 C 68 % 1011,0 hPa 0,0 mm 12,5 km/h (3 Bft) SW 225 0 min 2,0 C 12,8 km/h (3 Bft)
23.02.2016 01:46 7,5 C 7,0 C 68 % 1011,0 hPa 0,0 mm 12,5 km/h (3 Bft) SW 225 0 min 2,0 C 12,8 km/h (3 Bft)
23.02.2016 01:47 7,7 C 7,0 C 68 % 1011,0 hPa 0,0 mm 14,0 km/h (3 Bft) NW 315 0 min 2,2 C 14,0 km/h (3 Bft)
23.02.2016 01:48 7,7 C 7,0 C 68 % 1011,0 hPa 0,0 mm 14,0 km/h (3 Bft) NW 315 0 min 2,2 C 14,0 km/h (3 Bft)
23.02.2016 01:49 7,7 C 7,0 C 68 % 1011,0 hPa 0,0 mm 14,9 km/h (3 Bft) W-NW 292 0 min 2,2 C 14,3 km/h (3 Bft)
23.02.2016 01:50 7,7 C 7,0 C 68 % 1011,0 hPa 0,0 mm 14,9 km/h (3 Bft) W-NW 292 0 min 2,2 C 14,3 km/h (3 Bft)
23.02.2016 01:51 7,7 C 7,2 C 68 % 1011,0 hPa 0,0 mm 15,8 km/h (3 Bft) W-SW 247 0 min 2,2 C 20,3 km/h (4 Bft)
23.02.2016 01:52 7,7 C 7,0 C 68 % 1011,0 hPa 0,0 mm 15,8 km/h (3 Bft) W-SW 247 0 min 2,2 C 20,3 km/h (4 Bft)
23.02.2016 01:53 7,8 C 7,3 C 67 % 1011,0 hPa 0,0 mm 15,5 km/h (3 Bft) W-NW 292 0 min 2,1 C 17,3 km/h (3 Bft)
23.02.2016 01:54 7,8 C 7,1 C 67 % 1011,0 hPa 0,0 mm 15,5 km/h (3 Bft) W-NW 292 0 min 2,1 C 17,3 km/h (3 Bft)
23.02.2016 01:55 7,7 C 7,0 C 67 % 1011,0 hPa 0,0 mm 15,8 km/h (3 Bft) W 270 0 min 2,0 C 25,0 km/h (4 Bft)
23.02.2016 01:56 7,7 C 7,0 C 67 % 1011,0 hPa 0,0 mm 15,8 km/h (3 Bft) W 270 0 min 2,0 C 25,0 km/h (4 Bft)
23.02.2016 01:57 7,7 C 7,0 C 67 % 1011,0 hPa 0,0 mm 16,7 km/h (3 Bft) NW 315 0 min 2,0 C 32,5 km/h (5 Bft)
23.02.2016 01:58 7,7 C 7,0 C 67 % 1011,0 hPa 0,0 mm 16,7 km/h (3 Bft) NW 315 0 min 2,0 C 32,5 km/h (5 Bft)
23.02.2016 01:59 7,8 C 7,1 C 67 % 1011,0 hPa 0,0 mm 17,3 km/h (3 Bft) W-NW 292 0 min 2,1 C 20,6 km/h (4 Bft)
23.02.2016 02:00 7,8 C 7,1 C 67 % 1011,0 hPa 0,0 mm 17,3 km/h (3 Bft) W-NW 292 0 min 2,1 C 20,6 km/h (4 Bft)
23.02.2016 02:01 7,8 C 7,3 C 66 % 1011,0 hPa 0,0 mm 17,9 km/h (3 Bft) W 270 0 min 1,9 C 17,9 km/h (3 Bft)
23.02.2016 02:02 7,8 C 7,1 C 66 % 1011,0 hPa 0,0 mm 17,9 km/h (3 Bft) W 270 0 min 1,9 C 17,9 km/h (3 Bft)
23.02.2016 02:03 7,8 C 7,3 C 66 % 1010,8 hPa 0,0 mm 16,4 km/h (3 Bft) NW 315 0 min 1,9 C 17,0 km/h (3 Bft)
23.02.2016 02:04 7,8 C 7,2 C 66 % 1010,8 hPa 0,0 mm 16,4 km/h (3 Bft) NW 315 0 min 1,9 C 17,0 km/h (3 Bft)
23.02.2016 02:05 7,7 C 7,3 C 66 % 1010,8 hPa 0,0 mm 15,5 km/h (3 Bft) SW 225 0 min 1,8 C 9,8 km/h (2 Bft)
23.02.2016 02:06 7,7 C 7,1 C 66 % 1010,8 hPa 0,0 mm 15,5 km/h (3 Bft) SW 225 0 min 1,8 C 9,8 km/h (2 Bft)
23.02.2016 02:07 7,6 C 7,1 C 66 % 1010,8 hPa 0,0 mm 14,0 km/h (3 Bft) W 270 0 min 1,7 C 17,6 km/h (3 Bft)
23.02.2016 02:08 7,6 C 7,1 C 66 % 1010,8 hPa 0,0 mm 14,0 km/h (3 Bft) W 270 0 min 1,7 C 17,6 km/h (3 Bft)
23.02.2016 02:09 7,7 C 7,2 C 66 % 1010,8 hPa 0,0 mm 13,4 km/h (3 Bft) W 270 0 min 1,8 C 14,3 km/h (3 Bft)
23.02.2016 02:10 7,7 C 7,2 C 66 % 1010,8 hPa 0,0 mm 13,4 km/h (3 Bft) W 270 0 min 1,8 C 14,3 km/h (3 Bft)
23.02.2016 02:11 7,7 C 7,2 C 66 % 1010,8 hPa 0,0 mm 12,5 km/h (3 Bft) W-NW 292 0 min 1,8 C 17,9 km/h (3 Bft)
23.02.2016 02:12 7,7 C 7,2 C 66 % 1010,8 hPa 0,0 mm 12,5 km/h (3 Bft) W-NW 292 0 min 1,8 C 17,9 km/h (3 Bft)
23.02.2016 02:13 7,7 C 7,3 C 66 % 1010,8 hPa 0,0 mm 12,2 km/h (2 Bft) SW 225 0 min 1,8 C 16,7 km/h (3 Bft)
23.02.2016 02:14 7,7 C 7,3 C 66 % 1010,8 hPa 0,0 mm 12,2 km/h (2 Bft) SW 225 0 min 1,8 C 16,7 km/h (3 Bft)
23.02.2016 02:15 7,6 C 7,2 C 66 % 1010,8 hPa 0,0 mm 12,5 km/h (3 Bft) W 270 0 min 1,7 C 15,8 km/h (3 Bft)
23.02.2016 02:16 7,6 C 7,2 C 66 % 1010,8 hPa 0,0 mm 12,5 km/h (3 Bft) W 270 0 min 1,7 C 15,8 km/h (3 Bft)
23.02.2016 02:17 7,6 C 7,2 C 66 % 1010,8 hPa 0,0 mm 12,8 km/h (3 Bft) S-SW 202 0 min 1,7 C 13,1 km/h (3 Bft)
23.02.2016 02:18 7,6 C 7,2 C 66 % 1010,8 hPa 0,0 mm 12,8 km/h (3 Bft) S-SW 202 0 min 1,7 C 13,1 km/h (3 Bft)
23.02.2016 02:19 7,5 C 7,1 C 66 % 1010,8 hPa 0,0 mm 11,9 km/h (2 Bft) W 270 0 min 1,6 C 29,8 km/h (5 Bft)
23.02.2016 02:20 7,5 C 7,1 C 66 % 1010,8 hPa 0,0 mm 11,9 km/h (2 Bft) W 270 0 min 1,6 C 29,8 km/h (5 Bft)
23.02.2016 02:21 7,5 C 7,1 C 67 % 1010,8 hPa 0,0 mm 11,9 km/h (2 Bft) W-SW 247 0 min 1,8 C 10,1 km/h (2 Bft)
23.02.2016 02:22 7,5 C 7,1 C 67 % 1010,8 hPa 0,0 mm 11,9 km/h (2 Bft) W-SW 247 0 min 1,8 C 10,1 km/h (2 Bft)
23.02.2016 02:23 7,5 C 7,2 C 67 % 1010,9 hPa 0,0 mm 11,6 km/h (2 Bft) W-NW 292 0 min 1,8 C 19,7 km/h (3 Bft)
23.02.2016 02:24 7,5 C 7,2 C 67 % 1010,9 hPa 0,0 mm 11,6 km/h (2 Bft) W-NW 292 0 min 1,8 C 37,3 km/h (5 Bft)
23.02.2016 02:25 7,6 C 7,2 C 67 % 1010,9 hPa 0,0 mm 11,6 km/h (2 Bft) S-SW 202 0 min 1,9 C 14,0 km/h (3 Bft)
23.02.2016 02:26 7,6 C 7,2 C 67 % 1010,9 hPa 0,0 mm 11,6 km/h (2 Bft) S-SW 202 0 min 1,9 C 14,0 km/h (3 Bft)
23.02.2016 02:27 7,6 C 7,2 C 67 % 1010,9 hPa 0,0 mm 11,6 km/h (2 Bft) W-NW 292 0 min 1,9 C 17,6 km/h (3 Bft)
23.02.2016 02:28 7,6 C 7,2 C 67 % 1010,9 hPa 0,0 mm 11,6 km/h (2 Bft) W-NW 292 0 min 1,9 C 17,6 km/h (3 Bft)
23.02.2016 02:29 7,6 C 7,2 C 67 % 1010,9 hPa 0,0 mm 12,5 km/h (3 Bft) W 270 0 min 1,9 C 20,9 km/h (4 Bft)
23.02.2016 02:30 7,6 C 7,2 C 67 % 1010,9 hPa 0,0 mm 12,5 km/h (3 Bft) W 270 0 min 1,9 C 20,9 km/h (4 Bft)
23.02.2016 02:31 7,7 C 7,3 C 67 % 1010,9 hPa 0,0 mm 11,6 km/h (2 Bft) W-SW 247 0 min 2,0 C 9,8 km/h (2 Bft)
23.02.2016 02:32 7,7 C 7,3 C 67 % 1010,9 hPa 0,0 mm 11,6 km/h (2 Bft) W-SW 247 0 min 2,0 C 9,8 km/h (2 Bft)
23.02.2016 02:33 7,7 C 7,4 C 67 % 1010,9 hPa 0,0 mm 11,3 km/h (2 Bft) W-SW 247 0 min 2,0 C 11,3 km/h (2 Bft)
23.02.2016 02:34 7,7 C 7,4 C 67 % 1010,9 hPa 0,0 mm 11,3 km/h (2 Bft) W-SW 247 0 min 2,0 C 11,3 km/h (2 Bft)
23.02.2016 02:35 7,7 C 7,5 C 66 % 1010,9 hPa 0,0 mm 10,1 km/h (2 Bft) S-SW 202 0 min 1,8 C 12,8 km/h (3 Bft)
23.02.2016 02:36 7,7 C 7,5 C 66 % 1010,9 hPa 0,0 mm 10,1 km/h (2 Bft) S-SW 202 0 min 1,8 C 12,8 km/h (3 Bft)
23.02.2016 02:37 7,8 C 7,5 C 66 % 1010,9 hPa 0,0 mm 10,7 km/h (2 Bft) SW 225 0 min 1,9 C 24,1 km/h (4 Bft)
23.02.2016 02:38 7,8 C 7,5 C 66 % 1010,9 hPa 0,0 mm 10,7 km/h (2 Bft) SW 225 0 min 1,9 C 24,1 km/h (4 Bft)
23.02.2016 02:39 7,8 C 7,5 C 66 % 1010,9 hPa 0,0 mm 10,7 km/h (2 Bft) W-SW 247 0 min 1,9 C 9,2 km/h (2 Bft)
23.02.2016 02:40 7,8 C 7,5 C 66 % 1010,9 hPa 0,0 mm 10,7 km/h (2 Bft) W-SW 247 0 min 1,9 C 9,2 km/h (2 Bft)
23.02.2016 02:41 7,7 C 7,5 C 66 % 1010,9 hPa 0,0 mm 10,4 km/h (2 Bft) SW 225 0 min 1,8 C 15,5 km/h (3 Bft)
23.02.2016 02:42 7,7 C 7,5 C 66 % 1010,9 hPa 0,0 mm 10,4 km/h (2 Bft) SW 225 0 min 1,8 C 15,5 km/h (3 Bft)
23.02.2016 02:43 7,7 C 7,4 C 66 % 1010,9 hPa 0,0 mm 10,7 km/h (2 Bft) S-SW 202 0 min 1,8 C 12,5 km/h (3 Bft)
23.02.2016 02:44 7,6 C 7,4 C 66 % 1010,9 hPa 0,0 mm 10,1 km/h (2 Bft) W-SW 247 0 min 1,7 C 9,5 km/h (2 Bft)
23.02.2016 02:45 7,6 C 7,4 C 66 % 1010,9 hPa 0,0 mm 10,1 km/h (2 Bft) W-SW 247 0 min 1,7 C 9,5 km/h (2 Bft)
23.02.2016 02:46 7,6 C 7,4 C 66 % 1010,9 hPa 0,0 mm 10,1 km/h (2 Bft) W-SW 247 0 min 1,7 C 9,5 km/h (2 Bft)
23.02.2016 02:47 7,7 C 7,5 C 66 % 1010,9 hPa 0,0 mm 9,8 km/h (2 Bft) S 180 0 min 1,8 C 15,8 km/h (3 Bft)
23.02.2016 02:48 7,7 C 7,5 C 66 % 1010,9 hPa 0,0 mm 9,8 km/h (2 Bft) S 180 0 min 1,8 C 15,8 km/h (3 Bft)
23.02.2016 02:49 7,7 C 7,5 C 66 % 1010,9 hPa 0,0 mm 10,1 km/h (2 Bft) W 270 0 min 1,8 C 15,8 km/h (3 Bft)
23.02.2016 02:50 7,7 C 7,5 C 66 % 1010,9 hPa 0,0 mm 10,1 km/h (2 Bft) W 270 0 min 1,8 C 15,8 km/h (3 Bft)
23.02.2016 02:51 7,7 C 7,5 C 66 % 1010,9 hPa 0,0 mm 9,8 km/h (2 Bft) W 270 0 min 1,8 C 10,1 km/h (2 Bft)
23.02.2016 02:52 7,7 C 7,5 C 66 % 1010,9 hPa 0,0 mm 9,8 km/h (2 Bft) W 270 0 min 1,8 C 10,1 km/h (2 Bft)
23.02.2016 02:53 7,7 C 7,5 C 66 % 1010,9 hPa 0,0 mm 9,8 km/h (2 Bft) W-NW 292 0 min 1,8 C 14,9 km/h (3 Bft)
23.02.2016 02:54 7,7 C 7,5 C 66 % 1010,9 hPa 0,0 mm 9,8 km/h (2 Bft) W-NW 292 0 min 1,8 C 14,9 km/h (3 Bft)
23.02.2016 02:55 7,7 C 7,5 C 66 % 1010,9 hPa 0,0 mm 9,5 km/h (2 Bft) SW 225 0 min 1,8 C 6,3 km/h (2 Bft)
23.02.2016 02:56 7,7 C 7,5 C 66 % 1010,9 hPa 0,0 mm 9,5 km/h (2 Bft) SW 225 0 min 1,8 C 6,3 km/h (2 Bft)
23.02.2016 02:57 7,7 C 7,5 C 66 % 1010,9 hPa 0,0 mm 9,8 km/h (2 Bft) S 180 0 min 1,8 C 26,2 km/h (4 Bft)
23.02.2016 02:58 7,7 C 7,5 C 66 % 1010,9 hPa 0,0 mm 9,8 km/h (2 Bft) S 180 0 min 1,8 C 26,2 km/h (4 Bft)
23.02.2016 02:59 7,7 C 7,6 C 66 % 1010,9 hPa 0,0 mm 8,6 km/h (2 Bft) SW 225 0 min 1,8 C 7,2 km/h (2 Bft)
23.02.2016 03:00 7,7 C 7,6 C 66 % 1010,9 hPa 0,0 mm 8,6 km/h (2 Bft) SW 225 0 min 1,8 C 7,2 km/h (2 Bft)
23.02.2016 03:01 7,7 C 7,6 C 66 % 1010,9 hPa 0,0 mm 8,6 km/h (2 Bft) SW 225 0 min 1,8 C 14,6 km/h (3 Bft)
23.02.2016 03:02 7,7 C 7,6 C 66 % 1010,9 hPa 0,0 mm 8,6 km/h (2 Bft) SW 225 0 min 1,8 C 14,6 km/h (3 Bft)
23.02.2016 03:03 7,7 C 7,6 C 66 % 1010,9 hPa 0,0 mm 8,6 km/h (2 Bft) SW 225 0 min 1,8 C 14,6 km/h (3 Bft)
23.02.2016 03:04 7,7 C 7,6 C 66 % 1010,9 hPa 0,0 mm 8,6 km/h (2 Bft) SW 225 0 min 1,8 C 14,6 km/h (3 Bft)
23.02.2016 03:05 7,6 C 7,6 C 66 % 1010,9 hPa 0,0 mm 7,5 km/h (2 Bft) NW 315 0 min 1,7 C 8,6 km/h (2 Bft)
23.02.2016 03:06 7,6 C 7,6 C 66 % 1010,9 hPa 0,0 mm 7,5 km/h (2 Bft) NW 315 0 min 1,7 C 8,6 km/h (2 Bft)
23.02.2016 03:07 7,6 C 7,5 C 66 % 1010,9 hPa 0,0 mm 8,0 km/h (2 Bft) W-SW 247 0 min 1,7 C 7,5 km/h (2 Bft)
23.02.2016 03:08 7,6 C 7,5 C 66 % 1010,9 hPa 0,0 mm 8,0 km/h (2 Bft) W-SW 247 0 min 1,7 C 7,5 km/h (2 Bft)
23.02.2016 03:09 7,6 C 7,6 C 66 % 1010,9 hPa 0,0 mm 7,2 km/h (2 Bft) S-SW 202 0 min 1,7 C 8,9 km/h (2 Bft)
23.02.2016 03:10 7,6 C 7,6 C 66 % 1010,9 hPa 0,0 mm 7,2 km/h (2 Bft) S-SW 202 0 min 1,7 C 8,9 km/h (2 Bft)
23.02.2016 03:11 7,6 C 7,6 C 66 % 1010,9 hPa 0,0 mm 6,6 km/h (2 Bft) W-SW 247 0 min 1,7 C 7,5 km/h (2 Bft)
23.02.2016 03:12 7,6 C 7,6 C 66 % 1010,9 hPa 0,0 mm 6,6 km/h (2 Bft) W-SW 247 0 min 1,7 C 7,5 km/h (2 Bft)
23.02.2016 03:13 7,5 C 7,6 C 66 % 1010,9 hPa 0,0 mm 6,3 km/h (2 Bft) S-SO 157 0 min 1,6 C 4,5 km/h (1 Bft)
23.02.2016 03:14 7,5 C 7,6 C 66 % 1010,9 hPa 0,0 mm 6,3 km/h (2 Bft) S-SO 157 0 min 1,6 C 4,5 km/h (1 Bft)
23.02.2016 03:15 7,5 C 7,5 C 66 % 1010,9 hPa 0,0 mm 6,3 km/h (2 Bft) W-SW 247 0 min 1,6 C 11,0 km/h (2 Bft)
23.02.2016 03:16 7,5 C 7,5 C 66 % 1010,9 hPa 0,0 mm 6,3 km/h (2 Bft) W-SW 247 0 min 1,6 C 11,0 km/h (2 Bft)
23.02.2016 03:17 7,6 C 7,6 C 66 % 1010,9 hPa 0,0 mm 6,0 km/h (2 Bft) W 270 0 min 1,7 C 5,7 km/h (1 Bft)
23.02.2016 03:18 7,6 C 7,6 C 66 % 1010,9 hPa 0,0 mm 6,0 km/h (2 Bft) W 270 0 min 1,7 C 5,7 km/h (1 Bft)
23.02.2016 03:19 7,6 C 7,6 C 66 % 1010,9 hPa 0,0 mm 6,6 km/h (2 Bft) W-SW 247 0 min 1,7 C 4,8 km/h (1 Bft)
23.02.2016 03:20 7,6 C 7,6 C 66 % 1010,9 hPa 0,0 mm 6,6 km/h (2 Bft) W-SW 247 0 min 1,7 C 4,8 km/h (1 Bft)
23.02.2016 03:21 7,5 C 7,5 C 66 % 1010,9 hPa 0,0 mm 6,0 km/h (2 Bft) W-SW 247 0 min 1,6 C 5,4 km/h (1 Bft)
23.02.2016 03:22 7,5 C 7,5 C 66 % 1010,9 hPa 0,0 mm 6,0 km/h (2 Bft) W-SW 247 0 min 1,6 C 5,4 km/h (1 Bft)
23.02.2016 03:23 7,4 C 7,4 C 66 % 1010,7 hPa 0,0 mm 5,4 km/h (1 Bft) W-NW 292 0 min 1,5 C 6,6 km/h (2 Bft)
23.02.2016 03:24 7,4 C 7,4 C 66 % 1010,7 hPa 0,0 mm 5,4 km/h (1 Bft) W-NW 292 0 min 1,5 C 6,6 km/h (2 Bft)
23.02.2016 03:25 7,4 C 7,4 C 66 % 1010,7 hPa 0,0 mm 4,8 km/h (1 Bft) W-NW 292 0 min 1,5 C 4,2 km/h (1 Bft)
23.02.2016 03:26 7,4 C 7,4 C 66 % 1010,7 hPa 0,0 mm 4,8 km/h (1 Bft) W-NW 292 0 min 1,5 C 4,2 km/h (1 Bft)
23.02.2016 03:27 7,4 C 7,4 C 67 % 1010,7 hPa 0,0 mm 5,7 km/h (1 Bft) W-NW 292 0 min 1,7 C 5,4 km/h (1 Bft)
23.02.2016 03:28 7,4 C 7,4 C 67 % 1010,7 hPa 0,0 mm 5,7 km/h (1 Bft) W-NW 292 0 min 1,7 C 5,4 km/h (1 Bft)
23.02.2016 03:29 7,4 C 7,4 C 67 % 1010,7 hPa 0,0 mm 5,4 km/h (1 Bft) W-NW 292 0 min 1,7 C 11,0 km/h (2 Bft)
23.02.2016 03:30 7,4 C 7,4 C 67 % 1010,7 hPa 0,0 mm 5,4 km/h (1 Bft) W-NW 292 0 min 1,7 C 11,0 km/h (2 Bft)
23.02.2016 03:31 7,5 C 7,4 C 67 % 1010,7 hPa 0,0 mm 7,5 km/h (2 Bft) W-SW 247 0 min 1,8 C 12,2 km/h (2 Bft)
23.02.2016 03:32 7,5 C 7,4 C 67 % 1010,7 hPa 0,0 mm 7,5 km/h (2 Bft) W-SW 247 0 min 1,8 C 12,2 km/h (2 Bft)
23.02.2016 03:33 7,6 C 7,4 C 67 % 1010,7 hPa 0,0 mm 8,0 km/h (2 Bft) SW 225 0 min 1,9 C 15,8 km/h (3 Bft)
23.02.2016 03:34 7,6 C 7,4 C 67 % 1010,7 hPa 0,0 mm 8,0 km/h (2 Bft) SW 225 0 min 1,9 C 15,8 km/h (3 Bft)
23.02.2016 03:35 7,6 C 7,2 C 67 % 1010,7 hPa 0,0 mm 12,2 km/h (2 Bft) W-NW 292 0 min 1,9 C 19,4 km/h (3 Bft)
23.02.2016 03:36 7,6 C 7,2 C 67 % 1010,7 hPa 0,0 mm 12,2 km/h (2 Bft) W-NW 292 0 min 1,9 C 19,4 km/h (3 Bft)
23.02.2016 03:37 7,6 C 7,2 C 67 % 1010,7 hPa 0,0 mm 12,2 km/h (2 Bft) W-NW 292 0 min 1,9 C 6,3 km/h (2 Bft)
23.02.2016 03:38 7,6 C 7,2 C 67 % 1010,7 hPa 0,0 mm 12,2 km/h (2 Bft) W-NW 292 0 min 1,9 C 6,3 km/h (2 Bft)
23.02.2016 03:39 7,5 C 7,1 C 67 % 1010,7 hPa 0,0 mm 12,5 km/h (3 Bft) SW 225 0 min 1,8 C 8,6 km/h (2 Bft)
23.02.2016 03:40 7,5 C 7,1 C 67 % 1010,7 hPa 0,0 mm 12,5 km/h (3 Bft) SW 225 0 min 1,8 C 8,6 km/h (2 Bft)
23.02.2016 03:41 7,5 C 7,1 C 67 % 1010,7 hPa 0,0 mm 12,5 km/h (3 Bft) W-SW 247 0 min 1,8 C 15,2 km/h (3 Bft)
23.02.2016 03:42 7,5 C 7,1 C 67 % 1010,7 hPa 0,0 mm 12,5 km/h (3 Bft) W-SW 247 0 min 1,8 C 15,2 km/h (3 Bft)
23.02.2016 03:43 7,5 C 7,1 C 68 % 1010,8 hPa 0,0 mm 12,2 km/h (2 Bft) W-SW 247 0 min 2,0 C 9,5 km/h (2 Bft)
23.02.2016 03:44 7,5 C 7,1 C 68 % 1010,8 hPa 0,0 mm 12,2 km/h (2 Bft) W-SW 247 0 min 2,0 C 9,5 km/h (2 Bft)
23.02.2016 03:45 7,5 C 7,1 C 68 % 1010,8 hPa 0,0 mm 11,0 km/h (2 Bft) SO 135 0 min 2,0 C 17,6 km/h (3 Bft)
23.02.2016 03:46 7,5 C 7,1 C 68 % 1010,8 hPa 0,0 mm 11,0 km/h (2 Bft) SO 135 0 min 2,0 C 17,6 km/h (3 Bft)
23.02.2016 03:47 7,5 C 7,1 C 68 % 1010,8 hPa 0,0 mm 11,9 km/h (2 Bft) SW 225 0 min 2,0 C 14,9 km/h (3 Bft)
23.02.2016 03:48 7,5 C 7,1 C 68 % 1010,8 hPa 0,0 mm 11,9 km/h (2 Bft) SW 225 0 min 2,0 C 14,9 km/h (3 Bft)
23.02.2016 03:49 7,5 C 7,0 C 68 % 1010,8 hPa 0,0 mm 13,4 km/h (3 Bft) W-SW 247 0 min 2,0 C 26,8 km/h (4 Bft)
23.02.2016 03:50 7,5 C 7,0 C 68 % 1010,8 hPa 0,0 mm 13,4 km/h (3 Bft) W-SW 247 0 min 2,0 C 26,8 km/h (4 Bft)
23.02.2016 03:51 7,5 C 7,2 C 68 % 1010,8 hPa 0,0 mm 15,2 km/h (3 Bft) SW 225 0 min 2,0 C 19,1 km/h (3 Bft)
23.02.2016 03:52 7,5 C 7,0 C 68 % 1010,8 hPa 0,0 mm 15,2 km/h (3 Bft) SW 225 0 min 2,0 C 19,1 km/h (3 Bft)
23.02.2016 03:53 7,4 C 7,0 C 68 % 1010,8 hPa 0,0 mm 15,8 km/h (3 Bft) W 270 0 min 1,9 C 20,9 km/h (4 Bft)
23.02.2016 03:54 7,4 C 6,8 C 68 % 1010,8 hPa 0,0 mm 15,8 km/h (3 Bft) W 270 0 min 1,9 C 39,9 km/h (6 Bft)
23.02.2016 03:55 7,4 C 7,0 C 68 % 1010,8 hPa 0,0 mm 15,8 km/h (3 Bft) W 270 0 min 1,9 C 15,8 km/h (3 Bft)
23.02.2016 03:56 7,4 C 6,8 C 68 % 1010,8 hPa 0,0 mm 15,8 km/h (3 Bft) W 270 0 min 1,9 C 15,8 km/h (3 Bft)
23.02.2016 03:57 7,4 C 7,0 C 69 % 1010,8 hPa 0,0 mm 17,0 km/h (3 Bft) W 270 0 min 2,1 C 27,4 km/h (4 Bft)
23.02.2016 03:58 7,4 C 6,8 C 69 % 1010,8 hPa 0,0 mm 17,0 km/h (3 Bft) W 270 0 min 2,1 C 27,4 km/h (4 Bft)
23.02.2016 03:59 7,4 C 6,9 C 69 % 1010,8 hPa 0,0 mm 17,3 km/h (3 Bft) NW 315 0 min 2,1 C 37,3 km/h (5 Bft)
23.02.2016 04:00 7,4 C 6,7 C 69 % 1010,8 hPa 0,0 mm 17,3 km/h (3 Bft) NW 315 0 min 2,1 C 37,3 km/h (5 Bft)
23.02.2016 04:01 7,4 C 6,7 C 69 % 1010,8 hPa 0,0 mm 17,0 km/h (3 Bft) W 270 0 min 2,1 C 14,3 km/h (3 Bft)
23.02.2016 04:02 7,4 C 6,7 C 69 % 1010,8 hPa 0,0 mm 17,0 km/h (3 Bft) W 270 0 min 2,1 C 14,3 km/h (3 Bft)
23.02.2016 04:03 7,4 C 6,9 C 69 % 1010,7 hPa 0,0 mm 18,2 km/h (3 Bft) SW 225 0 min 2,1 C 26,2 km/h (4 Bft)
23.02.2016 04:04 7,4 C 6,7 C 69 % 1010,7 hPa 0,0 mm 18,2 km/h (3 Bft) SW 225 0 min 2,1 C 42,9 km/h (6 Bft)
23.02.2016 04:05 7,3 C 6,8 C 68 % 1010,7 hPa 0,0 mm 17,9 km/h (3 Bft) W-NW 292 0 min 1,8 C 22,1 km/h (4 Bft)
23.02.2016 04:06 7,3 C 6,6 C 68 % 1010,7 hPa 0,0 mm 17,9 km/h (3 Bft) W-NW 292 0 min 1,8 C 22,1 km/h (4 Bft)
23.02.2016 04:07 7,3 C 6,6 C 68 % 1010,7 hPa 0,0 mm 18,5 km/h (3 Bft) W 270 0 min 1,8 C 16,7 km/h (3 Bft)
23.02.2016 04:08 7,3 C 6,6 C 68 % 1010,7 hPa 0,0 mm 18,5 km/h (3 Bft) W 270 0 min 1,8 C 16,7 km/h (3 Bft)
23.02.2016 04:09 7,4 C 6,7 C 68 % 1010,7 hPa 0,0 mm 18,5 km/h (3 Bft) W-SW 247 0 min 1,9 C 28,0 km/h (4 Bft)
23.02.2016 04:10 7,4 C 6,7 C 68 % 1010,7 hPa 0,0 mm 18,5 km/h (3 Bft) W-SW 247 0 min 1,9 C 28,0 km/h (4 Bft)
23.02.2016 04:11 7,3 C 6,9 C 68 % 1010,7 hPa 0,0 mm 17,0 km/h (3 Bft) NW 315 0 min 1,8 C 12,8 km/h (3 Bft)
23.02.2016 04:12 7,3 C 6,7 C 68 % 1010,7 hPa 0,0 mm 17,0 km/h (3 Bft) NW 315 0 min 1,8 C 12,8 km/h (3 Bft)
23.02.2016 04:13 7,3 C 6,9 C 68 % 1010,7 hPa 0,0 mm 16,7 km/h (3 Bft) NW 315 0 min 1,8 C 17,9 km/h (3 Bft)
23.02.2016 04:14 7,3 C 6,7 C 68 % 1010,7 hPa 0,0 mm 16,7 km/h (3 Bft) NW 315 0 min 1,8 C 53,9 km/h (7 Bft)
23.02.2016 04:15 7,3 C 6,8 C 68 % 1010,7 hPa 0,0 mm 18,8 km/h (3 Bft) N-NW 337 0 min 1,8 C 34,3 km/h (5 Bft)
23.02.2016 04:16 7,3 C 6,6 C 68 % 1010,7 hPa 0,0 mm 18,8 km/h (3 Bft) N-NW 337 0 min 1,8 C 34,3 km/h (5 Bft)
23.02.2016 04:17 7,4 C 6,9 C 68 % 1010,7 hPa 0,0 mm 19,1 km/h (3 Bft) NW 315 0 min 1,9 C 39,6 km/h (6 Bft)
23.02.2016 04:18 7,4 C 6,6 C 68 % 1010,7 hPa 0,0 mm 19,1 km/h (3 Bft) NW 315 0 min 1,9 C 39,6 km/h (6 Bft)
23.02.2016 04:19 7,3 C 6,8 C 68 % 1010,7 hPa 0,0 mm 19,1 km/h (3 Bft) W-SW 247 0 min 1,8 C 18,5 km/h (3 Bft)
23.02.2016 04:20 7,3 C 6,6 C 68 % 1010,7 hPa 0,0 mm 19,1 km/h (3 Bft) W-SW 247 0 min 1,8 C 18,5 km/h (3 Bft)
23.02.2016 04:21 7,3 C 6,8 C 68 % 1010,7 hPa 0,0 mm 20,3 km/h (4 Bft) W 270 0 min 1,8 C 42,3 km/h (6 Bft)
23.02.2016 04:22 7,3 C 6,5 C 68 % 1010,7 hPa 0,0 mm 20,3 km/h (4 Bft) W 270 0 min 1,8 C 42,3 km/h (6 Bft)
23.02.2016 04:23 7,2 C 6,5 C 68 % 1010,4 hPa 0,0 mm 20,3 km/h (4 Bft) W-SW 247 0 min 1,7 C 17,3 km/h (3 Bft)
23.02.2016 04:24 7,2 C 6,5 C 68 % 1010,4 hPa 0,0 mm 20,3 km/h (4 Bft) W-SW 247 0 min 1,7 C 17,3 km/h (3 Bft)
23.02.2016 04:25 7,2 C 6,7 C 68 % 1010,4 hPa 0,0 mm 19,4 km/h (3 Bft) W-NW 292 0 min 1,7 C 17,9 km/h (3 Bft)
23.02.2016 04:26 7,2 C 6,5 C 68 % 1010,4 hPa 0,0 mm 19,4 km/h (3 Bft) W-NW 292 0 min 1,7 C 17,9 km/h (3 Bft)
23.02.2016 04:27 7,2 C 6,7 C 68 % 1010,4 hPa 0,0 mm 18,8 km/h (3 Bft) W-SW 247 0 min 1,7 C 31,0 km/h (5 Bft)
23.02.2016 04:28 7,2 C 6,5 C 68 % 1010,4 hPa 0,0 mm 18,8 km/h (3 Bft) W-SW 247 0 min 1,7 C 31,0 km/h (5 Bft)
23.02.2016 04:29 7,2 C 6,8 C 68 % 1010,4 hPa 0,0 mm 17,9 km/h (3 Bft) W 270 0 min 1,7 C 13,7 km/h (3 Bft)
23.02.2016 04:30 7,2 C 6,6 C 68 % 1010,4 hPa 0,0 mm 17,9 km/h (3 Bft) W 270 0 min 1,7 C 13,7 km/h (3 Bft)
23.02.2016 04:31 7,2 C 6,6 C 68 % 1010,4 hPa 0,0 mm 17,6 km/h (3 Bft) W 270 0 min 1,7 C 19,7 km/h (3 Bft)
23.02.2016 04:32 7,2 C 6,6 C 68 % 1010,4 hPa 0,0 mm 17,6 km/h (3 Bft) W 270 0 min 1,7 C 19,7 km/h (3 Bft)
23.02.2016 04:33 7,2 C 6,8 C 68 % 1010,4 hPa 0,0 mm 16,7 km/h (3 Bft) W 270 0 min 1,7 C 22,7 km/h (4 Bft)
23.02.2016 04:34 7,2 C 6,6 C 68 % 1010,4 hPa 0,0 mm 16,7 km/h (3 Bft) W 270 0 min 1,7 C 22,7 km/h (4 Bft)
23.02.2016 04:35 7,1 C 6,7 C 68 % 1010,4 hPa 0,0 mm 17,0 km/h (3 Bft) W 270 0 min 1,6 C 18,8 km/h (3 Bft)
23.02.2016 04:36 7,1 C 6,5 C 68 % 1010,4 hPa 0,0 mm 17,0 km/h (3 Bft) W 270 0 min 1,6 C 18,8 km/h (3 Bft)
23.02.2016 04:37 7,1 C 6,7 C 68 % 1010,4 hPa 0,0 mm 15,2 km/h (3 Bft) W 270 0 min 1,6 C 20,0 km/h (4 Bft)
23.02.2016 04:38 7,1 C 6,5 C 68 % 1010,4 hPa 0,0 mm 15,2 km/h (3 Bft) W 270 0 min 1,6 C 20,0 km/h (4 Bft)
23.02.2016 04:39 7,1 C 6,6 C 68 % 1010,4 hPa 0,0 mm 13,4 km/h (3 Bft) W-SW 247 0 min 1,6 C 11,3 km/h (2 Bft)
23.02.2016 04:40 7,1 C 6,6 C 68 % 1010,4 hPa 0,0 mm 13,4 km/h (3 Bft) W-SW 247 0 min 1,6 C 11,3 km/h (2 Bft)
23.02.2016 04:41 7,1 C 6,7 C 68 % 1010,4 hPa 0,0 mm 14,3 km/h (3 Bft) W 270 0 min 1,6 C 12,8 km/h (3 Bft)
23.02.2016 04:42 7,1 C 6,5 C 68 % 1010,4 hPa 0,0 mm 14,3 km/h (3 Bft) W 270 0 min 1,6 C 12,8 km/h (3 Bft)
23.02.2016 04:43 7,0 C 6,5 C 69 % 1010,6 hPa 0,0 mm 13,4 km/h (3 Bft) W 270 0 min 1,7 C 16,7 km/h (3 Bft)
23.02.2016 04:44 7,0 C 6,5 C 69 % 1010,6 hPa 0,0 mm 13,4 km/h (3 Bft) W 270 0 min 1,7 C 16,7 km/h (3 Bft)
23.02.2016 04:45 7,0 C 6,5 C 69 % 1010,6 hPa 0,0 mm 13,7 km/h (3 Bft) W-NW 292 0 min 1,7 C 25,0 km/h (4 Bft)
23.02.2016 04:46 7,0 C 6,5 C 69 % 1010,6 hPa 0,0 mm 13,7 km/h (3 Bft) W-NW 292 0 min 1,7 C 25,0 km/h (4 Bft)
23.02.2016 04:47 7,0 C 6,6 C 69 % 1010,6 hPa 0,0 mm 14,9 km/h (3 Bft) W 270 0 min 1,7 C 21,8 km/h (4 Bft)
23.02.2016 04:48 7,0 C 6,4 C 69 % 1010,6 hPa 0,0 mm 14,9 km/h (3 Bft) W 270 0 min 1,7 C 21,8 km/h (4 Bft)
23.02.2016 04:49 7,0 C 6,4 C 69 % 1010,6 hPa 0,0 mm 14,6 km/h (3 Bft) W-SW 247 0 min 1,7 C 7,7 km/h (2 Bft)
23.02.2016 04:50 7,0 C 6,4 C 69 % 1010,6 hPa 0,0 mm 14,6 km/h (3 Bft) W-SW 247 0 min 1,7 C 7,7 km/h (2 Bft)
23.02.2016 04:51 7,0 C 6,6 C 69 % 1010,6 hPa 0,0 mm 15,2 km/h (3 Bft) W 270 0 min 1,7 C 13,4 km/h (3 Bft)
23.02.2016 04:52 7,0 C 6,4 C 69 % 1010,6 hPa 0,0 mm 15,2 km/h (3 Bft) W 270 0 min 1,7 C 13,4 km/h (3 Bft)
23.02.2016 04:53 7,0 C 6,6 C 70 % 1010,6 hPa 0,0 mm 16,1 km/h (3 Bft) W-SW 247 0 min 1,9 C 39,0 km/h (6 Bft)
23.02.2016 04:54 7,0 C 6,4 C 70 % 1010,6 hPa 0,0 mm 16,1 km/h (3 Bft) W-SW 247 0 min 1,9 C 39,0 km/h (6 Bft)
23.02.2016 04:55 6,9 C 6,5 C 70 % 1010,6 hPa 0,0 mm 17,0 km/h (3 Bft) W 270 0 min 1,8 C 24,1 km/h (4 Bft)
23.02.2016 04:56 6,9 C 6,2 C 70 % 1010,6 hPa 0,0 mm 17,0 km/h (3 Bft) W 270 0 min 1,8 C 24,1 km/h (4 Bft)
23.02.2016 04:57 6,9 C 6,5 C 70 % 1010,6 hPa 0,0 mm 16,4 km/h (3 Bft) W 270 0 min 1,8 C 19,7 km/h (3 Bft)
23.02.2016 04:58 6,9 C 6,3 C 70 % 1010,6 hPa 0,0 mm 16,4 km/h (3 Bft) W 270 0 min 1,8 C 19,7 km/h (3 Bft)
23.02.2016 04:59 6,9 C 6,5 C 70 % 1010,6 hPa 0,0 mm 16,4 km/h (3 Bft) W-SW 247 0 min 1,8 C 15,2 km/h (3 Bft)
23.02.2016 05:00 6,9 C 6,2 C 70 % 1010,6 hPa 0,0 mm 16,4 km/h (3 Bft) W-SW 247 0 min 1,8 C 15,2 km/h (3 Bft)
23.02.2016 05:01 6,8 C 6,4 C 70 % 1010,6 hPa 0,0 mm 15,2 km/h (3 Bft) W-SW 247 0 min 1,7 C 11,0 km/h (2 Bft)
23.02.2016 05:02 6,8 C 6,2 C 70 % 1010,6 hPa 0,0 mm 15,2 km/h (3 Bft) W-SW 247 0 min 1,7 C 11,0 km/h (2 Bft)
23.02.2016 05:03 6,7 C 6,3 C 70 % 1010,6 hPa 0,0 mm 14,9 km/h (3 Bft) W 270 0 min 1,6 C 9,2 km/h (2 Bft)
23.02.2016 05:04 6,7 C 6,1 C 70 % 1010,6 hPa 0,0 mm 14,9 km/h (3 Bft) W 270 0 min 1,6 C 9,2 km/h (2 Bft)
23.02.2016 05:05 6,6 C 6,1 C 70 % 1010,6 hPa 0,0 mm 13,7 km/h (3 Bft) SW 225 0 min 1,5 C 21,5 km/h (4 Bft)
23.02.2016 05:06 6,6 C 6,1 C 70 % 1010,6 hPa 0,0 mm 13,7 km/h (3 Bft) SW 225 0 min 1,5 C 21,5 km/h (4 Bft)
23.02.2016 05:07 6,6 C 6,0 C 70 % 1010,6 hPa 0,0 mm 14,0 km/h (3 Bft) W 270 0 min 1,5 C 35,8 km/h (5 Bft)
23.02.2016 05:08 6,6 C 6,0 C 70 % 1010,6 hPa 0,0 mm 14,0 km/h (3 Bft) W 270 0 min 1,5 C 35,8 km/h (5 Bft)
23.02.2016 05:09 6,7 C 6,1 C 70 % 1010,6 hPa 0,0 mm 13,1 km/h (3 Bft) W-SW 247 0 min 1,6 C 16,1 km/h (3 Bft)
23.02.2016 05:10 6,7 C 6,1 C 70 % 1010,6 hPa 0,0 mm 13,1 km/h (3 Bft) W-SW 247 0 min 1,6 C 16,1 km/h (3 Bft)
23.02.2016 05:11 6,6 C 6,0 C 70 % 1010,6 hPa 0,0 mm 13,1 km/h (3 Bft) W 270 0 min 1,5 C 15,8 km/h (3 Bft)
23.02.2016 05:12 6,6 C 6,0 C 70 % 1010,6 hPa 0,0 mm 13,1 km/h (3 Bft) W 270 0 min 1,5 C 15,8 km/h (3 Bft)
23.02.2016 05:13 6,6 C 6,0 C 70 % 1010,6 hPa 0,0 mm 13,4 km/h (3 Bft) W 270 0 min 1,5 C 18,2 km/h (3 Bft)
23.02.2016 05:14 6,6 C 6,0 C 70 % 1010,6 hPa 0,0 mm 13,4 km/h (3 Bft) W 270 0 min 1,5 C 18,2 km/h (3 Bft)
23.02.2016 05:15 6,6 C 6,1 C 70 % 1010,6 hPa 0,0 mm 14,9 km/h (3 Bft) NW 315 0 min 1,5 C 33,4 km/h (5 Bft)
23.02.2016 05:16 6,6 C 5,9 C 70 % 1010,6 hPa 0,0 mm 14,9 km/h (3 Bft) NW 315 0 min 1,5 C 33,4 km/h (5 Bft)
23.02.2016 05:17 6,6 C 6,1 C 70 % 1010,6 hPa 0,0 mm 15,5 km/h (3 Bft) W-NW 292 0 min 1,5 C 24,1 km/h (4 Bft)
23.02.2016 05:18 6,6 C 5,9 C 70 % 1010,6 hPa 0,0 mm 15,5 km/h (3 Bft) W-NW 292 0 min 1,5 C 24,1 km/h (4 Bft)
23.02.2016 05:19 6,6 C 5,9 C 70 % 1010,6 hPa 0,0 mm 15,5 km/h (3 Bft) W-NW 292 0 min 1,5 C 28,9 km/h (5 Bft)
23.02.2016 05:20 6,6 C 5,9 C 70 % 1010,6 hPa 0,0 mm 15,5 km/h (3 Bft) W-NW 292 0 min 1,5 C 28,9 km/h (5 Bft)
23.02.2016 05:21 6,6 C 6,1 C 70 % 1010,6 hPa 0,0 mm 15,8 km/h (3 Bft) W-SW 247 0 min 1,5 C 11,3 km/h (2 Bft)
23.02.2016 05:22 6,6 C 5,9 C 70 % 1010,6 hPa 0,0 mm 15,8 km/h (3 Bft) W-SW 247 0 min 1,5 C 11,3 km/h (2 Bft)
23.02.2016 05:23 6,5 C 5,8 C 70 % 1010,3 hPa 0,0 mm 17,0 km/h (3 Bft) NW 315 0 min 1,4 C 29,8 km/h (5 Bft)
23.02.2016 05:24 6,5 C 5,8 C 70 % 1010,3 hPa 0,0 mm 17,0 km/h (3 Bft) NW 315 0 min 1,4 C 29,8 km/h (5 Bft)
23.02.2016 05:25 6,6 C 6,1 C 70 % 1010,3 hPa 0,0 mm 18,2 km/h (3 Bft) W-NW 292 0 min 1,5 C 23,8 km/h (4 Bft)
23.02.2016 05:26 6,6 C 5,8 C 70 % 1010,3 hPa 0,0 mm 18,2 km/h (3 Bft) W-NW 292 0 min 1,5 C 23,8 km/h (4 Bft)
23.02.2016 05:27 6,5 C 5,7 C 70 % 1010,3 hPa 0,0 mm 17,6 km/h (3 Bft) W 270 0 min 1,4 C 25,9 km/h (4 Bft)
23.02.2016 05:28 6,5 C 5,7 C 70 % 1010,3 hPa 0,0 mm 17,6 km/h (3 Bft) W 270 0 min 1,4 C 25,9 km/h (4 Bft)
23.02.2016 05:29 6,5 C 5,9 C 70 % 1010,3 hPa 0,0 mm 18,5 km/h (3 Bft) W 270 0 min 1,4 C 18,8 km/h (3 Bft)
23.02.2016 05:30 6,5 C 5,7 C 70 % 1010,3 hPa 0,0 mm 18,5 km/h (3 Bft) W 270 0 min 1,4 C 18,8 km/h (3 Bft)
23.02.2016 05:31 6,5 C 6,0 C 70 % 1010,3 hPa 0,0 mm 18,2 km/h (3 Bft) SW 225 0 min 1,4 C 16,1 km/h (3 Bft)
23.02.2016 05:32 6,5 C 5,7 C 70 % 1010,3 hPa 0,0 mm 18,2 km/h (3 Bft) SW 225 0 min 1,4 C 16,1 km/h (3 Bft)
23.02.2016 05:33 6,4 C 5,9 C 70 % 1010,3 hPa 0,0 mm 18,5 km/h (3 Bft) W-SW 247 0 min 1,3 C 22,4 km/h (4 Bft)
23.02.2016 05:34 6,4 C 5,6 C 70 % 1010,3 hPa 0,0 mm 18,5 km/h (3 Bft) W-SW 247 0 min 1,3 C 22,4 km/h (4 Bft)
23.02.2016 05:35 6,4 C 5,9 C 70 % 1010,3 hPa 0,0 mm 16,7 km/h (3 Bft) W 270 0 min 1,3 C 15,2 km/h (3 Bft)
23.02.2016 05:36 6,4 C 5,7 C 70 % 1010,3 hPa 0,0 mm 16,7 km/h (3 Bft) W 270 0 min 1,3 C 15,2 km/h (3 Bft)
23.02.2016 05:37 6,4 C 5,9 C 70 % 1010,3 hPa 0,0 mm 15,2 km/h (3 Bft) NW 315 0 min 1,3 C 24,4 km/h (4 Bft)
23.02.2016 05:38 6,4 C 5,7 C 70 % 1010,3 hPa 0,0 mm 15,2 km/h (3 Bft) NW 315 0 min 1,3 C 24,4 km/h (4 Bft)
23.02.2016 05:39 6,4 C 6,0 C 70 % 1010,3 hPa 0,0 mm 14,3 km/h (3 Bft) W-SW 247 0 min 1,3 C 14,9 km/h (3 Bft)
23.02.2016 05:40 6,4 C 5,8 C 70 % 1010,3 hPa 0,0 mm 14,3 km/h (3 Bft) W-SW 247 0 min 1,3 C 14,9 km/h (3 Bft)
23.02.2016 05:41 6,4 C 5,9 C 70 % 1010,3 hPa 0,0 mm 12,8 km/h (3 Bft) W-SW 247 0 min 1,3 C 16,1 km/h (3 Bft)
23.02.2016 05:42 6,4 C 5,9 C 70 % 1010,3 hPa 0,0 mm 12,8 km/h (3 Bft) W-SW 247 0 min 1,3 C 16,1 km/h (3 Bft)
23.02.2016 05:43 6,5 C 6,0 C 70 % 1010,5 hPa 0,0 mm 12,2 km/h (2 Bft) S 180 0 min 1,4 C 10,1 km/h (2 Bft)
23.02.2016 05:44 6,5 C 6,1 C 70 % 1010,5 hPa 0,0 mm 11,3 km/h (2 Bft) SW 225 0 min 1,4 C 11,0 km/h (2 Bft)
23.02.2016 05:45 6,5 C 6,1 C 70 % 1010,5 hPa 0,0 mm 11,3 km/h (2 Bft) SW 225 0 min 1,4 C 11,0 km/h (2 Bft)
23.02.2016 05:46 6,5 C 6,1 C 70 % 1010,5 hPa 0,0 mm 11,3 km/h (2 Bft) SW 225 0 min 1,4 C 11,0 km/h (2 Bft)
23.02.2016 05:47 6,5 C 6,1 C 70 % 1010,5 hPa 0,0 mm 10,7 km/h (2 Bft) W 270 0 min 1,4 C 8,9 km/h (2 Bft)
23.02.2016 05:48 6,5 C 6,1 C 70 % 1010,5 hPa 0,0 mm 10,7 km/h (2 Bft) W 270 0 min 1,4 C 8,9 km/h (2 Bft)
23.02.2016 05:49 6,5 C 6,1 C 70 % 1010,5 hPa 0,0 mm 10,1 km/h (2 Bft) O 90 0 min 1,4 C 20,3 km/h (4 Bft)
23.02.2016 05:50 6,5 C 6,1 C 70 % 1010,5 hPa 0,0 mm 10,1 km/h (2 Bft) O 90 0 min 1,4 C 20,3 km/h (4 Bft)
23.02.2016 05:51 6,5 C 6,1 C 70 % 1010,5 hPa 0,0 mm 9,5 km/h (2 Bft) SW 225 0 min 1,4 C 9,8 km/h (2 Bft)
23.02.2016 05:52 6,5 C 6,1 C 70 % 1010,5 hPa 0,0 mm 9,5 km/h (2 Bft) SW 225 0 min 1,4 C 9,8 km/h (2 Bft)
23.02.2016 05:53 6,5 C 6,2 C 70 % 1010,5 hPa 0,0 mm 8,9 km/h (2 Bft) W-SW 247 0 min 1,4 C 10,1 km/h (2 Bft)
23.02.2016 05:54 6,5 C 6,2 C 70 % 1010,5 hPa 0,0 mm 8,9 km/h (2 Bft) W-SW 247 0 min 1,4 C 10,1 km/h (2 Bft)
23.02.2016 05:55 6,4 C 6,2 C 70 % 1010,5 hPa 0,0 mm 8,3 km/h (2 Bft) W 270 0 min 1,3 C 8,0 km/h (2 Bft)
23.02.2016 05:56 6,4 C 6,2 C 70 % 1010,5 hPa 0,0 mm 8,3 km/h (2 Bft) W 270 0 min 1,3 C 8,0 km/h (2 Bft)
23.02.2016 05:57 6,4 C 6,2 C 70 % 1010,5 hPa 0,0 mm 8,6 km/h (2 Bft) NW 315 0 min 1,3 C 9,8 km/h (2 Bft)
23.02.2016 05:58 6,4 C 6,2 C 70 % 1010,5 hPa 0,0 mm 8,6 km/h (2 Bft) NW 315 0 min 1,3 C 9,8 km/h (2 Bft)
23.02.2016 05:59 6,4 C 6,2 C 70 % 1010,5 hPa 0,0 mm 8,0 km/h (2 Bft) W-SW 247 0 min 1,3 C 6,3 km/h (2 Bft)
23.02.2016 06:00 6,4 C 6,2 C 70 % 1010,5 hPa 0,0 mm 8,0 km/h (2 Bft) W-SW 247 0 min 1,3 C 6,3 km/h (2 Bft)
23.02.2016 06:01 6,3 C 6,1 C 70 % 1010,5 hPa 0,0 mm 8,0 km/h (2 Bft) W-SW 247 0 min 1,2 C 9,5 km/h (2 Bft)
23.02.2016 06:02 6,3 C 6,1 C 70 % 1010,5 hPa 0,0 mm 8,0 km/h (2 Bft) W-SW 247 0 min 1,2 C 9,5 km/h (2 Bft)
23.02.2016 06:03 6,3 C 6,1 C 70 % 1010,2 hPa 0,0 mm 7,7 km/h (2 Bft) W 270 0 min 1,2 C 6,3 km/h (2 Bft)
23.02.2016 06:04 6,3 C 6,1 C 70 % 1010,2 hPa 0,0 mm 7,7 km/h (2 Bft) W 270 0 min 1,2 C 6,3 km/h (2 Bft)
23.02.2016 06:05 6,3 C 6,1 C 70 % 1010,2 hPa 0,0 mm 8,0 km/h (2 Bft) W 270 0 min 1,2 C 3,9 km/h (1 Bft)
23.02.2016 06:06 6,3 C 6,1 C 70 % 1010,2 hPa 0,0 mm 8,0 km/h (2 Bft) W 270 0 min 1,2 C 3,9 km/h (1 Bft)
23.02.2016 06:07 6,3 C 6,1 C 70 % 1010,2 hPa 0,0 mm 8,0 km/h (2 Bft) W 270 0 min 1,2 C 14,0 km/h (3 Bft)
23.02.2016 06:08 6,3 C 6,1 C 70 % 1010,2 hPa 0,0 mm 8,0 km/h (2 Bft) W 270 0 min 1,2 C 14,0 km/h (3 Bft)
23.02.2016 06:09 6,3 C 6,1 C 70 % 1010,2 hPa 0,0 mm 8,0 km/h (2 Bft) S-SO 157 0 min 1,2 C 8,3 km/h (2 Bft)
23.02.2016 06:10 6,3 C 6,1 C 70 % 1010,2 hPa 0,0 mm 8,0 km/h (2 Bft) S-SO 157 0 min 1,2 C 8,3 km/h (2 Bft)
23.02.2016 06:11 6,3 C 6,0 C 70 % 1010,2 hPa 0,0 mm 8,3 km/h (2 Bft) S-SW 202 0 min 1,2 C 13,7 km/h (3 Bft)
23.02.2016 06:12 6,3 C 6,0 C 70 % 1010,2 hPa 0,0 mm 8,3 km/h (2 Bft) S-SW 202 0 min 1,2 C 13,7 km/h (3 Bft)
23.02.2016 06:13 6,2 C 5,9 C 70 % 1010,2 hPa 0,0 mm 8,0 km/h (2 Bft) S 180 0 min 1,1 C 4,5 km/h (1 Bft)
23.02.2016 06:14 6,2 C 5,9 C 70 % 1010,2 hPa 0,0 mm 8,0 km/h (2 Bft) S 180 0 min 1,1 C 4,5 km/h (1 Bft)
23.02.2016 06:15 6,2 C 6,0 C 70 % 1010,2 hPa 0,0 mm 7,7 km/h (2 Bft) W-NW 292 0 min 1,1 C 15,8 km/h (3 Bft)
23.02.2016 06:16 6,2 C 6,0 C 70 % 1010,2 hPa 0,0 mm 7,7 km/h (2 Bft) W-NW 292 0 min 1,1 C 15,8 km/h (3 Bft)
23.02.2016 06:17 6,3 C 6,0 C 70 % 1010,2 hPa 0,0 mm 8,6 km/h (2 Bft) NW 315 0 min 1,2 C 11,9 km/h (2 Bft)
23.02.2016 06:18 6,3 C 6,0 C 70 % 1010,2 hPa 0,0 mm 8,6 km/h (2 Bft) NW 315 0 min 1,2 C 11,9 km/h (2 Bft)
23.02.2016 06:19 6,2 C 5,9 C 70 % 1010,2 hPa 0,0 mm 8,6 km/h (2 Bft) W-SW 247 0 min 1,1 C 14,6 km/h (3 Bft)
23.02.2016 06:20 6,2 C 5,9 C 70 % 1010,2 hPa 0,0 mm 8,6 km/h (2 Bft) W-SW 247 0 min 1,1 C 14,6 km/h (3 Bft)
23.02.2016 06:21 6,3 C 5,9 C 70 % 1010,2 hPa 0,0 mm 9,2 km/h (2 Bft) W-SW 247 0 min 1,2 C 17,6 km/h (3 Bft)
23.02.2016 06:22 6,3 C 5,9 C 70 % 1010,2 hPa 0,0 mm 9,2 km/h (2 Bft) W-SW 247 0 min 1,2 C 17,6 km/h (3 Bft)
23.02.2016 06:23 6,3 C 5,9 C 70 % 1010,0 hPa 0,0 mm 9,8 km/h (2 Bft) W 270 0 min 1,2 C 9,5 km/h (2 Bft)
23.02.2016 06:24 6,3 C 5,9 C 70 % 1010,0 hPa 0,0 mm 9,8 km/h (2 Bft) W 270 0 min 1,2 C 9,5 km/h (2 Bft)
23.02.2016 06:25 6,3 C 5,8 C 70 % 1010,0 hPa 0,0 mm 11,0 km/h (2 Bft) W-SW 247 0 min 1,2 C 15,5 km/h (3 Bft)
23.02.2016 06:26 6,3 C 5,8 C 70 % 1010,0 hPa 0,0 mm 11,0 km/h (2 Bft) W-SW 247 0 min 1,2 C 15,5 km/h (3 Bft)
23.02.2016 06:27 6,3 C 5,8 C 69 % 1010,0 hPa 0,0 mm 11,0 km/h (2 Bft) NW 315 0 min 1,0 C 28,9 km/h (5 Bft)
23.02.2016 06:28 6,3 C 5,8 C 69 % 1010,0 hPa 0,0 mm 11,0 km/h (2 Bft) NW 315 0 min 1,0 C 28,9 km/h (5 Bft)
23.02.2016 06:29 6,5 C 5,9 C 69 % 1010,0 hPa 0,0 mm 12,5 km/h (3 Bft) W-NW 292 0 min 1,2 C 16,7 km/h (3 Bft)
23.02.2016 06:30 6,5 C 5,9 C 69 % 1010,0 hPa 0,0 mm 12,5 km/h (3 Bft) W-NW 292 0 min 1,2 C 16,7 km/h (3 Bft)
23.02.2016 06:31 6,5 C 5,9 C 68 % 1010,0 hPa 0,0 mm 12,5 km/h (3 Bft) W 270 0 min 1,0 C 11,6 km/h (2 Bft)
23.02.2016 06:32 6,5 C 5,9 C 68 % 1010,0 hPa 0,0 mm 12,5 km/h (3 Bft) W 270 0 min 1,0 C 11,6 km/h (2 Bft)
23.02.2016 06:33 6,5 C 5,9 C 68 % 1010,0 hPa 0,0 mm 13,4 km/h (3 Bft) N-NO 22 0 min 1,0 C 14,0 km/h (3 Bft)
23.02.2016 06:34 6,5 C 5,9 C 68 % 1010,0 hPa 0,0 mm 13,4 km/h (3 Bft) N-NO 22 0 min 1,0 C 14,0 km/h (3 Bft)
23.02.2016 06:35 6,5 C 5,9 C 68 % 1010,0 hPa 0,0 mm 13,4 km/h (3 Bft) NW 315 0 min 1,0 C 10,1 km/h (2 Bft)
23.02.2016 06:36 6,5 C 5,9 C 68 % 1010,0 hPa 0,0 mm 13,4 km/h (3 Bft) NW 315 0 min 1,0 C 10,1 km/h (2 Bft)
23.02.2016 06:37 6,4 C 5,9 C 67 % 1010,0 hPa 0,0 mm 12,5 km/h (3 Bft) SW 225 0 min 0,7 C 15,8 km/h (3 Bft)
23.02.2016 06:38 6,4 C 5,9 C 67 % 1010,0 hPa 0,0 mm 12,5 km/h (3 Bft) SW 225 0 min 0,7 C 15,8 km/h (3 Bft)
23.02.2016 06:39 6,3 C 5,8 C 67 % 1010,0 hPa 0,0 mm 11,6 km/h (2 Bft) SW 225 0 min 0,6 C 20,3 km/h (4 Bft)
23.02.2016 06:40 6,3 C 5,8 C 67 % 1010,0 hPa 0,0 mm 11,6 km/h (2 Bft) SW 225 0 min 0,6 C 20,3 km/h (4 Bft)
23.02.2016 06:41 6,4 C 5,9 C 67 % 1010,0 hPa 0,0 mm 11,0 km/h (2 Bft) SW 225 0 min 0,7 C 10,1 km/h (2 Bft)
23.02.2016 06:42 6,4 C 5,9 C 67 % 1010,0 hPa 0,0 mm 11,0 km/h (2 Bft) SW 225 0 min 0,7 C 10,1 km/h (2 Bft)
23.02.2016 06:43 6,4 C 6,0 C 67 % 1009,9 hPa 0,0 mm 9,5 km/h (2 Bft) W 270 0 min 0,7 C 10,1 km/h (2 Bft)
23.02.2016 06:44 6,4 C 6,0 C 67 % 1009,9 hPa 0,0 mm 9,5 km/h (2 Bft) W 270 0 min 0,7 C 10,1 km/h (2 Bft)
23.02.2016 06:45 6,4 C 6,0 C 66 % 1009,9 hPa 0,0 mm 9,8 km/h (2 Bft) W 270 0 min 0,5 C 13,1 km/h (3 Bft)
23.02.2016 06:46 6,4 C 6,0 C 66 % 1009,9 hPa 0,0 mm 9,8 km/h (2 Bft) W 270 0 min 0,5 C 13,1 km/h (3 Bft)
23.02.2016 06:47 6,5 C 6,0 C 66 % 1009,9 hPa 0,0 mm 10,4 km/h (2 Bft) W 270 0 min 0,6 C 8,3 km/h (2 Bft)
23.02.2016 06:48 6,5 C 6,0 C 66 % 1009,9 hPa 0,0 mm 10,4 km/h (2 Bft) W 270 0 min 0,6 C 8,3 km/h (2 Bft)
23.02.2016 06:49 6,5 C 6,0 C 65 % 1009,9 hPa 0,0 mm 11,3 km/h (2 Bft) W 270 0 min 0,4 C 15,8 km/h (3 Bft)
23.02.2016 06:50 6,5 C 6,0 C 65 % 1009,9 hPa 0,0 mm 11,3 km/h (2 Bft) W 270 0 min 0,4 C 15,8 km/h (3 Bft)
23.02.2016 06:51 6,6 C 6,1 C 65 % 1009,9 hPa 0,0 mm 11,6 km/h (2 Bft) W 270 0 min 0,5 C 15,8 km/h (3 Bft)
23.02.2016 06:52 6,6 C 6,1 C 65 % 1009,9 hPa 0,0 mm 11,6 km/h (2 Bft) W 270 0 min 0,5 C 15,8 km/h (3 Bft)
23.02.2016 06:53 6,6 C 6,0 C 65 % 1009,9 hPa 0,0 mm 12,2 km/h (2 Bft) W 270 0 min 0,5 C 15,8 km/h (3 Bft)
23.02.2016 06:54 6,6 C 6,0 C 65 % 1009,9 hPa 0,0 mm 12,2 km/h (2 Bft) W 270 0 min 0,5 C 15,8 km/h (3 Bft)
23.02.2016 06:55 6,6 C 6,0 C 64 % 1009,9 hPa 0,0 mm 12,5 km/h (3 Bft) N-NO 22 0 min 0,3 C 21,2 km/h (4 Bft)
23.02.2016 06:56 6,6 C 6,0 C 64 % 1009,9 hPa 0,0 mm 12,5 km/h (3 Bft) N-NO 22 0 min 0,3 C 21,2 km/h (4 Bft)
23.02.2016 06:57 6,7 C 6,1 C 64 % 1009,9 hPa 0,0 mm 13,1 km/h (3 Bft) W 270 0 min 0,4 C 19,4 km/h (3 Bft)
23.02.2016 06:58 6,7 C 6,1 C 64 % 1009,9 hPa 0,0 mm 13,1 km/h (3 Bft) W 270 0 min 0,4 C 19,4 km/h (3 Bft)
23.02.2016 06:59 6,6 C 6,1 C 64 % 1009,9 hPa 0,0 mm 13,1 km/h (3 Bft) NW 315 0 min 0,3 C 16,1 km/h (3 Bft)
23.02.2016 07:00 6,6 C 6,1 C 64 % 1009,9 hPa 0,0 mm 13,1 km/h (3 Bft) NW 315 0 min 0,3 C 16,1 km/h (3 Bft)
23.02.2016 07:01 6,7 C 6,1 C 63 % 1009,9 hPa 0,0 mm 13,7 km/h (3 Bft) NW 315 0 min 0,2 C 32,2 km/h (5 Bft)
23.02.2016 07:02 6,7 C 6,1 C 63 % 1009,9 hPa 0,0 mm 13,7 km/h (3 Bft) NW 315 0 min 0,2 C 32,2 km/h (5 Bft)
23.02.2016 07:03 6,6 C 6,0 C 63 % 1009,9 hPa 0,0 mm 13,7 km/h (3 Bft) W-SW 247 0 min 0,1 C 11,0 km/h (2 Bft)
23.02.2016 07:04 6,6 C 6,0 C 63 % 1009,9 hPa 0,0 mm 13,7 km/h (3 Bft) W-SW 247 0 min 0,1 C 11,0 km/h (2 Bft)
23.02.2016 07:05 6,5 C 5,9 C 63 % 1009,9 hPa 0,0 mm 13,4 km/h (3 Bft) NW 315 0 min -0,0 C 8,9 km/h (2 Bft)
23.02.2016 07:06 6,5 C 5,9 C 63 % 1009,9 hPa 0,0 mm 13,4 km/h (3 Bft) NW 315 0 min -0,0 C 8,9 km/h (2 Bft)
23.02.2016 07:07 6,5 C 6,0 C 63 % 1009,9 hPa 0,0 mm 12,5 km/h (3 Bft) W-NW 292 0 min -0,0 C 16,4 km/h (3 Bft)
23.02.2016 07:08 6,5 C 6,0 C 63 % 1009,9 hPa 0,0 mm 12,5 km/h (3 Bft) W-NW 292 0 min -0,0 C 16,4 km/h (3 Bft)
23.02.2016 07:09 6,5 C 6,0 C 63 % 1009,9 hPa 0,0 mm 12,5 km/h (3 Bft) SW 225 0 min -0,0 C 17,6 km/h (3 Bft)
23.02.2016 07:10 6,5 C 6,0 C 63 % 1009,9 hPa 0,0 mm 12,5 km/h (3 Bft) SW 225 0 min -0,0 C 17,6 km/h (3 Bft)
23.02.2016 07:11 6,5 C 6,0 C 63 % 1009,9 hPa 0,0 mm 12,5 km/h (3 Bft) W 270 0 min -0,0 C 16,4 km/h (3 Bft)
23.02.2016 07:12 6,5 C 6,0 C 63 % 1009,9 hPa 0,0 mm 12,5 km/h (3 Bft) W 270 0 min -0,0 C 16,4 km/h (3 Bft)
23.02.2016 07:13 6,4 C 6,0 C 63 % 1009,9 hPa 0,0 mm 11,9 km/h (2 Bft) W 270 0 min -0,1 C 7,7 km/h (2 Bft)
23.02.2016 07:14 6,4 C 6,0 C 63 % 1009,9 hPa 0,0 mm 11,9 km/h (2 Bft) W 270 0 min -0,1 C 7,7 km/h (2 Bft)
23.02.2016 07:15 6,3 C 5,9 C 63 % 1009,9 hPa 0,0 mm 11,3 km/h (2 Bft) NW 315 0 min -0,2 C 7,2 km/h (2 Bft)
23.02.2016 07:16 6,3 C 5,9 C 63 % 1009,9 hPa 0,0 mm 11,3 km/h (2 Bft) NW 315 0 min -0,2 C 7,2 km/h (2 Bft)
23.02.2016 07:17 6,4 C 5,9 C 63 % 1009,9 hPa 0,0 mm 11,6 km/h (2 Bft) W 270 0 min -0,1 C 27,1 km/h (4 Bft)
23.02.2016 07:18 6,4 C 5,9 C 63 % 1009,9 hPa 0,0 mm 11,6 km/h (2 Bft) W 270 0 min -0,1 C 27,1 km/h (4 Bft)
23.02.2016 07:19 6,3 C 5,8 C 63 % 1009,9 hPa 0,0 mm 11,3 km/h (2 Bft) W 270 0 min -0,2 C 10,7 km/h (2 Bft)
23.02.2016 07:20 6,3 C 5,8 C 63 % 1009,9 hPa 0,0 mm 11,3 km/h (2 Bft) W 270 0 min -0,2 C 10,7 km/h (2 Bft)
23.02.2016 07:21 6,2 C 5,8 C 62 % 1009,9 hPa 0,0 mm 10,1 km/h (2 Bft) W 270 0 min -0,5 C 11,6 km/h (2 Bft)
23.02.2016 07:22 6,2 C 5,8 C 62 % 1009,9 hPa 0,0 mm 10,1 km/h (2 Bft) W 270 0 min -0,5 C 11,6 km/h (2 Bft)
23.02.2016 07:23 6,1 C 5,8 C 63 % 1009,8 hPa 0,0 mm 9,2 km/h (2 Bft) W-SW 247 0 min -0,4 C 5,7 km/h (1 Bft)
23.02.2016 07:24 6,1 C 5,8 C 63 % 1009,8 hPa 0,0 mm 9,2 km/h (2 Bft) W-SW 247 0 min -0,4 C 5,7 km/h (1 Bft)
23.02.2016 07:25 6,0 C 5,6 C 63 % 1009,8 hPa 0,0 mm 9,8 km/h (2 Bft) W-SW 247 0 min -0,5 C 10,7 km/h (2 Bft)
23.02.2016 07:26 6,0 C 5,6 C 63 % 1009,8 hPa 0,0 mm 9,8 km/h (2 Bft) W-SW 247 0 min -0,5 C 10,7 km/h (2 Bft)
23.02.2016 07:27 5,9 C 5,7 C 64 % 1009,8 hPa 0,0 mm 8,9 km/h (2 Bft) SW 225 0 min -0,4 C 7,5 km/h (2 Bft)
23.02.2016 07:28 5,9 C 5,7 C 64 % 1009,8 hPa 0,0 mm 8,9 km/h (2 Bft) SW 225 0 min -0,4 C 7,5 km/h (2 Bft)
23.02.2016 07:29 5,8 C 5,6 C 65 % 1009,8 hPa 0,0 mm 7,5 km/h (2 Bft) W-NW 292 0 min -0,3 C 8,3 km/h (2 Bft)
23.02.2016 07:30 5,8 C 5,6 C 65 % 1009,8 hPa 0,0 mm 7,5 km/h (2 Bft) W-NW 292 0 min -0,3 C 8,3 km/h (2 Bft)
23.02.2016 07:31 5,8 C 5,6 C 65 % 1009,8 hPa 0,0 mm 7,5 km/h (2 Bft) O-SO 112 0 min -0,3 C 9,5 km/h (2 Bft)
23.02.2016 07:32 5,8 C 5,6 C 65 % 1009,8 hPa 0,0 mm 7,5 km/h (2 Bft) O-SO 112 0 min -0,3 C 9,5 km/h (2 Bft)
23.02.2016 07:33 5,8 C 5,7 C 65 % 1009,8 hPa 0,0 mm 7,2 km/h (2 Bft) SW 225 0 min -0,3 C 8,0 km/h (2 Bft)
23.02.2016 07:34 5,8 C 5,7 C 65 % 1009,8 hPa 0,0 mm 7,2 km/h (2 Bft) SW 225 0 min -0,3 C 8,0 km/h (2 Bft)
23.02.2016 07:35 5,8 C 5,7 C 65 % 1009,8 hPa 0,0 mm 6,9 km/h (2 Bft) W-SW 247 0 min -0,3 C 12,2 km/h (2 Bft)
23.02.2016 07:36 5,8 C 5,7 C 65 % 1009,8 hPa 0,0 mm 6,9 km/h (2 Bft) W-SW 247 0 min -0,3 C 12,2 km/h (2 Bft)
23.02.2016 07:37 5,9 C 5,7 C 65 % 1009,8 hPa 0,0 mm 6,9 km/h (2 Bft) W-SW 247 0 min -0,2 C 8,0 km/h (2 Bft)
23.02.2016 07:38 5,9 C 5,7 C 65 % 1009,8 hPa 0,0 mm 6,9 km/h (2 Bft) W-SW 247 0 min -0,2 C 8,0 km/h (2 Bft)
23.02.2016 07:39 5,9 C 5,7 C 65 % 1009,8 hPa 0,0 mm 7,2 km/h (2 Bft) W 270 0 min -0,2 C 7,7 km/h (2 Bft)
23.02.2016 07:40 5,9 C 5,7 C 65 % 1009,8 hPa 0,0 mm 7,2 km/h (2 Bft) W 270 0 min -0,2 C 7,7 km/h (2 Bft)
23.02.2016 07:41 5,9 C 5,7 C 65 % 1009,8 hPa 0,0 mm 7,5 km/h (2 Bft) W 270 0 min -0,2 C 5,7 km/h (1 Bft)
23.02.2016 07:42 5,9 C 5,7 C 65 % 1009,8 hPa 0,0 mm 7,5 km/h (2 Bft) W 270 0 min -0,2 C 5,7 km/h (1 Bft)
23.02.2016 07:43 6,0 C 5,8 C 64 % 1009,8 hPa 0,0 mm 7,5 km/h (2 Bft) W-SW 247 0 min -0,3 C 11,3 km/h (2 Bft)
23.02.2016 07:44 6,0 C 5,8 C 64 % 1009,8 hPa 0,0 mm 7,5 km/h (2 Bft) W-SW 247 0 min -0,3 C 11,3 km/h (2 Bft)
23.02.2016 07:45 5,9 C 5,7 C 65 % 1009,8 hPa 0,0 mm 7,5 km/h (2 Bft) W-SW 247 0 min -0,2 C 5,4 km/h (1 Bft)
23.02.2016 07:46 5,9 C 5,7 C 65 % 1009,8 hPa 0,0 mm 7,5 km/h (2 Bft) W-SW 247 0 min -0,2 C 5,4 km/h (1 Bft)
23.02.2016 07:47 5,9 C 5,7 C 65 % 1009,8 hPa 0,0 mm 7,5 km/h (2 Bft) W 270 0 min -0,2 C 9,2 km/h (2 Bft)
23.02.2016 07:48 5,9 C 5,7 C 65 % 1009,8 hPa 0,0 mm 7,5 km/h (2 Bft) W 270 0 min -0,2 C 9,2 km/h (2 Bft)
23.02.2016 07:49 5,9 C 5,8 C 65 % 1009,8 hPa 0,0 mm 7,2 km/h (2 Bft) W-NW 292 0 min -0,2 C 6,3 km/h (2 Bft)
23.02.2016 07:50 5,9 C 5,8 C 65 % 1009,8 hPa 0,0 mm 7,2 km/h (2 Bft) W-NW 292 0 min -0,2 C 6,3 km/h (2 Bft)
23.02.2016 07:51 6,0 C 5,9 C 64 % 1009,8 hPa 0,0 mm 7,2 km/h (2 Bft) W-SW 247 0 min -0,3 C 14,6 km/h (3 Bft)
23.02.2016 07:52 6,0 C 5,9 C 64 % 1009,8 hPa 0,0 mm 7,2 km/h (2 Bft) W-SW 247 0 min -0,3 C 14,6 km/h (3 Bft)
23.02.2016 07:53 6,1 C 5,9 C 64 % 1009,8 hPa 0,0 mm 7,5 km/h (2 Bft) W 270 0 min -0,2 C 13,7 km/h (3 Bft)
23.02.2016 07:54 6,1 C 5,9 C 64 % 1009,8 hPa 0,0 mm 7,5 km/h (2 Bft) W 270 0 min -0,2 C 13,7 km/h (3 Bft)
23.02.2016 07:55 6,2 C 6,0 C 64 % 1009,8 hPa 0,0 mm 7,5 km/h (2 Bft) W-SW 247 0 min -0,1 C 6,9 km/h (2 Bft)
23.02.2016 07:56 6,2 C 6,0 C 64 % 1009,8 hPa 0,0 mm 7,5 km/h (2 Bft) W-SW 247 0 min -0,1 C 6,9 km/h (2 Bft)
23.02.2016 07:57 6,2 C 6,1 C 64 % 1009,8 hPa 0,0 mm 7,7 km/h (2 Bft) W-SW 247 0 min -0,1 C 14,6 km/h (3 Bft)
23.02.2016 07:58 6,2 C 6,1 C 64 % 1009,8 hPa 0,0 mm 7,7 km/h (2 Bft) W-SW 247 0 min -0,1 C 14,6 km/h (3 Bft)
23.02.2016 07:59 6,3 C 6,1 C 64 % 1009,8 hPa 0,0 mm 8,0 km/h (2 Bft) NW 315 0 min 0,0 C 7,5 km/h (2 Bft)
23.02.2016 08:00 6,3 C 6,1 C 64 % 1009,8 hPa 0,0 mm 8,0 km/h (2 Bft) NW 315 0 min 0,0 C 7,5 km/h (2 Bft)
23.02.2016 08:01 6,3 C 6,1 C 63 % 1009,8 hPa 0,0 mm 8,0 km/h (2 Bft) W-SW 247 0 min -0,2 C 11,3 km/h (2 Bft)
23.02.2016 08:02 6,3 C 6,1 C 63 % 1009,8 hPa 0,0 mm 8,0 km/h (2 Bft) W-SW 247 0 min -0,2 C 11,3 km/h (2 Bft)
23.02.2016 08:03 6,3 C 6,2 C 64 % 1009,9 hPa 0,0 mm 7,5 km/h (2 Bft) S 180 0 min 0,0 C 4,5 km/h (1 Bft)
23.02.2016 08:04 6,3 C 6,2 C 64 % 1009,9 hPa 0,0 mm 7,5 km/h (2 Bft) S 180 0 min 0,0 C 4,5 km/h (1 Bft)
23.02.2016 08:05 6,4 C 6,4 C 63 % 1009,9 hPa 0,0 mm 6,9 km/h (2 Bft) W 270 0 min -0,1 C 6,3 km/h (2 Bft)
23.02.2016 08:06 6,4 C 6,4 C 63 % 1009,9 hPa 0,0 mm 6,9 km/h (2 Bft) W 270 0 min -0,1 C 6,3 km/h (2 Bft)
23.02.2016 08:07 6,4 C 6,3 C 63 % 1009,9 hPa 0,0 mm 7,2 km/h (2 Bft) W-NW 292 0 min -0,1 C 11,9 km/h (2 Bft)
23.02.2016 08:08 6,4 C 6,3 C 63 % 1009,9 hPa 0,0 mm 7,2 km/h (2 Bft) W-NW 292 0 min -0,1 C 11,9 km/h (2 Bft)
23.02.2016 08:09 6,5 C 6,7 C 63 % 1009,9 hPa 0,0 mm 6,6 km/h (2 Bft) W-SW 247 0 min -0,0 C 11,3 km/h (2 Bft)
23.02.2016 08:10 6,5 C 6,7 C 63 % 1009,9 hPa 0,0 mm 6,6 km/h (2 Bft) W-SW 247 0 min -0,0 C 11,3 km/h (2 Bft)
23.02.2016 08:11 6,6 C 6,8 C 63 % 1009,9 hPa 0,0 mm 6,0 km/h (2 Bft) W-SW 247 0 min 0,1 C 3,0 km/h (1 Bft)
23.02.2016 08:12 6,6 C 6,8 C 63 % 1009,9 hPa 0,0 mm 6,0 km/h (2 Bft) W-SW 247 0 min 0,1 C 3,0 km/h (1 Bft)
23.02.2016 08:13 6,6 C 6,9 C 63 % 1009,9 hPa 0,0 mm 6,0 km/h (2 Bft) W 270 0 min 0,1 C 7,2 km/h (2 Bft)
23.02.2016 08:14 6,6 C 6,9 C 63 % 1009,9 hPa 0,0 mm 6,0 km/h (2 Bft) W 270 0 min 0,1 C 7,2 km/h (2 Bft)
23.02.2016 08:15 6,7 C 6,9 C 63 % 1009,9 hPa 0,0 mm 5,4 km/h (1 Bft) W 270 0 min 0,2 C 4,2 km/h (1 Bft)
23.02.2016 08:16 6,7 C 6,9 C 63 % 1009,9 hPa 0,0 mm 5,4 km/h (1 Bft) W 270 0 min 0,2 C 4,2 km/h (1 Bft)
23.02.2016 08:17 6,7 C 7,1 C 63 % 1009,9 hPa 0,0 mm 5,1 km/h (1 Bft) O 90 0 min 0,2 C 3,6 km/h (1 Bft)
23.02.2016 08:18 6,7 C 7,1 C 63 % 1009,9 hPa 0,0 mm 5,1 km/h (1 Bft) O 90 0 min 0,2 C 3,6 km/h (1 Bft)
23.02.2016 08:19 6,8 C 7,2 C 63 % 1009,9 hPa 0,0 mm 4,8 km/h (1 Bft) SW 225 0 min 0,3 C 8,9 km/h (2 Bft)
23.02.2016 08:20 6,8 C 7,2 C 63 % 1009,9 hPa 0,0 mm 4,8 km/h (1 Bft) SW 225 0 min 0,3 C 8,9 km/h (2 Bft)
23.02.2016 08:21 6,8 C 7,2 C 63 % 1009,9 hPa 0,0 mm 4,5 km/h (1 Bft) W 270 0 min 0,3 C 6,9 km/h (2 Bft)
23.02.2016 08:22 6,8 C 7,2 C 63 % 1009,9 hPa 0,0 mm 4,5 km/h (1 Bft) W 270 0 min 0,3 C 6,9 km/h (2 Bft)
23.02.2016 08:23 6,9 C 7,3 C 63 % 1009,9 hPa 0,0 mm 5,4 km/h (1 Bft) SW 225 0 min 0,4 C 10,7 km/h (2 Bft)
23.02.2016 08:24 6,9 C 7,3 C 63 % 1009,9 hPa 0,0 mm 5,4 km/h (1 Bft) SW 225 0 min 0,4 C 10,7 km/h (2 Bft)
23.02.2016 08:25 6,9 C 7,4 C 63 % 1009,9 hPa 0,0 mm 6,6 km/h (2 Bft) W 270 0 min 0,4 C 10,7 km/h (2 Bft)
23.02.2016 08:26 6,9 C 7,4 C 63 % 1009,9 hPa 0,0 mm 6,6 km/h (2 Bft) W 270 0 min 0,4 C 10,7 km/h (2 Bft)
23.02.2016 08:27 7,0 C 7,4 C 62 % 1009,9 hPa 0,0 mm 6,3 km/h (2 Bft) NW 315 0 min 0,2 C 5,7 km/h (1 Bft)
23.02.2016 08:28 7,0 C 7,4 C 62 % 1009,9 hPa 0,0 mm 6,3 km/h (2 Bft) NW 315 0 min 0,2 C 5,7 km/h (1 Bft)
23.02.2016 08:29 7,0 C 7,5 C 62 % 1009,9 hPa 0,0 mm 6,0 km/h (2 Bft) W-NW 292 0 min 0,2 C 0,0 km/h (0 Bft)
23.02.2016 08:30 7,0 C 7,5 C 62 % 1009,9 hPa 0,0 mm 6,0 km/h (2 Bft) W-NW 292 0 min 0,2 C 0,0 km/h (0 Bft)
23.02.2016 08:31 7,0 C 7,6 C 62 % 1009,9 hPa 0,0 mm 5,7 km/h (1 Bft) W-SW 247 0 min 0,2 C 8,9 km/h (2 Bft)
23.02.2016 08:32 7,0 C 7,6 C 62 % 1009,9 hPa 0,0 mm 5,7 km/h (1 Bft) W-SW 247 0 min 0,2 C 8,9 km/h (2 Bft)
23.02.2016 08:33 7,0 C 7,6 C 62 % 1009,9 hPa 0,0 mm 5,1 km/h (1 Bft) W 270 0 min 0,2 C 7,5 km/h (2 Bft)
23.02.2016 08:34 7,0 C 7,6 C 62 % 1009,9 hPa 0,0 mm 5,1 km/h (1 Bft) W 270 0 min 0,2 C 7,5 km/h (2 Bft)
23.02.2016 08:35 7,1 C 7,7 C 62 % 1009,9 hPa 0,0 mm 4,2 km/h (1 Bft) W 270 0 min 0,3 C 0,0 km/h (0 Bft)
23.02.2016 08:36 7,1 C 7,7 C 62 % 1009,9 hPa 0,0 mm 4,2 km/h (1 Bft) W 270 0 min 0,3 C 0,0 km/h (0 Bft)
23.02.2016 08:37 7,1 C 7,7 C 62 % 1009,9 hPa 0,0 mm 3,3 km/h (1 Bft) W 270 0 min 0,3 C 5,7 km/h (1 Bft)
23.02.2016 08:38 7,1 C 7,7 C 62 % 1009,9 hPa 0,0 mm 3,3 km/h (1 Bft) W 270 0 min 0,3 C 5,7 km/h (1 Bft)
23.02.2016 08:39 7,2 C 7,8 C 62 % 1009,9 hPa 0,0 mm 3,6 km/h (1 Bft) W-SW 247 0 min 0,4 C 4,5 km/h (1 Bft)
23.02.2016 08:40 7,2 C 7,8 C 62 % 1009,9 hPa 0,0 mm 3,6 km/h (1 Bft) W-SW 247 0 min 0,4 C 4,5 km/h (1 Bft)
23.02.2016 08:41 7,2 C 7,8 C 62 % 1009,9 hPa 0,0 mm 4,5 km/h (1 Bft) S 180 0 min 0,4 C 6,9 km/h (2 Bft)
23.02.2016 08:42 7,2 C 7,8 C 62 % 1009,9 hPa 0,0 mm 4,5 km/h (1 Bft) S 180 0 min 0,4 C 6,9 km/h (2 Bft)
23.02.2016 08:43 7,2 C 7,8 C 62 % 1009,9 hPa 0,0 mm 4,5 km/h (1 Bft) NW 315 0 min 0,4 C 8,9 km/h (2 Bft)
23.02.2016 08:44 7,2 C 7,8 C 62 % 1009,9 hPa 0,0 mm 4,5 km/h (1 Bft) NW 315 0 min 0,4 C 8,9 km/h (2 Bft)
23.02.2016 08:46 7,2 C 7,8 C 62 % 1009,9 hPa 0,0 mm 5,4 km/h (1 Bft) W 270 0 min 0,4 C 9,5 km/h (2 Bft)
23.02.2016 08:47 7,2 C 7,8 C 62 % 1009,9 hPa 0,0 mm 5,4 km/h (1 Bft) W 270 0 min 0,4 C 9,5 km/h (2 Bft)
23.02.2016 08:48 7,2 C 7,8 C 62 % 1009,9 hPa 0,0 mm 5,4 km/h (1 Bft) W 270 0 min 0,4 C 9,5 km/h (2 Bft)
23.02.2016 08:49 7,2 C 7,8 C 62 % 1009,9 hPa 0,0 mm 5,7 km/h (1 Bft) W-SW 247 0 min 0,4 C 10,1 km/h (2 Bft)
23.02.2016 08:50 7,2 C 7,8 C 62 % 1009,9 hPa 0,0 mm 5,7 km/h (1 Bft) W-SW 247 0 min 0,4 C 10,1 km/h (2 Bft)
23.02.2016 08:51 7,3 C 7,8 C 62 % 1009,9 hPa 0,0 mm 6,3 km/h (2 Bft) NW 315 0 min 0,5 C 4,5 km/h (1 Bft)
23.02.2016 08:52 7,3 C 7,8 C 62 % 1009,9 hPa 0,0 mm 6,3 km/h (2 Bft) NW 315 0 min 0,5 C 4,5 km/h (1 Bft)
23.02.2016 08:53 7,3 C 7,7 C 61 % 1009,9 hPa 0,0 mm 6,9 km/h (2 Bft) W-SW 247 0 min 0,3 C 5,1 km/h (1 Bft)
23.02.2016 08:54 7,3 C 7,7 C 61 % 1009,9 hPa 0,0 mm 6,9 km/h (2 Bft) W-SW 247 0 min 0,3 C 5,1 km/h (1 Bft)
23.02.2016 08:55 7,3 C 7,7 C 61 % 1009,9 hPa 0,0 mm 7,2 km/h (2 Bft) W-SW 247 0 min 0,3 C 19,1 km/h (3 Bft)
23.02.2016 08:56 7,3 C 7,7 C 61 % 1009,9 hPa 0,0 mm 7,2 km/h (2 Bft) W-SW 247 0 min 0,3 C 19,1 km/h (3 Bft)
23.02.2016 08:57 7,3 C 7,4 C 61 % 1009,9 hPa 0,0 mm 8,3 km/h (2 Bft) W-SW 247 0 min 0,3 C 26,2 km/h (4 Bft)
23.02.2016 08:58 7,3 C 7,4 C 61 % 1009,9 hPa 0,0 mm 8,3 km/h (2 Bft) W-SW 247 0 min 0,3 C 26,2 km/h (4 Bft)
23.02.2016 08:59 7,4 C 7,4 C 61 % 1009,9 hPa 0,0 mm 8,9 km/h (2 Bft) W-SW 247 0 min 0,4 C 11,9 km/h (2 Bft)
23.02.2016 09:00 7,4 C 7,4 C 61 % 1009,9 hPa 0,0 mm 8,9 km/h (2 Bft) W-SW 247 0 min 0,4 C 11,9 km/h (2 Bft)
23.02.2016 09:01 7,4 C 7,4 C 61 % 1009,9 hPa 0,0 mm 9,2 km/h (2 Bft) NW 315 0 min 0,4 C 16,7 km/h (3 Bft)
23.02.2016 09:02 7,4 C 7,4 C 61 % 1009,9 hPa 0,0 mm 9,2 km/h (2 Bft) NW 315 0 min 0,4 C 16,7 km/h (3 Bft)
23.02.2016 09:03 7,5 C 7,4 C 60 % 1009,9 hPa 0,0 mm 9,5 km/h (2 Bft) S-SO 157 0 min 0,2 C 7,7 km/h (2 Bft)
23.02.2016 09:04 7,5 C 7,4 C 60 % 1009,9 hPa 0,0 mm 9,5 km/h (2 Bft) S-SO 157 0 min 0,2 C 7,7 km/h (2 Bft)
23.02.2016 09:05 7,5 C 7,5 C 60 % 1009,9 hPa 0,0 mm 10,4 km/h (2 Bft) S 180 0 min 0,2 C 8,3 km/h (2 Bft)
23.02.2016 09:06 7,5 C 7,5 C 60 % 1009,9 hPa 0,0 mm 10,4 km/h (2 Bft) S 180 0 min 0,2 C 8,3 km/h (2 Bft)
23.02.2016 09:07 7,6 C 7,6 C 60 % 1009,9 hPa 0,0 mm 9,5 km/h (2 Bft) NO 45 0 min 0,3 C 8,6 km/h (2 Bft)
23.02.2016 09:08 7,6 C 7,6 C 60 % 1009,9 hPa 0,0 mm 9,5 km/h (2 Bft) NO 45 0 min 0,3 C 8,6 km/h (2 Bft)
23.02.2016 09:09 7,6 C 7,8 C 60 % 1009,9 hPa 0,0 mm 8,3 km/h (2 Bft) W-SW 247 0 min 0,3 C 9,2 km/h (2 Bft)
23.02.2016 09:10 7,6 C 7,8 C 60 % 1009,9 hPa 0,0 mm 8,3 km/h (2 Bft) W-SW 247 0 min 0,3 C 9,2 km/h (2 Bft)
23.02.2016 09:11 7,7 C 8,1 C 60 % 1009,9 hPa 0,0 mm 7,5 km/h (2 Bft) W 270 0 min 0,4 C 11,9 km/h (2 Bft)
23.02.2016 09:12 7,7 C 8,1 C 60 % 1009,9 hPa 0,0 mm 7,5 km/h (2 Bft) W 270 0 min 0,4 C 11,9 km/h (2 Bft)
23.02.2016 09:13 7,7 C 8,3 C 60 % 1009,9 hPa 0,0 mm 6,9 km/h (2 Bft) W 270 0 min 0,4 C 8,6 km/h (2 Bft)
23.02.2016 09:14 7,7 C 8,3 C 60 % 1009,9 hPa 0,0 mm 6,9 km/h (2 Bft) W 270 0 min 0,4 C 8,6 km/h (2 Bft)
23.02.2016 09:15 7,9 C 8,6 C 60 % 1009,9 hPa 0,0 mm 6,3 km/h (2 Bft) NW 315 0 min 0,6 C 5,1 km/h (1 Bft)
23.02.2016 09:16 7,9 C 8,6 C 60 % 1009,9 hPa 0,0 mm 6,3 km/h (2 Bft) NW 315 0 min 0,6 C 5,1 km/h (1 Bft)
23.02.2016 09:17 7,9 C 8,6 C 60 % 1009,9 hPa 0,0 mm 7,7 km/h (2 Bft) S-SW 202 0 min 0,6 C 30,7 km/h (5 Bft)
23.02.2016 09:18 7,9 C 8,6 C 60 % 1009,9 hPa 0,0 mm 7,7 km/h (2 Bft) S-SW 202 0 min 0,6 C 30,7 km/h (5 Bft)
23.02.2016 09:19 8,1 C 8,5 C 59 % 1009,9 hPa 0,0 mm 9,2 km/h (2 Bft) W-SW 247 0 min 0,6 C 14,9 km/h (3 Bft)
23.02.2016 09:20 8,1 C 8,5 C 59 % 1009,9 hPa 0,0 mm 9,2 km/h (2 Bft) W-SW 247 0 min 0,6 C 14,9 km/h (3 Bft)
23.02.2016 09:21 8,1 C 8,4 C 59 % 1009,9 hPa 0,0 mm 10,1 km/h (2 Bft) W 270 0 min 0,6 C 12,2 km/h (2 Bft)
23.02.2016 09:22 8,1 C 8,4 C 59 % 1009,9 hPa 0,0 mm 10,1 km/h (2 Bft) W 270 0 min 0,6 C 12,2 km/h (2 Bft)
23.02.2016 09:23 8,2 C 8,5 C 59 % 1009,6 hPa 0,0 mm 10,7 km/h (2 Bft) S-SO 157 0 min 0,7 C 17,0 km/h (3 Bft)
23.02.2016 09:24 8,2 C 8,5 C 59 % 1009,6 hPa 0,0 mm 10,7 km/h (2 Bft) S-SO 157 0 min 0,7 C 17,0 km/h (3 Bft)
23.02.2016 09:25 8,2 C 8,6 C 59 % 1009,6 hPa 0,0 mm 11,0 km/h (2 Bft) W-SW 247 0 min 0,7 C 15,8 km/h (3 Bft)
23.02.2016 09:26 8,2 C 8,6 C 59 % 1009,6 hPa 0,0 mm 11,0 km/h (2 Bft) W-SW 247 0 min 0,7 C 15,8 km/h (3 Bft)
23.02.2016 09:27 8,3 C 8,6 C 59 % 1009,6 hPa 0,0 mm 11,3 km/h (2 Bft) W 270 0 min 0,8 C 14,0 km/h (3 Bft)
23.02.2016 09:28 8,3 C 8,6 C 59 % 1009,6 hPa 0,0 mm 11,3 km/h (2 Bft) W 270 0 min 0,8 C 14,0 km/h (3 Bft)
23.02.2016 09:29 8,3 C 8,8 C 59 % 1009,6 hPa 0,0 mm 9,8 km/h (2 Bft) W 270 0 min 0,8 C 11,0 km/h (2 Bft)
23.02.2016 09:30 8,3 C 8,8 C 59 % 1009,6 hPa 0,0 mm 9,8 km/h (2 Bft) W 270 0 min 0,8 C 11,0 km/h (2 Bft)
23.02.2016 09:31 8,3 C 8,8 C 59 % 1009,6 hPa 0,0 mm 9,5 km/h (2 Bft) W-NW 292 0 min 0,8 C 8,6 km/h (2 Bft)
23.02.2016 09:32 8,3 C 8,8 C 59 % 1009,6 hPa 0,0 mm 9,5 km/h (2 Bft) W-NW 292 0 min 0,8 C 8,6 km/h (2 Bft)
23.02.2016 09:33 8,3 C 8,8 C 58 % 1009,6 hPa 0,0 mm 9,5 km/h (2 Bft) SW 225 0 min 0,5 C 15,2 km/h (3 Bft)
23.02.2016 09:34 8,3 C 8,8 C 58 % 1009,6 hPa 0,0 mm 9,5 km/h (2 Bft) SW 225 0 min 0,5 C 15,2 km/h (3 Bft)
23.02.2016 09:36 8,3 C 8,8 C 58 % 1009,6 hPa 0,0 mm 9,8 km/h (2 Bft) W-NW 292 0 min 0,5 C 22,4 km/h (4 Bft)
23.02.2016 09:39 8,3 C 8,3 C 58 % 1009,6 hPa 0,0 mm 11,3 km/h (2 Bft) W 270 0 min 0,5 C 17,0 km/h (3 Bft)
23.02.2016 09:40 8,3 C 8,3 C 58 % 1009,6 hPa 0,0 mm 11,3 km/h (2 Bft) W 270 0 min 0,5 C 17,0 km/h (3 Bft)
23.02.2016 09:41 8,2 C 8,3 C 58 % 1009,6 hPa 0,0 mm 11,9 km/h (2 Bft) NW 315 0 min 0,4 C 21,5 km/h (4 Bft)
23.02.2016 09:43 8,2 C 8,2 C 58 % 1009,7 hPa 0,0 mm 13,1 km/h (3 Bft) NW 315 0 min 0,4 C 25,3 km/h (4 Bft)
23.02.2016 09:46 8,2 C 8,1 C 58 % 1009,7 hPa 0,0 mm 13,4 km/h (3 Bft) NW 315 0 min 0,4 C 13,7 km/h (3 Bft)
23.02.2016 09:47 8,1 C 8,1 C 58 % 1009,7 hPa 0,0 mm 13,7 km/h (3 Bft) W-SW 247 0 min 0,3 C 19,1 km/h (3 Bft)
23.02.2016 09:48 8,1 C 8,1 C 58 % 1009,7 hPa 0,0 mm 13,7 km/h (3 Bft) W-SW 247 0 min 0,3 C 19,1 km/h (3 Bft)
23.02.2016 09:49 8,1 C 8,1 C 58 % 1009,7 hPa 0,0 mm 13,7 km/h (3 Bft) W-NW 292 0 min 0,3 C 11,3 km/h (2 Bft)
23.02.2016 09:54 8,1 C 7,4 C 59 % 1009,7 hPa 0,0 mm 14,6 km/h (3 Bft) W-NW 292 0 min 0,6 C 15,5 km/h (3 Bft)
23.02.2016 09:59 8,2 C 8,3 C 59 % 1009,7 hPa 0,0 mm 14,3 km/h (3 Bft) NW 315 0 min 0,7 C 17,9 km/h (3 Bft)
23.02.2016 10:04 8,3 C 8,6 C 59 % 1009,9 hPa 0,0 mm 11,6 km/h (2 Bft) W 270 0 min 0,8 C 13,4 km/h (3 Bft)
23.02.2016 10:09 8,5 C 8,8 C 59 % 1009,9 hPa 0,0 mm 11,6 km/h (2 Bft) NW 315 0 min 1,0 C 13,1 km/h (3 Bft)
23.02.2016 10:14 8,6 C 9,1 C 58 % 1009,9 hPa 0,0 mm 11,6 km/h (2 Bft) W-SW 247 0 min 0,8 C 9,8 km/h (2 Bft)
23.02.2016 10:19 8,7 C 9,3 C 58 % 1009,9 hPa 0,0 mm 11,9 km/h (2 Bft) W 270 0 min 0,9 C 28,0 km/h (4 Bft)
23.02.2016 10:24 8,7 C 9,4 C 58 % 1010,0 hPa 0,0 mm 11,3 km/h (2 Bft) NW 315 0 min 0,9 C 9,8 km/h (2 Bft)
23.02.2016 10:29 8,7 C 9,1 C 58 % 1010,0 hPa 0,0 mm 12,5 km/h (3 Bft) NW 315 0 min 0,9 C 16,4 km/h (3 Bft)
23.02.2016 10:34 8,7 C 9,2 C 59 % 1010,0 hPa 0,0 mm 11,0 km/h (2 Bft) W 270 0 min 1,1 C 8,3 km/h (2 Bft)
23.02.2016 10:39 8,8 C 9,3 C 58 % 1010,0 hPa 0,0 mm 11,0 km/h (2 Bft) N-NW 337 0 min 1,0 C 15,5 km/h (3 Bft)
23.02.2016 10:44 8,7 C 9,2 C 59 % 1010,2 hPa 0,0 mm 12,2 km/h (2 Bft) W-NW 292 0 min 1,1 C 18,2 km/h (3 Bft)
23.02.2016 10:49 8,7 C 9,3 C 59 % 1010,2 hPa 0,0 mm 14,3 km/h (3 Bft) W 270 0 min 1,1 C 29,2 km/h (5 Bft)
23.02.2016 10:54 8,5 C 8,8 C 59 % 1010,2 hPa 0,0 mm 16,4 km/h (3 Bft) SW 225 0 min 1,0 C 14,0 km/h (3 Bft)
23.02.2016 10:59 8,3 C 8,5 C 59 % 1010,2 hPa 0,0 mm 16,7 km/h (3 Bft) W-NW 292 0 min 0,8 C 34,6 km/h (5 Bft)
23.02.2016 11:04 8,2 C 8,4 C 59 % 1010,1 hPa 0,0 mm 15,8 km/h (3 Bft) NW 315 0 min 0,7 C 17,6 km/h (3 Bft)
23.02.2016 11:09 8,3 C 8,6 C 60 % 1010,1 hPa 0,0 mm 15,8 km/h (3 Bft) W-NW 292 0 min 1,0 C 15,2 km/h (3 Bft)
23.02.2016 11:14 8,2 C 8,7 C 60 % 1010,1 hPa 0,0 mm 14,9 km/h (3 Bft) W-NW 292 0 min 0,9 C 12,8 km/h (3 Bft)
23.02.2016 11:19 8,2 C 8,5 C 60 % 1010,1 hPa 0,0 mm 14,6 km/h (3 Bft) W 270 0 min 0,9 C 16,1 km/h (3 Bft)
23.02.2016 11:24 8,1 C 8,3 C 61 % 1010,2 hPa 0,0 mm 14,0 km/h (3 Bft) W 270 0 min 1,0 C 24,1 km/h (4 Bft)
23.02.2016 11:29 8,0 C 8,2 C 61 % 1010,2 hPa 0,0 mm 17,0 km/h (3 Bft) W 270 0 min 0,9 C 23,2 km/h (4 Bft)
23.02.2016 11:34 7,9 C 7,9 C 62 % 1010,2 hPa 0,0 mm 16,4 km/h (3 Bft) N-NO 22 0 min 1,1 C 14,6 km/h (3 Bft)
23.02.2016 11:39 7,9 C 8,1 C 62 % 1010,2 hPa 0,0 mm 13,4 km/h (3 Bft) W-SW 247 0 min 1,1 C 9,5 km/h (2 Bft)
23.02.2016 11:44 8,0 C 8,3 C 62 % 1010,1 hPa 0,0 mm 11,3 km/h (2 Bft) W 270 0 min 1,2 C 8,3 km/h (2 Bft)
23.02.2016 11:47 8,0 C 8,3 C 62 % 1010,1 hPa 0,0 mm 12,2 km/h (2 Bft) N-NW 337 0 min 1,2 C 14,3 km/h (3 Bft)
23.02.2016 11:48 8,0 C 8,3 C 62 % 1010,1 hPa 0,0 mm 12,2 km/h (2 Bft) N-NW 337 0 min 1,2 C 14,3 km/h (3 Bft)
23.02.2016 11:49 8,0 C 8,2 C 62 % 1010,1 hPa 0,0 mm 13,1 km/h (3 Bft) W 270 0 min 1,2 C 29,2 km/h (5 Bft)
23.02.2016 11:50 8,0 C 8,2 C 62 % 1010,1 hPa 0,0 mm 13,1 km/h (3 Bft) W 270 0 min 1,2 C 29,2 km/h (5 Bft)
23.02.2016 11:51 8,0 C 8,3 C 62 % 1010,1 hPa 0,0 mm 13,1 km/h (3 Bft) S-SW 202 0 min 1,2 C 13,1 km/h (3 Bft)
23.02.2016 11:52 8,0 C 8,3 C 62 % 1010,1 hPa 0,0 mm 13,1 km/h (3 Bft) S-SW 202 0 min 1,2 C 13,1 km/h (3 Bft)
23.02.2016 11:53 8,0 C 8,3 C 62 % 1010,1 hPa 0,0 mm 13,1 km/h (3 Bft) W-SW 247 0 min 1,2 C 9,5 km/h (2 Bft)
23.02.2016 11:54 8,0 C 8,3 C 62 % 1010,1 hPa 0,0 mm 13,1 km/h (3 Bft) W-SW 247 0 min 1,2 C 9,5 km/h (2 Bft)
23.02.2016 11:55 8,1 C 8,5 C 62 % 1010,1 hPa 0,0 mm 12,8 km/h (3 Bft) W 270 0 min 1,3 C 18,5 km/h (3 Bft)
23.02.2016 11:56 8,1 C 8,5 C 62 % 1010,1 hPa 0,0 mm 12,8 km/h (3 Bft) W 270 0 min 1,3 C 18,5 km/h (3 Bft)
23.02.2016 11:57 8,1 C 8,6 C 62 % 1010,1 hPa 0,0 mm 11,9 km/h (2 Bft) W 270 0 min 1,3 C 10,7 km/h (2 Bft)
23.02.2016 11:58 8,1 C 8,6 C 62 % 1010,1 hPa 0,0 mm 11,9 km/h (2 Bft) W 270 0 min 1,3 C 10,7 km/h (2 Bft)
23.02.2016 11:59 8,2 C 8,7 C 62 % 1010,1 hPa 0,0 mm 11,6 km/h (2 Bft) W-SW 247 0 min 1,4 C 12,5 km/h (3 Bft)
23.02.2016 12:00 8,2 C 8,7 C 62 % 1010,1 hPa 0,0 mm 11,6 km/h (2 Bft) W-SW 247 0 min 1,4 C 12,5 km/h (3 Bft)
23.02.2016 12:01 8,3 C 8,8 C 62 % 1010,1 hPa 0,0 mm 12,2 km/h (2 Bft) W-NW 292 0 min 1,5 C 35,5 km/h (5 Bft)
23.02.2016 12:02 8,3 C 8,8 C 62 % 1010,1 hPa 0,0 mm 12,2 km/h (2 Bft) W-NW 292 0 min 1,5 C 35,5 km/h (5 Bft)
23.02.2016 12:03 8,3 C 8,8 C 62 % 1009,9 hPa 0,0 mm 12,2 km/h (2 Bft) W-NW 292 0 min 1,5 C 35,5 km/h (5 Bft)
23.02.2016 12:04 8,3 C 8,8 C 62 % 1009,9 hPa 0,0 mm 12,2 km/h (2 Bft) W-NW 292 0 min 1,5 C 35,5 km/h (5 Bft)
23.02.2016 12:05 8,4 C 8,8 C 62 % 1009,9 hPa 0,0 mm 12,5 km/h (3 Bft) NW 315 0 min 1,6 C 13,1 km/h (3 Bft)
23.02.2016 12:06 8,4 C 8,8 C 62 % 1009,9 hPa 0,0 mm 12,5 km/h (3 Bft) NW 315 0 min 1,6 C 13,1 km/h (3 Bft)
23.02.2016 12:07 8,4 C 8,9 C 62 % 1009,9 hPa 0,0 mm 12,8 km/h (3 Bft) W-NW 292 0 min 1,6 C 15,5 km/h (3 Bft)
23.02.2016 12:08 8,4 C 8,9 C 62 % 1009,9 hPa 0,0 mm 12,8 km/h (3 Bft) W-NW 292 0 min 1,6 C 15,5 km/h (3 Bft)
23.02.2016 12:09 8,5 C 8,9 C 62 % 1009,9 hPa 0,0 mm 13,4 km/h (3 Bft) W 270 0 min 1,6 C 14,6 km/h (3 Bft)
23.02.2016 12:10 8,5 C 8,9 C 62 % 1009,9 hPa 0,0 mm 13,4 km/h (3 Bft) W 270 0 min 1,6 C 14,6 km/h (3 Bft)
23.02.2016 12:11 8,5 C 9,0 C 62 % 1009,9 hPa 0,0 mm 13,4 km/h (3 Bft) W-SW 247 0 min 1,6 C 25,0 km/h (4 Bft)
23.02.2016 12:12 8,5 C 9,0 C 62 % 1009,9 hPa 0,0 mm 13,4 km/h (3 Bft) W-SW 247 0 min 1,6 C 25,0 km/h (4 Bft)
23.02.2016 12:13 8,5 C 9,0 C 61 % 1009,9 hPa 0,0 mm 12,5 km/h (3 Bft) S 180 0 min 1,4 C 11,9 km/h (2 Bft)
23.02.2016 12:14 8,5 C 9,0 C 61 % 1009,9 hPa 0,0 mm 12,5 km/h (3 Bft) S 180 0 min 1,4 C 11,9 km/h (2 Bft)
23.02.2016 12:15 8,5 C 9,0 C 62 % 1009,9 hPa 0,0 mm 12,5 km/h (3 Bft) W-NW 292 0 min 1,6 C 18,8 km/h (3 Bft)
23.02.2016 12:16 8,5 C 9,0 C 62 % 1009,9 hPa 0,0 mm 12,5 km/h (3 Bft) W-NW 292 0 min 1,6 C 18,8 km/h (3 Bft)
23.02.2016 12:17 8,5 C 8,9 C 62 % 1009,9 hPa 0,0 mm 13,1 km/h (3 Bft) W-NW 292 0 min 1,6 C 25,3 km/h (4 Bft)
23.02.2016 12:18 8,5 C 8,9 C 62 % 1009,9 hPa 0,0 mm 13,1 km/h (3 Bft) W-NW 292 0 min 1,6 C 25,3 km/h (4 Bft)
23.02.2016 12:19 8,5 C 9,2 C 62 % 1009,9 hPa 0,0 mm 14,3 km/h (3 Bft) W 270 0 min 1,6 C 24,7 km/h (4 Bft)
23.02.2016 12:20 8,5 C 8,9 C 62 % 1009,9 hPa 0,0 mm 14,3 km/h (3 Bft) W 270 0 min 1,6 C 24,7 km/h (4 Bft)
23.02.2016 12:21 8,5 C 8,9 C 62 % 1009,9 hPa 0,0 mm 14,3 km/h (3 Bft) NW 315 0 min 1,6 C 7,7 km/h (2 Bft)
23.02.2016 12:22 8,5 C 8,9 C 62 % 1009,9 hPa 0,0 mm 14,3 km/h (3 Bft) NW 315 0 min 1,6 C 7,7 km/h (2 Bft)
23.02.2016 12:23 8,5 C 9,1 C 62 % 1009,6 hPa 0,0 mm 14,0 km/h (3 Bft) SW 225 0 min 1,6 C 11,3 km/h (2 Bft)
23.02.2016 12:24 8,5 C 9,1 C 62 % 1009,6 hPa 0,0 mm 14,0 km/h (3 Bft) SW 225 0 min 1,6 C 11,3 km/h (2 Bft)
23.02.2016 12:25 8,5 C 9,2 C 62 % 1009,6 hPa 0,0 mm 14,6 km/h (3 Bft) W-NW 292 0 min 1,6 C 27,7 km/h (4 Bft)
23.02.2016 12:26 8,5 C 9,0 C 62 % 1009,6 hPa 0,0 mm 14,6 km/h (3 Bft) W-NW 292 0 min 1,6 C 27,7 km/h (4 Bft)
23.02.2016 12:27 8,5 C 9,3 C 62 % 1009,6 hPa 0,0 mm 14,3 km/h (3 Bft) W 270 0 min 1,6 C 14,9 km/h (3 Bft)
23.02.2016 12:28 8,5 C 9,1 C 62 % 1009,6 hPa 0,0 mm 14,3 km/h (3 Bft) W 270 0 min 1,6 C 14,9 km/h (3 Bft)
23.02.2016 12:29 8,5 C 9,0 C 62 % 1009,6 hPa 0,0 mm 13,7 km/h (3 Bft) W 270 0 min 1,6 C 20,3 km/h (4 Bft)
23.02.2016 12:30 8,5 C 9,0 C 62 % 1009,6 hPa 0,0 mm 13,7 km/h (3 Bft) W 270 0 min 1,6 C 20,3 km/h (4 Bft)
23.02.2016 12:31 8,6 C 9,2 C 62 % 1009,6 hPa 0,0 mm 13,1 km/h (3 Bft) W 270 0 min 1,7 C 15,5 km/h (3 Bft)
23.02.2016 12:32 8,6 C 9,2 C 62 % 1009,6 hPa 0,0 mm 13,1 km/h (3 Bft) W 270 0 min 1,7 C 15,5 km/h (3 Bft)
23.02.2016 12:33 8,7 C 9,4 C 63 % 1009,6 hPa 0,0 mm 13,1 km/h (3 Bft) W 270 0 min 2,1 C 21,8 km/h (4 Bft)
23.02.2016 12:34 8,7 C 9,4 C 63 % 1009,6 hPa 0,0 mm 13,1 km/h (3 Bft) W 270 0 min 2,1 C 21,8 km/h (4 Bft)
23.02.2016 12:35 8,8 C 9,5 C 63 % 1009,6 hPa 0,0 mm 13,1 km/h (3 Bft) N-NW 337 0 min 2,2 C 21,5 km/h (4 Bft)
23.02.2016 12:36 8,8 C 9,5 C 63 % 1009,6 hPa 0,0 mm 13,1 km/h (3 Bft) N-NW 337 0 min 2,2 C 21,5 km/h (4 Bft)
23.02.2016 12:37 8,9 C 9,8 C 62 % 1009,6 hPa 0,0 mm 12,2 km/h (2 Bft) W 270 0 min 2,0 C 11,9 km/h (2 Bft)
23.02.2016 12:38 8,9 C 9,8 C 62 % 1009,6 hPa 0,0 mm 12,2 km/h (2 Bft) W 270 0 min 2,0 C 11,9 km/h (2 Bft)
23.02.2016 12:39 9,0 C 10,0 C 62 % 1009,6 hPa 0,0 mm 12,2 km/h (2 Bft) NW 315 0 min 2,1 C 16,4 km/h (3 Bft)
23.02.2016 12:40 9,0 C 10,0 C 62 % 1009,6 hPa 0,0 mm 12,2 km/h (2 Bft) NW 315 0 min 2,1 C 16,4 km/h (3 Bft)
23.02.2016 12:41 9,1 C 10,3 C 62 % 1009,6 hPa 0,0 mm 12,5 km/h (3 Bft) W-SW 247 0 min 2,2 C 18,5 km/h (3 Bft)
23.02.2016 12:42 9,1 C 10,3 C 62 % 1009,6 hPa 0,0 mm 12,5 km/h (3 Bft) W-SW 247 0 min 2,2 C 18,5 km/h (3 Bft)
23.02.2016 12:43 9,2 C 10,2 C 61 % 1009,4 hPa 0,0 mm 13,7 km/h (3 Bft) W-SW 247 0 min 2,1 C 28,6 km/h (4 Bft)
23.02.2016 12:44 9,2 C 10,2 C 61 % 1009,4 hPa 0,0 mm 13,7 km/h (3 Bft) W-SW 247 0 min 2,1 C 28,6 km/h (4 Bft)
23.02.2016 12:45 9,1 C 10,2 C 60 % 1009,4 hPa 0,0 mm 15,5 km/h (3 Bft) W 270 0 min 1,8 C 18,5 km/h (3 Bft)
23.02.2016 12:46 9,1 C 9,8 C 60 % 1009,4 hPa 0,0 mm 15,5 km/h (3 Bft) W 270 0 min 1,8 C 18,5 km/h (3 Bft)
23.02.2016 12:47 9,0 C 9,9 C 60 % 1009,4 hPa 0,0 mm 15,8 km/h (3 Bft) NW 315 0 min 1,7 C 13,4 km/h (3 Bft)
23.02.2016 12:48 9,0 C 9,5 C 60 % 1009,4 hPa 0,0 mm 15,8 km/h (3 Bft) NW 315 0 min 1,7 C 13,4 km/h (3 Bft)
23.02.2016 12:49 9,0 C 9,7 C 60 % 1009,4 hPa 0,0 mm 16,7 km/h (3 Bft) W-SW 247 0 min 1,7 C 11,9 km/h (2 Bft)
23.02.2016 12:50 9,0 C 9,3 C 60 % 1009,4 hPa 0,0 mm 16,7 km/h (3 Bft) W-SW 247 0 min 1,7 C 11,9 km/h (2 Bft)
23.02.2016 12:51 8,9 C 9,5 C 60 % 1009,4 hPa 0,0 mm 17,3 km/h (3 Bft) NW 315 0 min 1,6 C 21,5 km/h (4 Bft)
23.02.2016 12:52 8,9 C 9,2 C 60 % 1009,4 hPa 0,0 mm 17,3 km/h (3 Bft) NW 315 0 min 1,6 C 21,5 km/h (4 Bft)
23.02.2016 12:53 8,9 C 9,3 C 60 % 1009,4 hPa 0,0 mm 17,6 km/h (3 Bft) W-SW 247 0 min 1,6 C 33,1 km/h (5 Bft)
23.02.2016 12:54 8,9 C 9,1 C 60 % 1009,4 hPa 0,0 mm 17,6 km/h (3 Bft) W-SW 247 0 min 1,6 C 33,1 km/h (5 Bft)
23.02.2016 12:55 8,9 C 9,2 C 61 % 1009,4 hPa 0,0 mm 16,4 km/h (3 Bft) W 270 0 min 1,8 C 34,6 km/h (5 Bft)
23.02.2016 12:56 8,9 C 9,2 C 61 % 1009,4 hPa 0,0 mm 16,4 km/h (3 Bft) W 270 0 min 1,8 C 34,6 km/h (5 Bft)
23.02.2016 12:57 8,9 C 9,1 C 60 % 1009,4 hPa 0,0 mm 16,4 km/h (3 Bft) W-SW 247 0 min 1,6 C 34,3 km/h (5 Bft)
23.02.2016 12:58 8,9 C 9,1 C 60 % 1009,4 hPa 0,0 mm 16,4 km/h (3 Bft) W-SW 247 0 min 1,6 C 34,3 km/h (5 Bft)
23.02.2016 12:59 8,9 C 9,2 C 60 % 1009,4 hPa 0,0 mm 17,9 km/h (3 Bft) W-NW 292 0 min 1,6 C 34,3 km/h (5 Bft)
23.02.2016 13:00 8,9 C 9,0 C 60 % 1009,4 hPa 0,0 mm 17,9 km/h (3 Bft) W-NW 292 0 min 1,6 C 34,3 km/h (5 Bft)
23.02.2016 13:01 8,9 C 9,2 C 60 % 1009,4 hPa 0,0 mm 18,2 km/h (3 Bft) W-NW 292 0 min 1,6 C 21,2 km/h (4 Bft)
23.02.2016 13:02 8,9 C 9,2 C 60 % 1009,4 hPa 0,0 mm 18,2 km/h (3 Bft) W-NW 292 0 min 1,6 C 21,2 km/h (4 Bft)
23.02.2016 13:03 9,0 C 9,4 C 59 % 1009,2 hPa 0,0 mm 20,9 km/h (4 Bft) W-SW 247 0 min 1,4 C 61,1 km/h (7 Bft)
23.02.2016 13:04 9,0 C 9,2 C 59 % 1009,2 hPa 0,0 mm 20,9 km/h (4 Bft) W-SW 247 0 min 1,4 C 61,1 km/h (7 Bft)
23.02.2016 13:05 9,0 C 9,3 C 59 % 1009,2 hPa 0,0 mm 22,4 km/h (4 Bft) W 270 0 min 1,4 C 41,4 km/h (6 Bft)
23.02.2016 13:06 9,0 C 9,1 C 59 % 1009,2 hPa 0,0 mm 22,4 km/h (4 Bft) W 270 0 min 1,4 C 41,4 km/h (6 Bft)
23.02.2016 13:07 9,0 C 9,4 C 59 % 1009,2 hPa 0,0 mm 22,7 km/h (4 Bft) W 270 0 min 1,4 C 21,5 km/h (4 Bft)
23.02.2016 13:08 9,0 C 9,2 C 59 % 1009,2 hPa 0,0 mm 22,7 km/h (4 Bft) W 270 0 min 1,4 C 21,5 km/h (4 Bft)
23.02.2016 13:09 9,1 C 9,4 C 59 % 1009,2 hPa 0,0 mm 22,4 km/h (4 Bft) W-SW 247 0 min 1,5 C 28,3 km/h (4 Bft)
23.02.2016 13:10 9,1 C 9,4 C 59 % 1009,2 hPa 0,0 mm 22,4 km/h (4 Bft) W-SW 247 0 min 1,5 C 28,3 km/h (4 Bft)
23.02.2016 13:11 9,1 C 9,4 C 59 % 1009,2 hPa 0,0 mm 23,2 km/h (4 Bft) W 270 0 min 1,5 C 33,7 km/h (5 Bft)
23.02.2016 13:12 9,1 C 9,2 C 59 % 1009,2 hPa 0,0 mm 23,2 km/h (4 Bft) W 270 0 min 1,5 C 33,7 km/h (5 Bft)
23.02.2016 13:13 9,0 C 9,3 C 59 % 1009,2 hPa 0,0 mm 24,1 km/h (4 Bft) SW 225 0 min 1,4 C 38,4 km/h (5 Bft)
23.02.2016 13:14 9,0 C 9,1 C 59 % 1009,2 hPa 0,0 mm 24,1 km/h (4 Bft) SW 225 0 min 1,4 C 38,4 km/h (5 Bft)
23.02.2016 13:15 8,9 C 9,0 C 59 % 1009,2 hPa 0,0 mm 23,2 km/h (4 Bft) NW 315 0 min 1,3 C 44,7 km/h (6 Bft)
23.02.2016 13:16 8,9 C 9,0 C 59 % 1009,2 hPa 0,0 mm 23,2 km/h (4 Bft) NW 315 0 min 1,3 C 44,7 km/h (6 Bft)
23.02.2016 13:17 8,8 C 8,8 C 59 % 1009,2 hPa 0,0 mm 23,5 km/h (4 Bft) W-NW 292 0 min 1,2 C 27,1 km/h (4 Bft)
23.02.2016 13:18 8,8 C 8,5 C 59 % 1009,2 hPa 0,0 mm 23,5 km/h (4 Bft) W-NW 292 0 min 1,2 C 27,1 km/h (4 Bft)
23.02.2016 13:19 8,6 C 8,5 C 59 % 1009,2 hPa 0,0 mm 24,4 km/h (4 Bft) S-SW 202 0 min 1,0 C 19,4 km/h (3 Bft)
23.02.2016 13:20 8,6 C 8,2 C 59 % 1009,2 hPa 0,0 mm 24,4 km/h (4 Bft) S-SW 202 0 min 1,0 C 19,4 km/h (3 Bft)
23.02.2016 13:21 8,5 C 8,3 C 59 % 1009,2 hPa 0,0 mm 24,7 km/h (4 Bft) S 180 0 min 1,0 C 36,1 km/h (5 Bft)
23.02.2016 13:22 8,5 C 8,0 C 59 % 1009,2 hPa 0,0 mm 24,7 km/h (4 Bft) S 180 0 min 1,0 C 36,1 km/h (5 Bft)
23.02.2016 13:23 8,4 C 8,0 C 59 % 1009,1 hPa 0,0 mm 25,6 km/h (4 Bft) W 270 0 min 0,9 C 59,6 km/h (7 Bft)
23.02.2016 13:24 8,4 C 7,7 C 59 % 1009,1 hPa 0,0 mm 25,6 km/h (4 Bft) W 270 0 min 0,9 C 59,6 km/h (7 Bft)
23.02.2016 13:25 8,3 C 7,9 C 60 % 1009,1 hPa 0,0 mm 25,6 km/h (4 Bft) W-SW 247 0 min 1,0 C 38,4 km/h (5 Bft)
23.02.2016 13:26 8,3 C 7,5 C 60 % 1009,1 hPa 0,0 mm 25,6 km/h (4 Bft) W-SW 247 0 min 1,0 C 38,4 km/h (5 Bft)
23.02.2016 13:27 8,2 C 7,5 C 60 % 1009,1 hPa 0,0 mm 24,7 km/h (4 Bft) W 270 0 min 0,9 C 22,7 km/h (4 Bft)
23.02.2016 13:28 8,2 C 7,5 C 60 % 1009,1 hPa 0,0 mm 24,7 km/h (4 Bft) W 270 0 min 0,9 C 22,7 km/h (4 Bft)
23.02.2016 13:29 8,2 C 7,8 C 60 % 1009,1 hPa 0,0 mm 23,5 km/h (4 Bft) SW 225 0 min 0,9 C 39,0 km/h (6 Bft)
23.02.2016 13:30 8,2 C 7,6 C 60 % 1009,1 hPa 0,0 mm 23,5 km/h (4 Bft) SW 225 0 min 0,9 C 39,0 km/h (6 Bft)
23.02.2016 13:31 8,2 C 7,9 C 60 % 1009,1 hPa 0,0 mm 22,1 km/h (4 Bft) S-SW 202 0 min 0,9 C 17,3 km/h (3 Bft)
23.02.2016 13:32 8,2 C 7,7 C 60 % 1009,1 hPa 0,0 mm 22,1 km/h (4 Bft) S-SW 202 0 min 0,9 C 17,3 km/h (3 Bft)
23.02.2016 13:33 8,3 C 8,1 C 60 % 1009,1 hPa 0,0 mm 20,6 km/h (4 Bft) W 270 0 min 1,0 C 33,1 km/h (5 Bft)
23.02.2016 13:34 8,3 C 8,0 C 60 % 1009,1 hPa 0,0 mm 20,6 km/h (4 Bft) W 270 0 min 1,0 C 33,1 km/h (5 Bft)
23.02.2016 13:35 8,3 C 8,3 C 60 % 1009,1 hPa 0,0 mm 18,2 km/h (3 Bft) W 270 0 min 1,0 C 23,2 km/h (4 Bft)
23.02.2016 13:36 8,3 C 8,2 C 60 % 1009,1 hPa 0,0 mm 18,2 km/h (3 Bft) W 270 0 min 1,0 C 23,2 km/h (4 Bft)
23.02.2016 13:37 8,3 C 8,3 C 60 % 1009,1 hPa 0,0 mm 18,8 km/h (3 Bft) W-NW 292 0 min 1,0 C 43,2 km/h (6 Bft)
23.02.2016 13:38 8,3 C 8,2 C 60 % 1009,1 hPa 0,0 mm 18,8 km/h (3 Bft) W-NW 292 0 min 1,0 C 43,2 km/h (6 Bft)
23.02.2016 13:39 8,3 C 8,3 C 60 % 1009,1 hPa 0,0 mm 19,7 km/h (3 Bft) W-NW 292 0 min 1,0 C 27,7 km/h (4 Bft)
23.02.2016 13:40 8,3 C 8,1 C 60 % 1009,1 hPa 0,0 mm 19,7 km/h (3 Bft) W-NW 292 0 min 1,0 C 27,7 km/h (4 Bft)
23.02.2016 13:41 8,3 C 8,3 C 60 % 1009,1 hPa 0,0 mm 20,9 km/h (4 Bft) W 270 0 min 1,0 C 22,1 km/h (4 Bft)
23.02.2016 13:42 8,3 C 8,1 C 60 % 1009,1 hPa 0,0 mm 20,9 km/h (4 Bft) W 270 0 min 1,0 C 22,1 km/h (4 Bft)
23.02.2016 13:43 8,3 C 8,1 C 60 % 1008,7 hPa 0,0 mm 22,7 km/h (4 Bft) SW 225 0 min 1,0 C 39,0 km/h (6 Bft)
23.02.2016 13:44 8,3 C 8,1 C 60 % 1008,7 hPa 0,0 mm 22,7 km/h (4 Bft) SW 225 0 min 1,0 C 39,0 km/h (6 Bft)
23.02.2016 13:45 8,3 C 8,3 C 60 % 1008,7 hPa 0,0 mm 24,4 km/h (4 Bft) W 270 0 min 1,0 C 59,0 km/h (7 Bft)
23.02.2016 13:46 8,3 C 8,0 C 60 % 1008,7 hPa 0,0 mm 24,4 km/h (4 Bft) W 270 0 min 1,0 C 59,0 km/h (7 Bft)
23.02.2016 13:47 8,3 C 8,4 C 60 % 1008,7 hPa 0,0 mm 24,7 km/h (4 Bft) W 270 0 min 1,0 C 35,5 km/h (5 Bft)
23.02.2016 13:48 8,3 C 8,1 C 60 % 1008,7 hPa 0,0 mm 24,7 km/h (4 Bft) W 270 0 min 1,0 C 35,5 km/h (5 Bft)
23.02.2016 13:49 8,4 C 8,4 C 60 % 1008,7 hPa 0,0 mm 24,7 km/h (4 Bft) W 270 0 min 1,1 C 24,7 km/h (4 Bft)
23.02.2016 13:50 8,4 C 8,2 C 60 % 1008,7 hPa 0,0 mm 24,7 km/h (4 Bft) W 270 0 min 1,1 C 24,7 km/h (4 Bft)
23.02.2016 13:51 8,5 C 8,3 C 60 % 1008,7 hPa 0,0 mm 24,1 km/h (4 Bft) SW 225 0 min 1,2 C 40,8 km/h (6 Bft)
23.02.2016 13:52 8,5 C 8,3 C 60 % 1008,7 hPa 0,0 mm 24,1 km/h (4 Bft) SW 225 0 min 1,2 C 40,8 km/h (6 Bft)
23.02.2016 13:53 8,6 C 8,8 C 60 % 1008,7 hPa 0,0 mm 24,7 km/h (4 Bft) N-NO 22 0 min 1,3 C 23,8 km/h (4 Bft)
23.02.2016 13:54 8,6 C 8,6 C 60 % 1008,7 hPa 0,0 mm 24,7 km/h (4 Bft) N-NO 22 0 min 1,3 C 23,8 km/h (4 Bft)
23.02.2016 13:55 8,7 C 9,0 C 60 % 1008,7 hPa 0,0 mm 24,4 km/h (4 Bft) W-NW 292 0 min 1,4 C 31,9 km/h (5 Bft)
23.02.2016 13:56 8,7 C 8,9 C 60 % 1008,7 hPa 0,0 mm 24,4 km/h (4 Bft) W-NW 292 0 min 1,4 C 31,9 km/h (5 Bft)
23.02.2016 13:57 8,9 C 9,5 C 60 % 1008,7 hPa 0,0 mm 22,9 km/h (4 Bft) S-SW 202 0 min 1,6 C 26,2 km/h (4 Bft)
23.02.2016 13:58 8,9 C 9,4 C 60 % 1008,7 hPa 0,0 mm 22,9 km/h (4 Bft) S-SW 202 0 min 1,6 C 26,2 km/h (4 Bft)
23.02.2016 13:59 9,1 C 9,8 C 59 % 1008,7 hPa 0,0 mm 21,5 km/h (4 Bft) W-SW 247 0 min 1,5 C 12,2 km/h (2 Bft)
23.02.2016 14:00 9,1 C 9,7 C 59 % 1008,7 hPa 0,0 mm 21,5 km/h (4 Bft) W-SW 247 0 min 1,5 C 12,2 km/h (2 Bft)
23.02.2016 14:01 9,3 C 10,1 C 59 % 1008,7 hPa 0,0 mm 20,9 km/h (4 Bft) W-SW 247 0 min 1,7 C 30,4 km/h (5 Bft)
23.02.2016 14:02 9,3 C 10,0 C 59 % 1008,7 hPa 0,0 mm 20,9 km/h (4 Bft) W-SW 247 0 min 1,7 C 30,4 km/h (5 Bft)
23.02.2016 14:03 9,2 C 10,4 C 59 % 1008,8 hPa 0,0 mm 19,7 km/h (3 Bft) NW 315 0 min 1,6 C 22,9 km/h (4 Bft)
23.02.2016 14:04 9,2 C 10,1 C 59 % 1008,8 hPa 0,0 mm 19,7 km/h (3 Bft) NW 315 0 min 1,6 C 22,9 km/h (4 Bft)
23.02.2016 14:05 9,2 C 10,4 C 59 % 1008,8 hPa 0,0 mm 20,6 km/h (4 Bft) W 270 0 min 1,6 C 31,3 km/h (5 Bft)
23.02.2016 14:06 9,2 C 9,9 C 59 % 1008,8 hPa 0,0 mm 20,6 km/h (4 Bft) W 270 0 min 1,6 C 31,3 km/h (5 Bft)
23.02.2016 14:07 9,0 C 10,1 C 59 % 1008,8 hPa 0,0 mm 20,9 km/h (4 Bft) W 270 0 min 1,4 C 36,1 km/h (5 Bft)
23.02.2016 14:08 9,0 C 9,5 C 59 % 1008,8 hPa 0,0 mm 20,9 km/h (4 Bft) W 270 0 min 1,4 C 36,1 km/h (5 Bft)
23.02.2016 14:09 8,9 C 9,8 C 59 % 1008,8 hPa 0,0 mm 21,5 km/h (4 Bft) W-SW 247 0 min 1,3 C 20,6 km/h (4 Bft)
23.02.2016 14:10 8,9 C 9,2 C 59 % 1008,8 hPa 0,0 mm 21,5 km/h (4 Bft) W-SW 247 0 min 1,3 C 20,6 km/h (4 Bft)
23.02.2016 14:11 8,8 C 9,4 C 59 % 1008,8 hPa 0,0 mm 23,2 km/h (4 Bft) W 270 0 min 1,2 C 31,0 km/h (5 Bft)
23.02.2016 14:12 8,8 C 9,0 C 59 % 1008,8 hPa 0,0 mm 23,2 km/h (4 Bft) W 270 0 min 1,2 C 31,0 km/h (5 Bft)
23.02.2016 14:13 8,8 C 9,1 C 59 % 1008,8 hPa 0,0 mm 23,2 km/h (4 Bft) SW 225 0 min 1,2 C 22,4 km/h (4 Bft)
23.02.2016 14:14 8,8 C 8,9 C 59 % 1008,8 hPa 0,0 mm 23,2 km/h (4 Bft) SW 225 0 min 1,2 C 22,4 km/h (4 Bft)
23.02.2016 14:15 8,8 C 9,2 C 59 % 1008,8 hPa 0,0 mm 22,4 km/h (4 Bft) N-NW 337 0 min 1,2 C 19,4 km/h (3 Bft)
23.02.2016 14:16 8,8 C 9,0 C 59 % 1008,8 hPa 0,0 mm 22,4 km/h (4 Bft) N-NW 337 0 min 1,2 C 19,4 km/h (3 Bft)
23.02.2016 14:17 8,9 C 9,3 C 59 % 1008,8 hPa 0,0 mm 21,8 km/h (4 Bft) W 270 0 min 1,3 C 39,3 km/h (6 Bft)
23.02.2016 14:18 8,9 C 9,1 C 59 % 1008,8 hPa 0,0 mm 21,8 km/h (4 Bft) W 270 0 min 1,3 C 39,3 km/h (6 Bft)
23.02.2016 14:19 8,9 C 9,3 C 59 % 1008,8 hPa 0,0 mm 21,8 km/h (4 Bft) W-SW 247 0 min 1,3 C 34,0 km/h (5 Bft)
23.02.2016 14:20 8,9 C 9,2 C 59 % 1008,8 hPa 0,0 mm 21,8 km/h (4 Bft) W-SW 247 0 min 1,3 C 34,0 km/h (5 Bft)
23.02.2016 14:21 9,0 C 9,4 C 59 % 1008,8 hPa 0,0 mm 22,1 km/h (4 Bft) W-SW 247 0 min 1,4 C 26,5 km/h (4 Bft)
23.02.2016 14:22 9,0 C 9,3 C 59 % 1008,8 hPa 0,0 mm 22,1 km/h (4 Bft) W-SW 247 0 min 1,4 C 26,5 km/h (4 Bft)
23.02.2016 14:23 9,1 C 9,6 C 59 % 1008,5 hPa 0,0 mm 21,5 km/h (4 Bft) W 270 0 min 1,5 C 21,5 km/h (4 Bft)
23.02.2016 14:24 9,1 C 9,5 C 59 % 1008,5 hPa 0,0 mm 21,5 km/h (4 Bft) W 270 0 min 1,5 C 21,5 km/h (4 Bft)
23.02.2016 14:25 9,3 C 10,0 C 59 % 1008,5 hPa 0,0 mm 20,0 km/h (4 Bft) W 270 0 min 1,7 C 12,8 km/h (3 Bft)
23.02.2016 14:26 9,3 C 9,9 C 59 % 1008,5 hPa 0,0 mm 20,0 km/h (4 Bft) W 270 0 min 1,7 C 12,8 km/h (3 Bft)
23.02.2016 14:27 9,6 C 10,5 C 59 % 1008,5 hPa 0,0 mm 20,0 km/h (4 Bft) W-SW 247 0 min 2,0 C 20,3 km/h (4 Bft)
23.02.2016 14:28 9,6 C 10,5 C 59 % 1008,5 hPa 0,0 mm 20,0 km/h (4 Bft) W-SW 247 0 min 2,0 C 20,3 km/h (4 Bft)
23.02.2016 14:29 9,6 C 11,0 C 59 % 1008,5 hPa 0,0 mm 20,0 km/h (4 Bft) W 270 0 min 2,0 C 31,0 km/h (5 Bft)
23.02.2016 14:30 9,6 C 10,8 C 59 % 1008,5 hPa 0,0 mm 20,0 km/h (4 Bft) W 270 0 min 2,0 C 31,0 km/h (5 Bft)
23.02.2016 14:31 9,5 C 11,3 C 59 % 1008,5 hPa 0,0 mm 18,5 km/h (3 Bft) S-SW 202 0 min 1,9 C 17,6 km/h (3 Bft)
23.02.2016 14:32 9,5 C 11,0 C 59 % 1008,5 hPa 0,0 mm 18,5 km/h (3 Bft) S-SW 202 0 min 1,9 C 17,6 km/h (3 Bft)
23.02.2016 14:33 9,4 C 11,2 C 58 % 1008,5 hPa 0,0 mm 18,5 km/h (3 Bft) NW 315 0 min 1,6 C 28,3 km/h (4 Bft)
23.02.2016 14:34 9,4 C 10,8 C 58 % 1008,5 hPa 0,0 mm 18,5 km/h (3 Bft) NW 315 0 min 1,6 C 28,3 km/h (4 Bft)
23.02.2016 14:35 9,3 C 10,8 C 58 % 1008,5 hPa 0,0 mm 20,9 km/h (4 Bft) W-NW 292 0 min 1,5 C 37,9 km/h (5 Bft)
23.02.2016 14:36 9,3 C 10,1 C 58 % 1008,5 hPa 0,0 mm 20,9 km/h (4 Bft) W-NW 292 0 min 1,5 C 37,9 km/h (5 Bft)
23.02.2016 14:37 9,0 C 10,1 C 58 % 1008,5 hPa 0,0 mm 22,7 km/h (4 Bft) W 270 0 min 1,2 C 25,9 km/h (4 Bft)
23.02.2016 14:38 9,0 C 9,3 C 58 % 1008,5 hPa 0,0 mm 22,7 km/h (4 Bft) W 270 0 min 1,2 C 25,9 km/h (4 Bft)
23.02.2016 14:39 8,9 C 9,6 C 59 % 1008,5 hPa 0,0 mm 22,7 km/h (4 Bft) W 270 0 min 1,3 C 22,1 km/h (4 Bft)
23.02.2016 14:40 8,9 C 9,1 C 59 % 1008,5 hPa 0,0 mm 22,7 km/h (4 Bft) W 270 0 min 1,3 C 22,1 km/h (4 Bft)
23.02.2016 14:41 8,9 C 9,4 C 59 % 1008,5 hPa 0,0 mm 22,4 km/h (4 Bft) W-NW 292 0 min 1,3 C 24,4 km/h (4 Bft)
23.02.2016 14:42 8,9 C 9,1 C 59 % 1008,5 hPa 0,0 mm 22,4 km/h (4 Bft) W-NW 292 0 min 1,3 C 24,4 km/h (4 Bft)
23.02.2016 14:43 9,0 C 9,3 C 59 % 1008,4 hPa 0,0 mm 22,9 km/h (4 Bft) W 270 0 min 1,4 C 33,7 km/h (5 Bft)
23.02.2016 14:44 9,0 C 9,1 C 59 % 1008,4 hPa 0,0 mm 22,9 km/h (4 Bft) W 270 0 min 1,4 C 33,7 km/h (5 Bft)
23.02.2016 14:45 9,0 C 9,3 C 58 % 1008,4 hPa 0,0 mm 21,5 km/h (4 Bft) W-NW 292 0 min 1,2 C 15,5 km/h (3 Bft)
23.02.2016 14:46 9,0 C 9,1 C 58 % 1008,4 hPa 0,0 mm 21,5 km/h (4 Bft) W-NW 292 0 min 1,2 C 15,5 km/h (3 Bft)
23.02.2016 14:48 8,9 C 9,3 C 59 % 1008,4 hPa 0,0 mm 20,3 km/h (4 Bft) W-NW 292 0 min 1,3 C 20,6 km/h (4 Bft)
23.02.2016 14:49 8,9 C 9,1 C 59 % 1008,4 hPa 0,0 mm 20,0 km/h (4 Bft) W 270 0 min 1,3 C 31,6 km/h (5 Bft)
23.02.2016 14:50 8,9 C 9,1 C 59 % 1008,4 hPa 0,0 mm 20,0 km/h (4 Bft) W 270 0 min 1,3 C 31,6 km/h (5 Bft)
23.02.2016 14:51 8,9 C 9,2 C 59 % 1008,4 hPa 0,0 mm 18,8 km/h (3 Bft) NW 315 0 min 1,3 C 13,4 km/h (3 Bft)
23.02.2016 14:52 8,9 C 9,0 C 59 % 1008,4 hPa 0,0 mm 18,8 km/h (3 Bft) NW 315 0 min 1,3 C 13,4 km/h (3 Bft)
23.02.2016 14:53 8,9 C 9,0 C 59 % 1008,4 hPa 0,0 mm 18,2 km/h (3 Bft) W-SW 247 0 min 1,3 C 16,7 km/h (3 Bft)
23.02.2016 14:54 8,9 C 9,0 C 59 % 1008,4 hPa 0,0 mm 18,2 km/h (3 Bft) W-SW 247 0 min 1,3 C 16,7 km/h (3 Bft)
23.02.2016 14:55 8,9 C 9,0 C 59 % 1008,4 hPa 0,0 mm 18,2 km/h (3 Bft) W-NW 292 0 min 1,3 C 25,9 km/h (4 Bft)
23.02.2016 14:56 8,9 C 9,0 C 59 % 1008,4 hPa 0,0 mm 18,2 km/h (3 Bft) W-NW 292 0 min 1,3 C 25,9 km/h (4 Bft)
23.02.2016 14:57 8,8 C 9,1 C 59 % 1008,4 hPa 0,0 mm 17,6 km/h (3 Bft) W-NW 292 0 min 1,2 C 20,9 km/h (4 Bft)
23.02.2016 14:58 8,8 C 8,9 C 59 % 1008,4 hPa 0,0 mm 17,6 km/h (3 Bft) W-NW 292 0 min 1,2 C 20,9 km/h (4 Bft)
23.02.2016 14:59 8,8 C 9,0 C 59 % 1008,4 hPa 0,0 mm 18,8 km/h (3 Bft) W 270 0 min 1,2 C 34,0 km/h (5 Bft)
23.02.2016 15:00 8,8 C 8,8 C 59 % 1008,4 hPa 0,0 mm 18,8 km/h (3 Bft) W 270 0 min 1,2 C 34,0 km/h (5 Bft)
23.02.2016 15:01 8,7 C 8,8 C 59 % 1008,4 hPa 0,0 mm 19,4 km/h (3 Bft) S 180 0 min 1,1 C 20,6 km/h (4 Bft)
23.02.2016 15:02 8,7 C 8,7 C 59 % 1008,4 hPa 0,0 mm 19,4 km/h (3 Bft) S 180 0 min 1,1 C 20,6 km/h (4 Bft)
23.02.2016 15:03 8,7 C 8,8 C 59 % 1008,6 hPa 0,0 mm 21,5 km/h (4 Bft) W 270 0 min 1,1 C 42,3 km/h (6 Bft)
23.02.2016 15:04 8,7 C 8,5 C 59 % 1008,6 hPa 0,0 mm 21,5 km/h (4 Bft) W 270 0 min 1,1 C 42,3 km/h (6 Bft)
23.02.2016 15:05 8,6 C 8,6 C 59 % 1008,6 hPa 0,0 mm 23,5 km/h (4 Bft) W 270 0 min 1,0 C 35,8 km/h (5 Bft)
23.02.2016 15:06 8,6 C 8,3 C 59 % 1008,6 hPa 0,0 mm 23,5 km/h (4 Bft) W 270 0 min 1,0 C 35,8 km/h (5 Bft)
23.02.2016 15:07 8,6 C 8,5 C 59 % 1008,6 hPa 0,0 mm 24,4 km/h (4 Bft) W-NW 292 0 min 1,0 C 28,9 km/h (5 Bft)
23.02.2016 15:08 8,6 C 8,3 C 59 % 1008,6 hPa 0,0 mm 24,4 km/h (4 Bft) W-NW 292 0 min 1,0 C 28,9 km/h (5 Bft)
23.02.2016 15:09 8,6 C 8,5 C 59 % 1008,6 hPa 0,0 mm 23,5 km/h (4 Bft) NW 315 0 min 1,0 C 21,8 km/h (4 Bft)
23.02.2016 15:10 8,6 C 8,3 C 59 % 1008,6 hPa 0,0 mm 23,5 km/h (4 Bft) NW 315 0 min 1,0 C 21,8 km/h (4 Bft)
23.02.2016 15:11 8,6 C 8,3 C 59 % 1008,6 hPa 0,0 mm 23,5 km/h (4 Bft) W 270 0 min 1,0 C 39,0 km/h (6 Bft)
23.02.2016 15:12 8,6 C 8,3 C 59 % 1008,6 hPa 0,0 mm 23,5 km/h (4 Bft) W 270 0 min 1,0 C 39,0 km/h (6 Bft)
23.02.2016 15:13 8,5 C 8,4 C 60 % 1008,6 hPa 0,0 mm 24,4 km/h (4 Bft) W-SW 247 0 min 1,2 C 18,2 km/h (3 Bft)
23.02.2016 15:14 8,5 C 8,2 C 60 % 1008,6 hPa 0,0 mm 24,4 km/h (4 Bft) W-SW 247 0 min 1,2 C 18,2 km/h (3 Bft)
23.02.2016 15:15 8,4 C 8,1 C 60 % 1008,6 hPa 0,0 mm 21,8 km/h (4 Bft) N 360 0 min 1,1 C 28,9 km/h (5 Bft)
23.02.2016 15:16 8,4 C 8,1 C 60 % 1008,6 hPa 0,0 mm 21,8 km/h (4 Bft) N 360 0 min 1,1 C 28,9 km/h (5 Bft)
23.02.2016 15:17 8,3 C 8,3 C 60 % 1008,6 hPa 0,0 mm 19,4 km/h (3 Bft) W-SW 247 0 min 1,0 C 22,9 km/h (4 Bft)
23.02.2016 15:18 8,3 C 8,1 C 60 % 1008,6 hPa 0,0 mm 19,4 km/h (3 Bft) W-SW 247 0 min 1,0 C 22,9 km/h (4 Bft)
23.02.2016 15:19 8,2 C 8,0 C 60 % 1008,6 hPa 0,0 mm 18,8 km/h (3 Bft) W 270 0 min 0,9 C 19,1 km/h (3 Bft)
23.02.2016 15:20 8,2 C 8,0 C 60 % 1008,6 hPa 0,0 mm 18,8 km/h (3 Bft) W 270 0 min 0,9 C 19,1 km/h (3 Bft)
23.02.2016 15:21 8,2 C 8,1 C 61 % 1008,6 hPa 0,0 mm 19,4 km/h (3 Bft) S 180 0 min 1,1 C 35,8 km/h (5 Bft)
23.02.2016 15:22 8,2 C 7,8 C 61 % 1008,6 hPa 0,0 mm 19,4 km/h (3 Bft) S 180 0 min 1,1 C 35,8 km/h (5 Bft)
23.02.2016 15:23 8,1 C 7,8 C 63 % 1008,6 hPa 0,0 mm 17,6 km/h (3 Bft) W 270 0 min 1,5 C 12,5 km/h (3 Bft)
23.02.2016 15:24 8,1 C 7,6 C 63 % 1008,6 hPa 0,0 mm 17,6 km/h (3 Bft) W 270 0 min 1,5 C 12,5 km/h (3 Bft)
23.02.2016 15:25 7,9 C 7,6 C 64 % 1008,6 hPa 0,0 mm 18,2 km/h (3 Bft) NW 315 0 min 1,5 C 17,9 km/h (3 Bft)
23.02.2016 15:26 7,9 C 7,4 C 64 % 1008,6 hPa 0,0 mm 18,2 km/h (3 Bft) NW 315 0 min 1,5 C 17,9 km/h (3 Bft)
23.02.2016 15:27 7,8 C 7,4 C 65 % 1008,6 hPa 0,0 mm 17,9 km/h (3 Bft) W-SW 247 0 min 1,6 C 16,1 km/h (3 Bft)
23.02.2016 15:28 7,8 C 7,2 C 65 % 1008,6 hPa 0,0 mm 17,9 km/h (3 Bft) W-SW 247 0 min 1,6 C 16,1 km/h (3 Bft)
23.02.2016 15:29 7,6 C 7,2 C 66 % 1008,6 hPa 0,0 mm 17,3 km/h (3 Bft) W-SW 247 0 min 1,7 C 13,1 km/h (3 Bft)
23.02.2016 15:30 7,6 C 7,0 C 66 % 1008,6 hPa 0,0 mm 17,3 km/h (3 Bft) W-SW 247 0 min 1,7 C 13,1 km/h (3 Bft)
23.02.2016 15:31 7,6 C 7,1 C 66 % 1008,6 hPa 0,0 mm 16,1 km/h (3 Bft) W 270 0 min 1,7 C 10,1 km/h (2 Bft)
23.02.2016 15:32 7,6 C 6,9 C 66 % 1008,6 hPa 0,0 mm 16,1 km/h (3 Bft) W 270 0 min 1,7 C 10,1 km/h (2 Bft)
23.02.2016 15:33 7,5 C 7,0 C 67 % 1008,6 hPa 0,0 mm 14,6 km/h (3 Bft) W-SW 247 0 min 1,8 C 12,2 km/h (2 Bft)
23.02.2016 15:34 7,5 C 6,8 C 67 % 1008,6 hPa 0,0 mm 14,6 km/h (3 Bft) W-SW 247 0 min 1,8 C 12,2 km/h (2 Bft)
23.02.2016 15:35 7,4 C 6,8 C 68 % 1008,6 hPa 0,0 mm 13,4 km/h (3 Bft) NW 315 0 min 1,9 C 15,2 km/h (3 Bft)
23.02.2016 15:36 7,4 C 6,8 C 68 % 1008,6 hPa 0,0 mm 13,4 km/h (3 Bft) NW 315 0 min 1,9 C 15,2 km/h (3 Bft)
23.02.2016 15:37 7,3 C 6,7 C 65 % 1008,6 hPa 0,0 mm 13,1 km/h (3 Bft) W 270 0 min 1,2 C 29,8 km/h (5 Bft)
23.02.2016 15:38 7,3 C 6,7 C 65 % 1008,6 hPa 0,0 mm 13,1 km/h (3 Bft) W 270 0 min 1,2 C 29,8 km/h (5 Bft)
23.02.2016 15:39 7,2 C 6,8 C 66 % 1008,6 hPa 0,0 mm 14,3 km/h (3 Bft) W 270 0 min 1,3 C 12,5 km/h (3 Bft)
23.02.2016 15:40 7,2 C 6,6 C 66 % 1008,6 hPa 0,0 mm 14,3 km/h (3 Bft) W 270 0 min 1,3 C 12,5 km/h (3 Bft)
23.02.2016 15:41 7,2 C 6,6 C 69 % 1008,6 hPa 0,0 mm 14,3 km/h (3 Bft) W-SW 247 0 min 1,9 C 21,8 km/h (4 Bft)
23.02.2016 15:42 7,2 C 6,6 C 69 % 1008,6 hPa 0,0 mm 14,3 km/h (3 Bft) W-SW 247 0 min 1,9 C 21,8 km/h (4 Bft)
23.02.2016 15:43 7,1 C 6,7 C 66 % 1008,9 hPa 0,0 mm 14,3 km/h (3 Bft) W-SW 247 0 min 1,2 C 13,7 km/h (3 Bft)
23.02.2016 15:44 7,1 C 6,5 C 66 % 1008,9 hPa 0,0 mm 14,3 km/h (3 Bft) W-SW 247 0 min 1,2 C 13,7 km/h (3 Bft)
23.02.2016 15:45 7,1 C 6,6 C 69 % 1008,9 hPa 0,0 mm 14,6 km/h (3 Bft) W-SW 247 0 min 1,8 C 16,4 km/h (3 Bft)
23.02.2016 15:46 7,1 C 6,4 C 69 % 1008,9 hPa 0,0 mm 14,6 km/h (3 Bft) W-SW 247 0 min 1,8 C 16,4 km/h (3 Bft)
23.02.2016 15:47 7,0 C 6,5 C 69 % 1008,9 hPa 0,0 mm 14,3 km/h (3 Bft) W 270 0 min 1,7 C 11,6 km/h (2 Bft)
23.02.2016 15:48 7,0 C 6,3 C 69 % 1008,9 hPa 0,0 mm 14,3 km/h (3 Bft) W 270 0 min 1,7 C 11,6 km/h (2 Bft)
23.02.2016 15:49 6,9 C 6,3 C 67 % 1008,9 hPa 0,0 mm 13,4 km/h (3 Bft) W-NW 292 0 min 1,2 C 12,2 km/h (2 Bft)
23.02.2016 15:51 6,9 C 6,2 C 70 % 1008,9 hPa 0,0 mm 12,8 km/h (3 Bft) W-SW 247 0 min 1,8 C 17,3 km/h (3 Bft)
23.02.2016 15:54 6,8 C 6,1 C 70 % 1008,9 hPa 0,0 mm 12,2 km/h (2 Bft) W 270 0 min 1,7 C 8,0 km/h (2 Bft)
23.02.2016 15:55 6,8 C 6,1 C 71 % 1008,9 hPa 0,0 mm 12,5 km/h (3 Bft) W 270 0 min 1,9 C 15,8 km/h (3 Bft)
23.02.2016 15:56 6,8 C 6,1 C 71 % 1008,9 hPa 0,0 mm 12,5 km/h (3 Bft) W 270 0 min 1,9 C 15,8 km/h (3 Bft)
23.02.2016 15:58 6,7 C 6,0 C 71 % 1008,9 hPa 0,0 mm 12,8 km/h (3 Bft) W 270 0 min 1,8 C 19,4 km/h (3 Bft)
23.02.2016 16:01 6,6 C 5,8 C 72 % 1008,9 hPa 0,0 mm 13,4 km/h (3 Bft) W-SW 247 0 min 1,9 C 13,4 km/h (3 Bft)
23.02.2016 16:02 6,6 C 5,8 C 72 % 1008,9 hPa 0,0 mm 13,4 km/h (3 Bft) W-SW 247 0 min 1,9 C 13,4 km/h (3 Bft)
23.02.2016 16:03 6,6 C 5,8 C 72 % 1009,1 hPa 0,0 mm 12,8 km/h (3 Bft) W-NW 292 0 min 1,9 C 12,5 km/h (3 Bft)
23.02.2016 16:04 6,6 C 5,8 C 73 % 1009,1 hPa 0,0 mm 13,1 km/h (3 Bft) W 270 0 min 2,1 C 22,4 km/h (4 Bft)
23.02.2016 16:09 6,4 C 5,7 C 73 % 1009,1 hPa 0,0 mm 13,4 km/h (3 Bft) W 270 0 min 1,9 C 15,2 km/h (3 Bft)
23.02.2016 16:14 6,3 C 5,4 C 75 % 1009,1 hPa 0,0 mm 13,7 km/h (3 Bft) W-NW 292 0 min 2,2 C 12,8 km/h (3 Bft)
23.02.2016 16:19 6,1 C 5,4 C 76 % 1009,1 hPa 0,0 mm 12,5 km/h (3 Bft) W-NW 292 0 min 2,2 C 10,7 km/h (2 Bft)
23.02.2016 16:24 6,0 C 5,2 C 77 % 1009,2 hPa 0,0 mm 11,9 km/h (2 Bft) W-SW 247 0 min 2,3 C 12,5 km/h (3 Bft)
23.02.2016 16:29 5,9 C 5,1 C 78 % 1009,2 hPa 0,0 mm 12,2 km/h (2 Bft) NW 315 0 min 2,4 C 16,4 km/h (3 Bft)
23.02.2016 16:34 4,4 C 4,0 C 76 % 1009,2 hPa 0,0 mm 19,1 km/h (3 Bft) W 270 0 min 0,5 C 30,4 km/h (5 Bft)
23.02.2016 16:39 2,8 C 2,3 C 77 % 1009,2 hPa 0,7 mm 22,9 km/h (4 Bft) W 270 0 min -0,8 C 34,3 km/h (5 Bft)
23.02.2016 16:44 2,1 C 1,2 C 79 % 1010,2 hPa 0,0 mm 23,5 km/h (4 Bft) NW 315 0 min -1,2 C 30,1 km/h (5 Bft)
23.02.2016 16:49 1,8 C 0,7 C 80 % 1010,2 hPa 0,7 mm 20,0 km/h (4 Bft) N-NO 22 0 min -1,3 C 12,2 km/h (2 Bft)
23.02.2016 16:54 1,5 C 0,5 C 82 % 1010,2 hPa 0,0 mm 15,2 km/h (3 Bft) W 270 0 min -1,2 C 18,8 km/h (3 Bft)
23.02.2016 16:59 1,3 C 0,3 C 82 % 1010,2 hPa 0,0 mm 10,7 km/h (2 Bft) W-SW 247 0 min -1,4 C 7,5 km/h (2 Bft)
23.02.2016 17:04 1,1 C 0,3 C 82 % 1010,9 hPa 0,0 mm 8,6 km/h (2 Bft) S 180 0 min -1,6 C 10,4 km/h (2 Bft)
23.02.2016 17:09 1,0 C 0,2 C 82 % 1010,9 hPa 0,0 mm 8,0 km/h (2 Bft) SW 225 0 min -1,7 C 6,3 km/h (2 Bft)
23.02.2016 17:14 0,9 C 0,5 C 82 % 1010,9 hPa 0,0 mm 5,1 km/h (1 Bft) W 270 0 min -1,8 C 5,4 km/h (1 Bft)
23.02.2016 17:19 0,8 C 0,5 C 82 % 1010,9 hPa 0,0 mm 4,2 km/h (1 Bft) W-SW 247 0 min -1,9 C 8,0 km/h (2 Bft)
23.02.2016 17:24 0,7 C 0,2 C 83 % 1011,8 hPa 0,0 mm 6,0 km/h (2 Bft) W 270 0 min -1,8 C 8,3 km/h (2 Bft)
23.02.2016 17:29 0,7 C 0,1 C 84 % 1011,8 hPa 0,0 mm 6,6 km/h (2 Bft) W-SW 247 0 min -1,7 C 6,0 km/h (2 Bft)
23.02.2016 17:34 0,6 C -0,1 C 84 % 1011,8 hPa 0,0 mm 7,7 km/h (2 Bft) W 270 0 min -1,8 C 20,6 km/h (4 Bft)
23.02.2016 17:39 0,6 C -0,2 C 86 % 1011,8 hPa 0,0 mm 9,5 km/h (2 Bft) W 270 0 min -1,5 C 16,4 km/h (3 Bft)
23.02.2016 17:44 0,5 C -0,3 C 86 % 1012,4 hPa 0,0 mm 8,9 km/h (2 Bft) W 270 0 min -1,6 C 8,6 km/h (2 Bft)
23.02.2016 17:49 0,5 C -0,1 C 86 % 1012,4 hPa 0,0 mm 6,9 km/h (2 Bft) S-SW 202 0 min -1,6 C 12,5 km/h (3 Bft)
23.02.2016 17:50 0,5 C -0,1 C 86 % 1012,4 hPa 0,0 mm 6,9 km/h (2 Bft) S-SW 202 0 min -1,6 C 12,5 km/h (3 Bft)
23.02.2016 17:51 0,5 C 0,0 C 86 % 1012,4 hPa 0,0 mm 6,3 km/h (2 Bft) W 270 0 min -1,6 C 6,9 km/h (2 Bft)
23.02.2016 17:52 0,5 C 0,0 C 86 % 1012,4 hPa 0,0 mm 6,3 km/h (2 Bft) W 270 0 min -1,6 C 6,9 km/h (2 Bft)
23.02.2016 17:53 0,5 C 0,0 C 87 % 1012,4 hPa 0,0 mm 6,3 km/h (2 Bft) W-SW 247 0 min -1,4 C 8,6 km/h (2 Bft)
23.02.2016 17:54 0,5 C 0,0 C 87 % 1012,4 hPa 0,0 mm 6,3 km/h (2 Bft) W-SW 247 0 min -1,4 C 8,6 km/h (2 Bft)
23.02.2016 17:55 0,5 C 0,0 C 87 % 1012,4 hPa 0,0 mm 6,6 km/h (2 Bft) W 270 0 min -1,4 C 9,8 km/h (2 Bft)
23.02.2016 17:56 0,5 C 0,0 C 87 % 1012,4 hPa 0,0 mm 6,6 km/h (2 Bft) W 270 0 min -1,4 C 9,8 km/h (2 Bft)
23.02.2016 17:57 0,5 C 0,0 C 87 % 1012,4 hPa 0,0 mm 6,3 km/h (2 Bft) W 270 0 min -1,4 C 7,2 km/h (2 Bft)
23.02.2016 17:58 0,5 C 0,0 C 87 % 1012,4 hPa 0,0 mm 6,3 km/h (2 Bft) W 270 0 min -1,4 C 7,2 km/h (2 Bft)
23.02.2016 17:59 0,5 C 0,1 C 87 % 1012,4 hPa 0,0 mm 5,7 km/h (1 Bft) W 270 0 min -1,4 C 5,1 km/h (1 Bft)
23.02.2016 18:00 0,5 C 0,1 C 87 % 1012,4 hPa 0,0 mm 5,7 km/h (1 Bft) W 270 0 min -1,4 C 5,1 km/h (1 Bft)
23.02.2016 18:01 0,5 C 0,1 C 87 % 1012,4 hPa 0,0 mm 5,4 km/h (1 Bft) W-SW 247 0 min -1,4 C 8,0 km/h (2 Bft)
23.02.2016 18:02 0,5 C 0,1 C 87 % 1012,4 hPa 0,0 mm 5,4 km/h (1 Bft) W-SW 247 0 min -1,4 C 8,0 km/h (2 Bft)
23.02.2016 18:03 0,5 C 0,0 C 87 % 1012,8 hPa 0,0 mm 6,0 km/h (2 Bft) W-SW 247 0 min -1,4 C 8,0 km/h (2 Bft)
23.02.2016 18:04 0,5 C 0,0 C 87 % 1012,8 hPa 0,0 mm 6,0 km/h (2 Bft) W-SW 247 0 min -1,4 C 8,0 km/h (2 Bft)
23.02.2016 18:05 0,4 C -0,1 C 87 % 1012,8 hPa 0,0 mm 6,3 km/h (2 Bft) W-SW 247 0 min -1,5 C 11,6 km/h (2 Bft)
23.02.2016 18:06 0,4 C -0,1 C 87 % 1012,8 hPa 0,0 mm 6,3 km/h (2 Bft) W-SW 247 0 min -1,5 C 11,6 km/h (2 Bft)
23.02.2016 18:07 0,5 C 0,0 C 87 % 1012,8 hPa 0,0 mm 6,6 km/h (2 Bft) W-SW 247 0 min -1,4 C 11,6 km/h (2 Bft)
23.02.2016 18:08 0,5 C 0,0 C 87 % 1012,8 hPa 0,0 mm 6,6 km/h (2 Bft) W-SW 247 0 min -1,4 C 11,6 km/h (2 Bft)
23.02.2016 18:09 0,5 C 0,0 C 87 % 1012,8 hPa 0,0 mm 6,6 km/h (2 Bft) W-SW 247 0 min -1,4 C 6,0 km/h (2 Bft)
23.02.2016 18:10 0,5 C 0,0 C 87 % 1012,8 hPa 0,0 mm 6,6 km/h (2 Bft) W-SW 247 0 min -1,4 C 6,0 km/h (2 Bft)
23.02.2016 18:11 0,5 C -0,1 C 87 % 1012,8 hPa 0,0 mm 7,2 km/h (2 Bft) W-SW 247 0 min -1,4 C 13,7 km/h (3 Bft)
23.02.2016 18:12 0,5 C -0,1 C 87 % 1012,8 hPa 0,0 mm 7,2 km/h (2 Bft) W-SW 247 0 min -1,4 C 13,7 km/h (3 Bft)
23.02.2016 18:13 0,4 C -0,2 C 88 % 1012,8 hPa 0,0 mm 7,2 km/h (2 Bft) W-SW 247 0 min -1,3 C 11,9 km/h (2 Bft)
23.02.2016 18:14 0,4 C -0,2 C 88 % 1012,8 hPa 0,0 mm 7,2 km/h (2 Bft) W-SW 247 0 min -1,3 C 11,9 km/h (2 Bft)
23.02.2016 18:15 0,4 C -0,1 C 88 % 1012,8 hPa 0,0 mm 6,9 km/h (2 Bft) W-SW 247 0 min -1,3 C 4,8 km/h (1 Bft)
23.02.2016 18:16 0,4 C -0,1 C 88 % 1012,8 hPa 0,0 mm 6,9 km/h (2 Bft) W-SW 247 0 min -1,3 C 4,8 km/h (1 Bft)
23.02.2016 18:17 0,4 C -0,1 C 88 % 1012,8 hPa 0,0 mm 6,9 km/h (2 Bft) W-SW 247 0 min -1,3 C 15,5 km/h (3 Bft)
23.02.2016 18:18 0,4 C -0,1 C 88 % 1012,8 hPa 0,0 mm 6,9 km/h (2 Bft) W-SW 247 0 min -1,3 C 15,5 km/h (3 Bft)
23.02.2016 18:19 0,4 C -0,1 C 88 % 1012,8 hPa 0,0 mm 6,6 km/h (2 Bft) W 270 0 min -1,3 C 7,2 km/h (2 Bft)
23.02.2016 18:20 0,4 C -0,1 C 88 % 1012,8 hPa 0,0 mm 6,6 km/h (2 Bft) W 270 0 min -1,3 C 7,2 km/h (2 Bft)
23.02.2016 18:21 0,4 C -0,1 C 88 % 1012,8 hPa 0,0 mm 6,6 km/h (2 Bft) W-SW 247 0 min -1,3 C 6,6 km/h (2 Bft)
23.02.2016 18:22 0,4 C -0,1 C 88 % 1012,8 hPa 0,0 mm 6,6 km/h (2 Bft) W-SW 247 0 min -1,3 C 6,6 km/h (2 Bft)
23.02.2016 18:23 0,4 C -0,1 C 88 % 1013,2 hPa 0,0 mm 6,3 km/h (2 Bft) W 270 0 min -1,3 C 6,9 km/h (2 Bft)
23.02.2016 18:24 0,4 C -0,1 C 88 % 1013,2 hPa 0,0 mm 6,3 km/h (2 Bft) W 270 0 min -1,3 C 6,9 km/h (2 Bft)
23.02.2016 18:25 0,4 C 0,0 C 88 % 1013,2 hPa 0,0 mm 5,7 km/h (1 Bft) W-NW 292 0 min -1,3 C 5,7 km/h (1 Bft)
23.02.2016 18:26 0,4 C 0,0 C 88 % 1013,2 hPa 0,0 mm 5,7 km/h (1 Bft) W-NW 292 0 min -1,3 C 5,7 km/h (1 Bft)
23.02.2016 18:27 0,4 C 0,0 C 88 % 1013,2 hPa 0,0 mm 6,0 km/h (2 Bft) W-SW 247 0 min -1,3 C 9,5 km/h (2 Bft)
23.02.2016 18:28 0,4 C 0,0 C 88 % 1013,2 hPa 0,0 mm 6,0 km/h (2 Bft) W-SW 247 0 min -1,3 C 9,5 km/h (2 Bft)
23.02.2016 18:29 0,4 C 0,0 C 88 % 1013,2 hPa 0,0 mm 6,0 km/h (2 Bft) W-SW 247 0 min -1,3 C 11,3 km/h (2 Bft)
23.02.2016 18:30 0,4 C 0,0 C 88 % 1013,2 hPa 0,0 mm 6,0 km/h (2 Bft) W-SW 247 0 min -1,3 C 11,3 km/h (2 Bft)
23.02.2016 18:31 0,4 C -0,2 C 88 % 1013,2 hPa 0,0 mm 7,2 km/h (2 Bft) W 270 0 min -1,3 C 14,6 km/h (3 Bft)
23.02.2016 18:32 0,4 C -0,2 C 88 % 1013,2 hPa 0,0 mm 7,2 km/h (2 Bft) W 270 0 min -1,3 C 14,6 km/h (3 Bft)
23.02.2016 18:33 0,4 C -0,2 C 89 % 1013,2 hPa 0,0 mm 7,2 km/h (2 Bft) W-NW 292 0 min -1,2 C 7,2 km/h (2 Bft)
23.02.2016 18:34 0,4 C -0,2 C 89 % 1013,2 hPa 0,0 mm 7,2 km/h (2 Bft) W-NW 292 0 min -1,2 C 7,2 km/h (2 Bft)
23.02.2016 18:35 0,4 C -0,2 C 89 % 1013,2 hPa 0,0 mm 7,7 km/h (2 Bft) W 270 0 min -1,2 C 9,8 km/h (2 Bft)
23.02.2016 18:36 0,4 C -0,2 C 89 % 1013,2 hPa 0,0 mm 7,7 km/h (2 Bft) W 270 0 min -1,2 C 9,8 km/h (2 Bft)
23.02.2016 18:37 0,4 C -0,3 C 89 % 1013,2 hPa 0,0 mm 8,9 km/h (2 Bft) W-NW 292 0 min -1,2 C 12,2 km/h (2 Bft)
23.02.2016 18:38 0,4 C -0,3 C 89 % 1013,2 hPa 0,0 mm 8,9 km/h (2 Bft) W-NW 292 0 min -1,2 C 12,2 km/h (2 Bft)
23.02.2016 18:39 0,4 C -0,4 C 89 % 1013,2 hPa 0,0 mm 9,5 km/h (2 Bft) W-SW 247 0 min -1,2 C 6,6 km/h (2 Bft)
23.02.2016 18:40 0,4 C -0,4 C 89 % 1013,2 hPa 0,0 mm 9,5 km/h (2 Bft) W-SW 247 0 min -1,2 C 6,6 km/h (2 Bft)
23.02.2016 18:41 0,4 C -0,4 C 89 % 1013,2 hPa 0,0 mm 9,5 km/h (2 Bft) W-NW 292 0 min -1,2 C 15,8 km/h (3 Bft)
23.02.2016 18:42 0,4 C -0,4 C 89 % 1013,2 hPa 0,0 mm 9,5 km/h (2 Bft) W-NW 292 0 min -1,2 C 15,8 km/h (3 Bft)
23.02.2016 18:43 0,4 C -0,4 C 89 % 1013,9 hPa 0,0 mm 9,2 km/h (2 Bft) W 270 0 min -1,2 C 12,2 km/h (2 Bft)
23.02.2016 18:44 0,4 C -0,4 C 89 % 1013,9 hPa 0,0 mm 9,2 km/h (2 Bft) W 270 0 min -1,2 C 12,2 km/h (2 Bft)
23.02.2016 18:45 0,4 C -0,4 C 89 % 1013,9 hPa 0,0 mm 10,1 km/h (2 Bft) W 270 0 min -1,2 C 20,6 km/h (4 Bft)
23.02.2016 18:46 0,4 C -0,4 C 89 % 1013,9 hPa 0,0 mm 10,1 km/h (2 Bft) W 270 0 min -1,2 C 20,6 km/h (4 Bft)
23.02.2016 18:47 0,4 C -0,5 C 89 % 1013,9 hPa 0,0 mm 10,4 km/h (2 Bft) W 270 0 min -1,2 C 6,9 km/h (2 Bft)
23.02.2016 18:48 0,4 C -0,5 C 89 % 1013,9 hPa 0,0 mm 10,4 km/h (2 Bft) W 270 0 min -1,2 C 6,9 km/h (2 Bft)
23.02.2016 18:49 0,4 C -0,4 C 90 % 1013,9 hPa 0,0 mm 9,5 km/h (2 Bft) W 270 0 min -1,0 C 14,3 km/h (3 Bft)
23.02.2016 18:50 0,4 C -0,4 C 90 % 1013,9 hPa 0,0 mm 9,5 km/h (2 Bft) W 270 0 min -1,0 C 14,3 km/h (3 Bft)
23.02.2016 18:51 0,4 C -0,4 C 90 % 1013,9 hPa 0,0 mm 9,8 km/h (2 Bft) W 270 0 min -1,0 C 13,4 km/h (3 Bft)
23.02.2016 18:52 0,4 C -0,4 C 90 % 1013,9 hPa 0,0 mm 9,8 km/h (2 Bft) W 270 0 min -1,0 C 13,4 km/h (3 Bft)
23.02.2016 18:53 0,3 C -0,5 C 90 % 1013,9 hPa 0,0 mm 9,8 km/h (2 Bft) W 270 0 min -1,1 C 9,5 km/h (2 Bft)
23.02.2016 18:54 0,3 C -0,5 C 90 % 1013,9 hPa 0,0 mm 9,8 km/h (2 Bft) W 270 0 min -1,1 C 9,5 km/h (2 Bft)
23.02.2016 18:55 0,3 C -0,4 C 90 % 1013,9 hPa 0,0 mm 9,2 km/h (2 Bft) W 270 0 min -1,1 C 7,5 km/h (2 Bft)
23.02.2016 18:56 0,3 C -0,4 C 90 % 1013,9 hPa 0,0 mm 9,2 km/h (2 Bft) W 270 0 min -1,1 C 7,5 km/h (2 Bft)
23.02.2016 18:57 0,3 C -0,4 C 90 % 1013,9 hPa 0,0 mm 8,6 km/h (2 Bft) W 270 0 min -1,1 C 8,9 km/h (2 Bft)
23.02.2016 18:58 0,3 C -0,4 C 90 % 1013,9 hPa 0,0 mm 8,6 km/h (2 Bft) W 270 0 min -1,1 C 8,9 km/h (2 Bft)
23.02.2016 18:59 0,3 C -0,4 C 90 % 1013,9 hPa 0,0 mm 9,2 km/h (2 Bft) W 270 0 min -1,1 C 8,9 km/h (2 Bft)
23.02.2016 19:00 0,3 C -0,4 C 90 % 1013,9 hPa 0,0 mm 9,2 km/h (2 Bft) W 270 0 min -1,1 C 8,9 km/h (2 Bft)
23.02.2016 19:01 0,3 C -0,4 C 90 % 1013,9 hPa 0,0 mm 8,6 km/h (2 Bft) W 270 0 min -1,1 C 4,5 km/h (1 Bft)
23.02.2016 19:02 0,3 C -0,4 C 90 % 1013,9 hPa 0,0 mm 8,6 km/h (2 Bft) W 270 0 min -1,1 C 4,5 km/h (1 Bft)
23.02.2016 19:03 0,3 C -0,3 C 90 % 1014,2 hPa 0,0 mm 7,7 km/h (2 Bft) W 270 0 min -1,1 C 6,9 km/h (2 Bft)
23.02.2016 19:04 0,3 C -0,3 C 90 % 1014,2 hPa 0,0 mm 7,7 km/h (2 Bft) W 270 0 min -1,1 C 6,9 km/h (2 Bft)
23.02.2016 19:05 0,3 C -0,3 C 91 % 1014,2 hPa 0,0 mm 7,2 km/h (2 Bft) W 270 0 min -1,0 C 7,7 km/h (2 Bft)
23.02.2016 19:06 0,3 C -0,3 C 91 % 1014,2 hPa 0,0 mm 7,2 km/h (2 Bft) W 270 0 min -1,0 C 7,7 km/h (2 Bft)
23.02.2016 19:07 0,2 C -0,2 C 82 % 1014,2 hPa 0,0 mm 6,9 km/h (2 Bft) NW 315 0 min -2,5 C 6,0 km/h (2 Bft)
23.02.2016 19:08 0,2 C -0,2 C 82 % 1014,2 hPa 0,0 mm 6,9 km/h (2 Bft) NW 315 0 min -2,5 C 6,0 km/h (2 Bft)
23.02.2016 19:09 0,2 C -0,1 C 82 % 1014,2 hPa 0,0 mm 5,7 km/h (1 Bft) W-NW 292 0 min -2,5 C 8,0 km/h (2 Bft)
23.02.2016 19:10 0,2 C -0,1 C 82 % 1014,2 hPa 0,0 mm 5,7 km/h (1 Bft) W-NW 292 0 min -2,5 C 8,0 km/h (2 Bft)
23.02.2016 19:11 0,2 C -0,1 C 90 % 1014,2 hPa 0,0 mm 5,1 km/h (1 Bft) W-NW 292 0 min -1,2 C 4,2 km/h (1 Bft)
23.02.2016 19:12 0,2 C -0,1 C 90 % 1014,2 hPa 0,0 mm 5,1 km/h (1 Bft) W-NW 292 0 min -1,2 C 4,2 km/h (1 Bft)
23.02.2016 19:13 0,2 C -0,2 C 90 % 1014,2 hPa 0,0 mm 5,7 km/h (1 Bft) W-NW 292 0 min -1,2 C 17,3 km/h (3 Bft)
23.02.2016 19:14 0,2 C -0,2 C 90 % 1014,2 hPa 0,0 mm 5,7 km/h (1 Bft) W-NW 292 0 min -1,2 C 17,3 km/h (3 Bft)
23.02.2016 19:15 0,2 C -0,3 C 91 % 1014,2 hPa 0,0 mm 6,6 km/h (2 Bft) W 270 0 min -1,1 C 11,3 km/h (2 Bft)
23.02.2016 19:16 0,2 C -0,3 C 91 % 1014,2 hPa 0,0 mm 6,6 km/h (2 Bft) W 270 0 min -1,1 C 11,3 km/h (2 Bft)
23.02.2016 19:17 0,2 C -0,4 C 91 % 1014,2 hPa 0,0 mm 7,5 km/h (2 Bft) W 270 0 min -1,1 C 17,6 km/h (3 Bft)
23.02.2016 19:18 0,2 C -0,4 C 91 % 1014,2 hPa 0,0 mm 7,5 km/h (2 Bft) W 270 0 min -1,1 C 17,6 km/h (3 Bft)
23.02.2016 19:19 0,2 C -0,5 C 91 % 1014,2 hPa 0,0 mm 8,3 km/h (2 Bft) W 270 0 min -1,1 C 7,5 km/h (2 Bft)
23.02.2016 19:20 0,2 C -0,5 C 91 % 1014,2 hPa 0,0 mm 8,3 km/h (2 Bft) W 270 0 min -1,1 C 7,5 km/h (2 Bft)
23.02.2016 19:21 0,2 C -0,5 C 91 % 1014,2 hPa 0,0 mm 8,6 km/h (2 Bft) W 270 0 min -1,1 C 6,0 km/h (2 Bft)
23.02.2016 19:22 0,2 C -0,5 C 91 % 1014,2 hPa 0,0 mm 8,6 km/h (2 Bft) W 270 0 min -1,1 C 6,0 km/h (2 Bft)
23.02.2016 19:23 0,2 C -0,5 C 91 % 1014,7 hPa 0,0 mm 8,6 km/h (2 Bft) W 270 0 min -1,1 C 7,5 km/h (2 Bft)
23.02.2016 19:24 0,2 C -0,5 C 91 % 1014,7 hPa 0,0 mm 8,6 km/h (2 Bft) W 270 0 min -1,1 C 7,5 km/h (2 Bft)
23.02.2016 19:25 0,1 C -0,4 C 82 % 1014,7 hPa 0,0 mm 7,7 km/h (2 Bft) NW 315 0 min -2,6 C 8,0 km/h (2 Bft)
23.02.2016 19:26 0,1 C -0,4 C 82 % 1014,7 hPa 0,0 mm 7,7 km/h (2 Bft) NW 315 0 min -2,6 C 8,0 km/h (2 Bft)
23.02.2016 19:27 0,1 C -0,3 C 82 % 1014,7 hPa 0,0 mm 7,2 km/h (2 Bft) W 270 0 min -2,6 C 18,8 km/h (3 Bft)
23.02.2016 19:28 0,1 C -0,3 C 82 % 1014,7 hPa 0,0 mm 7,2 km/h (2 Bft) W 270 0 min -2,6 C 18,8 km/h (3 Bft)
23.02.2016 19:29 0,1 C -0,4 C 82 % 1014,7 hPa 0,0 mm 7,5 km/h (2 Bft) W 270 0 min -2,6 C 12,2 km/h (2 Bft)
23.02.2016 19:30 0,1 C -0,4 C 82 % 1014,7 hPa 0,0 mm 7,5 km/h (2 Bft) W 270 0 min -2,6 C 12,2 km/h (2 Bft)
23.02.2016 19:31 0,1 C -0,3 C 82 % 1014,7 hPa 0,0 mm 7,2 km/h (2 Bft) W 270 0 min -2,6 C 9,8 km/h (2 Bft)
23.02.2016 19:32 0,1 C -0,3 C 82 % 1014,7 hPa 0,0 mm 7,2 km/h (2 Bft) W 270 0 min -2,6 C 9,8 km/h (2 Bft)
23.02.2016 19:33 0,1 C -0,5 C 91 % 1014,7 hPa 0,0 mm 7,5 km/h (2 Bft) W 270 0 min -1,2 C 6,3 km/h (2 Bft)
23.02.2016 19:34 0,1 C -0,5 C 91 % 1014,7 hPa 0,0 mm 7,5 km/h (2 Bft) W 270 0 min -1,2 C 6,3 km/h (2 Bft)
23.02.2016 19:35 0,1 C -0,5 C 91 % 1014,7 hPa 0,0 mm 7,7 km/h (2 Bft) W 270 0 min -1,2 C 12,5 km/h (3 Bft)
23.02.2016 19:36 0,1 C -0,5 C 91 % 1014,7 hPa 0,0 mm 7,7 km/h (2 Bft) W 270 0 min -1,2 C 12,5 km/h (3 Bft)
23.02.2016 19:37 0,1 C -0,6 C 91 % 1014,7 hPa 0,0 mm 8,3 km/h (2 Bft) W 270 0 min -1,2 C 15,2 km/h (3 Bft)
23.02.2016 19:38 0,1 C -0,6 C 91 % 1014,7 hPa 0,0 mm 8,3 km/h (2 Bft) W 270 0 min -1,2 C 15,2 km/h (3 Bft)
23.02.2016 19:39 0,0 C -0,5 C 82 % 1014,7 hPa 0,0 mm 7,7 km/h (2 Bft) W 270 0 min -2,7 C 10,7 km/h (2 Bft)
23.02.2016 19:40 0,0 C -0,5 C 82 % 1014,7 hPa 0,0 mm 7,7 km/h (2 Bft) W 270 0 min -2,7 C 10,7 km/h (2 Bft)
23.02.2016 19:41 0,0 C -0,6 C 82 % 1014,7 hPa 0,0 mm 8,3 km/h (2 Bft) W-NW 292 0 min -2,7 C 10,1 km/h (2 Bft)
23.02.2016 19:42 0,0 C -0,6 C 82 % 1014,7 hPa 0,0 mm 8,3 km/h (2 Bft) W-NW 292 0 min -2,7 C 10,1 km/h (2 Bft)
23.02.2016 19:43 0,0 C -0,5 C 82 % 1015,1 hPa 0,0 mm 8,0 km/h (2 Bft) N-NW 337 0 min -2,7 C 6,3 km/h (2 Bft)
23.02.2016 19:44 0,0 C -0,5 C 82 % 1015,1 hPa 0,0 mm 8,0 km/h (2 Bft) N-NW 337 0 min -2,7 C 6,3 km/h (2 Bft)
23.02.2016 19:45 0,0 C -0,5 C 82 % 1015,1 hPa 0,0 mm 7,7 km/h (2 Bft) W 270 0 min -2,7 C 5,7 km/h (1 Bft)
23.02.2016 19:46 0,0 C -0,5 C 82 % 1015,1 hPa 0,0 mm 7,7 km/h (2 Bft) W 270 0 min -2,7 C 5,7 km/h (1 Bft)
23.02.2016 19:47 0,0 C -0,6 C 91 % 1015,1 hPa 0,0 mm 7,5 km/h (2 Bft) W 270 0 min -1,3 C 8,6 km/h (2 Bft)
23.02.2016 19:48 0,0 C -0,6 C 91 % 1015,1 hPa 0,0 mm 7,5 km/h (2 Bft) W 270 0 min -1,3 C 8,6 km/h (2 Bft)
23.02.2016 19:49 0,0 C -0,6 C 91 % 1015,1 hPa 0,0 mm 7,5 km/h (2 Bft) W 270 0 min -1,3 C 9,8 km/h (2 Bft)
23.02.2016 19:50 0,0 C -0,6 C 91 % 1015,1 hPa 0,0 mm 7,5 km/h (2 Bft) W 270 0 min -1,3 C 9,8 km/h (2 Bft)
23.02.2016 19:51 0,0 C -0,5 C 83 % 1015,1 hPa 0,0 mm 7,2 km/h (2 Bft) W 270 0 min -2,5 C 10,7 km/h (2 Bft)
23.02.2016 19:52 0,0 C -0,5 C 83 % 1015,1 hPa 0,0 mm 7,2 km/h (2 Bft) W 270 0 min -2,5 C 10,7 km/h (2 Bft)
23.02.2016 19:53 0,0 C -0,6 C 91 % 1015,1 hPa 0,0 mm 7,2 km/h (2 Bft) W 270 0 min -1,3 C 8,3 km/h (2 Bft)
23.02.2016 19:54 0,0 C -0,6 C 91 % 1015,1 hPa 0,0 mm 7,2 km/h (2 Bft) W 270 0 min -1,3 C 8,3 km/h (2 Bft)
23.02.2016 19:55 0,0 C -0,6 C 91 % 1015,1 hPa 0,0 mm 7,2 km/h (2 Bft) NW 315 0 min -1,3 C 7,2 km/h (2 Bft)
23.02.2016 19:56 0,0 C -0,6 C 91 % 1015,1 hPa 0,0 mm 7,2 km/h (2 Bft) NW 315 0 min -1,3 C 7,2 km/h (2 Bft)
23.02.2016 19:57 0,0 C -0,5 C 90 % 1015,1 hPa 0,0 mm 6,9 km/h (2 Bft) W 270 0 min -1,4 C 5,7 km/h (1 Bft)
23.02.2016 19:58 0,0 C -0,5 C 90 % 1015,1 hPa 0,0 mm 6,9 km/h (2 Bft) W 270 0 min -1,4 C 5,7 km/h (1 Bft)
23.02.2016 19:59 -0,1 C -0,6 C 83 % 1015,1 hPa 0,0 mm 7,5 km/h (2 Bft) NW 315 0 min -2,6 C 14,0 km/h (3 Bft)
23.02.2016 20:00 -0,1 C -0,6 C 83 % 1015,1 hPa 0,0 mm 7,5 km/h (2 Bft) NW 315 0 min -2,6 C 14,0 km/h (3 Bft)
23.02.2016 20:01 -0,1 C -0,7 C 90 % 1015,1 hPa 0,0 mm 7,7 km/h (2 Bft) W 270 0 min -1,5 C 6,6 km/h (2 Bft)
23.02.2016 20:02 -0,1 C -0,7 C 90 % 1015,1 hPa 0,0 mm 7,7 km/h (2 Bft) W 270 0 min -1,5 C 6,6 km/h (2 Bft)
23.02.2016 20:03 -0,1 C -0,7 C 90 % 1015,5 hPa 0,0 mm 7,5 km/h (2 Bft) W 270 0 min -1,5 C 11,6 km/h (2 Bft)
23.02.2016 20:04 -0,1 C -0,7 C 90 % 1015,5 hPa 0,0 mm 7,5 km/h (2 Bft) W 270 0 min -1,5 C 11,6 km/h (2 Bft)
23.02.2016 20:05 -0,1 C -0,8 C 90 % 1015,5 hPa 0,0 mm 8,0 km/h (2 Bft) W 270 0 min -1,5 C 9,2 km/h (2 Bft)
23.02.2016 20:06 -0,1 C -0,8 C 90 % 1015,5 hPa 0,0 mm 8,0 km/h (2 Bft) W 270 0 min -1,5 C 9,2 km/h (2 Bft)
23.02.2016 20:07 -0,2 C -0,8 C 83 % 1015,5 hPa 0,0 mm 8,3 km/h (2 Bft) W 270 0 min -2,7 C 7,5 km/h (2 Bft)
23.02.2016 20:08 -0,2 C -0,8 C 83 % 1015,5 hPa 0,0 mm 8,3 km/h (2 Bft) W 270 0 min -2,7 C 7,5 km/h (2 Bft)
23.02.2016 20:09 -0,2 C -0,8 C 83 % 1015,5 hPa 0,0 mm 8,3 km/h (2 Bft) W 270 0 min -2,7 C 8,6 km/h (2 Bft)
23.02.2016 20:10 -0,2 C -0,8 C 83 % 1015,5 hPa 0,0 mm 8,3 km/h (2 Bft) W 270 0 min -2,7 C 8,6 km/h (2 Bft)
23.02.2016 20:11 -0,2 C -0,9 C 90 % 1015,5 hPa 0,0 mm 8,6 km/h (2 Bft) W 270 0 min -1,6 C 8,3 km/h (2 Bft)
23.02.2016 20:12 -0,2 C -0,9 C 90 % 1015,5 hPa 0,0 mm 8,6 km/h (2 Bft) W 270 0 min -1,6 C 8,3 km/h (2 Bft)
23.02.2016 20:13 -0,2 C -0,9 C 90 % 1015,5 hPa 0,0 mm 8,6 km/h (2 Bft) W 270 0 min -1,6 C 12,2 km/h (2 Bft)
23.02.2016 20:14 -0,2 C -0,9 C 90 % 1015,5 hPa 0,0 mm 8,6 km/h (2 Bft) W 270 0 min -1,6 C 12,2 km/h (2 Bft)
23.02.2016 20:15 -0,2 C -0,9 C 90 % 1015,5 hPa 0,0 mm 8,0 km/h (2 Bft) W 270 0 min -1,6 C 9,2 km/h (2 Bft)
23.02.2016 20:16 -0,2 C -0,9 C 90 % 1015,5 hPa 0,0 mm 8,0 km/h (2 Bft) W 270 0 min -1,6 C 9,2 km/h (2 Bft)
23.02.2016 20:17 -0,2 C -0,8 C 90 % 1015,5 hPa 0,0 mm 7,5 km/h (2 Bft) W 270 0 min -1,6 C 5,1 km/h (1 Bft)
23.02.2016 20:18 -0,2 C -0,8 C 90 % 1015,5 hPa 0,0 mm 7,5 km/h (2 Bft) W 270 0 min -1,6 C 5,1 km/h (1 Bft)
23.02.2016 20:19 -0,2 C -0,7 C 90 % 1015,5 hPa 0,0 mm 6,9 km/h (2 Bft) W 270 0 min -1,6 C 9,5 km/h (2 Bft)
23.02.2016 20:20 -0,2 C -0,7 C 90 % 1015,5 hPa 0,0 mm 6,9 km/h (2 Bft) W 270 0 min -1,6 C 9,5 km/h (2 Bft)
23.02.2016 20:21 -0,2 C -0,5 C 90 % 1015,5 hPa 0,0 mm 5,1 km/h (1 Bft) W 270 0 min -1,6 C 0,0 km/h (0 Bft)
23.02.2016 20:22 -0,2 C -0,5 C 90 % 1015,5 hPa 0,0 mm 5,1 km/h (1 Bft) W 270 0 min -1,6 C 0,0 km/h (0 Bft)
23.02.2016 20:23 -0,2 C -0,4 C 90 % 1015,8 hPa 0,0 mm 3,6 km/h (1 Bft) W 270 0 min -1,6 C 0,0 km/h (0 Bft)
23.02.2016 20:24 -0,2 C -0,4 C 90 % 1015,8 hPa 0,0 mm 3,6 km/h (1 Bft) W 270 0 min -1,6 C 0,0 km/h (0 Bft)
23.02.2016 20:25 -0,3 C -0,4 C 83 % 1015,8 hPa 0,0 mm 2,4 km/h (1 Bft) W 270 0 min -2,8 C 0,0 km/h (0 Bft)
23.02.2016 20:26 -0,3 C -0,4 C 83 % 1015,8 hPa 0,0 mm 2,4 km/h (1 Bft) W 270 0 min -2,8 C 0,0 km/h (0 Bft)
23.02.2016 20:27 -0,3 C -0,5 C 90 % 1015,8 hPa 0,0 mm 1,2 km/h (1 Bft) W 270 0 min -1,7 C 0,0 km/h (0 Bft)
23.02.2016 20:28 -0,3 C -0,5 C 90 % 1015,8 hPa 0,0 mm 1,2 km/h (1 Bft) W 270 0 min -1,7 C 0,0 km/h (0 Bft)
23.02.2016 20:29 -0,3 C -0,5 C 90 % 1015,8 hPa 0,0 mm 0,6 km/h (0 Bft) W 270 0 min -1,7 C 0,0 km/h (0 Bft)
23.02.2016 20:30 -0,3 C -0,5 C 90 % 1015,8 hPa 0,0 mm 0,6 km/h (0 Bft) W 270 0 min -1,7 C 0,0 km/h (0 Bft)
23.02.2016 20:31 -0,3 C -0,5 C 90 % 1015,8 hPa 0,0 mm 0,0 km/h (0 Bft) W 270 0 min -1,7 C 0,0 km/h (0 Bft)
23.02.2016 20:32 -0,3 C -0,5 C 90 % 1015,8 hPa 0,0 mm 0,0 km/h (0 Bft) W 270 0 min -1,7 C 0,0 km/h (0 Bft)
23.02.2016 20:33 -0,3 C -0,5 C 90 % 1015,8 hPa 0,0 mm 0,0 km/h (0 Bft) W 270 0 min -1,7 C 0,0 km/h (0 Bft)
23.02.2016 20:34 -0,3 C -0,5 C 90 % 1015,8 hPa 0,0 mm 0,0 km/h (0 Bft) W 270 0 min -1,7 C 0,0 km/h (0 Bft)
23.02.2016 20:35 -0,3 C -0,5 C 90 % 1015,8 hPa 0,0 mm 0,0 km/h (0 Bft) W 270 0 min -1,7 C 0,0 km/h (0 Bft)
23.02.2016 20:36 -0,3 C -0,5 C 90 % 1015,8 hPa 0,0 mm 0,0 km/h (0 Bft) W 270 0 min -1,7 C 0,0 km/h (0 Bft)
23.02.2016 20:37 -0,3 C -0,5 C 90 % 1015,8 hPa 0,0 mm 0,0 km/h (0 Bft) W 270 0 min -1,7 C 0,0 km/h (0 Bft)
23.02.2016 20:38 -0,3 C -0,5 C 90 % 1015,8 hPa 0,0 mm 0,0 km/h (0 Bft) W 270 0 min -1,7 C 0,0 km/h (0 Bft)
23.02.2016 20:39 -0,3 C -0,5 C 90 % 1015,8 hPa 0,0 mm 0,0 km/h (0 Bft) W 270 0 min -1,7 C 0,0 km/h (0 Bft)
23.02.2016 20:40 -0,3 C -0,5 C 90 % 1015,8 hPa 0,0 mm 0,0 km/h (0 Bft) W 270 0 min -1,7 C 0,0 km/h (0 Bft)
23.02.2016 20:41 -0,3 C -0,5 C 90 % 1015,8 hPa 0,0 mm 0,0 km/h (0 Bft) W 270 0 min -1,7 C 0,0 km/h (0 Bft)
23.02.2016 20:42 -0,3 C -0,5 C 90 % 1015,8 hPa 0,0 mm 0,0 km/h (0 Bft) W 270 0 min -1,7 C 0,0 km/h (0 Bft)
23.02.2016 20:43 -0,3 C -0,5 C 90 % 1016,0 hPa 0,0 mm 0,0 km/h (0 Bft) W 270 0 min -1,7 C 0,0 km/h (0 Bft)
23.02.2016 20:44 -0,3 C -0,5 C 90 % 1016,0 hPa 0,0 mm 0,0 km/h (0 Bft) W 270 0 min -1,7 C 0,0 km/h (0 Bft)
23.02.2016 20:45 -0,3 C -0,5 C 90 % 1016,0 hPa 0,0 mm 0,0 km/h (0 Bft) W 270 0 min -1,7 C 0,0 km/h (0 Bft)
23.02.2016 20:46 -0,3 C -0,5 C 90 % 1016,0 hPa 0,0 mm 0,0 km/h (0 Bft) W 270 0 min -1,7 C 0,0 km/h (0 Bft)
23.02.2016 20:47 -0,4 C -0,6 C 90 % 1016,0 hPa 0,0 mm 0,0 km/h (0 Bft) W 270 0 min -1,8 C 0,0 km/h (0 Bft)
23.02.2016 20:48 -0,4 C -0,6 C 90 % 1016,0 hPa 0,0 mm 0,0 km/h (0 Bft) W 270 0 min -1,8 C 0,0 km/h (0 Bft)
23.02.2016 20:49 -0,4 C -0,6 C 90 % 1016,0 hPa 0,0 mm 0,0 km/h (0 Bft) W 270 0 min -1,8 C 0,0 km/h (0 Bft)
23.02.2016 20:50 -0,4 C -0,6 C 90 % 1016,0 hPa 0,0 mm 0,0 km/h (0 Bft) W 270 0 min -1,8 C 0,0 km/h (0 Bft)
23.02.2016 20:51 -0,5 C -0,6 C 83 % 1016,0 hPa 0,0 mm 0,0 km/h (0 Bft) W 270 0 min -3,0 C 0,0 km/h (0 Bft)
23.02.2016 20:52 -0,5 C -0,6 C 83 % 1016,0 hPa 0,0 mm 0,0 km/h (0 Bft) W 270 0 min -3,0 C 0,0 km/h (0 Bft)
23.02.2016 20:53 -0,5 C -0,6 C 83 % 1016,0 hPa 0,0 mm 0,0 km/h (0 Bft) W 270 0 min -3,0 C 0,0 km/h (0 Bft)
23.02.2016 20:54 -0,5 C -0,6 C 83 % 1016,0 hPa 0,0 mm 0,0 km/h (0 Bft) W 270 0 min -3,0 C 0,0 km/h (0 Bft)
23.02.2016 20:55 -0,5 C -0,6 C 83 % 1016,0 hPa 0,0 mm 0,0 km/h (0 Bft) W 270 0 min -3,0 C 0,0 km/h (0 Bft)
23.02.2016 20:56 -0,5 C -0,6 C 83 % 1016,0 hPa 0,0 mm 0,0 km/h (0 Bft) W 270 0 min -3,0 C 0,0 km/h (0 Bft)
23.02.2016 20:57 -0,5 C -0,6 C 83 % 1016,0 hPa 0,0 mm 0,0 km/h (0 Bft) W 270 0 min -3,0 C 0,0 km/h (0 Bft)
23.02.2016 20:58 -0,5 C -0,6 C 83 % 1016,0 hPa 0,0 mm 0,0 km/h (0 Bft) W 270 0 min -3,0 C 0,0 km/h (0 Bft)
23.02.2016 20:59 -0,5 C -0,6 C 83 % 1016,0 hPa 0,0 mm 0,0 km/h (0 Bft) W 270 0 min -3,0 C 0,0 km/h (0 Bft)
23.02.2016 21:00 -0,5 C -0,6 C 83 % 1016,0 hPa 0,0 mm 0,0 km/h (0 Bft) W 270 0 min -3,0 C 0,0 km/h (0 Bft)
23.02.2016 21:01 -0,5 C -0,6 C 83 % 1016,0 hPa 0,0 mm 0,0 km/h (0 Bft) W 270 0 min -3,0 C 0,0 km/h (0 Bft)
23.02.2016 21:02 -0,5 C -0,6 C 83 % 1016,0 hPa 0,0 mm 0,0 km/h (0 Bft) W 270 0 min -3,0 C 0,0 km/h (0 Bft)
23.02.2016 21:03 -0,5 C -0,6 C 83 % 1016,1 hPa 0,0 mm 0,0 km/h (0 Bft) W 270 0 min -3,0 C 0,0 km/h (0 Bft)
23.02.2016 21:04 -0,5 C -0,6 C 83 % 1016,1 hPa 0,0 mm 0,0 km/h (0 Bft) W 270 0 min -3,0 C 0,0 km/h (0 Bft)
23.02.2016 21:05 -0,5 C -0,6 C 83 % 1016,1 hPa 0,0 mm 0,0 km/h (0 Bft) W 270 0 min -3,0 C 0,0 km/h (0 Bft)
23.02.2016 21:06 -0,5 C -0,6 C 83 % 1016,1 hPa 0,0 mm 0,0 km/h (0 Bft) W 270 0 min -3,0 C 0,0 km/h (0 Bft)
23.02.2016 21:07 -0,5 C -0,6 C 83 % 1016,1 hPa 0,0 mm 0,0 km/h (0 Bft) W 270 0 min -3,0 C 0,0 km/h (0 Bft)
23.02.2016 21:08 -0,5 C -0,6 C 83 % 1016,1 hPa 0,0 mm 0,0 km/h (0 Bft) W 270 0 min -3,0 C 0,0 km/h (0 Bft)
23.02.2016 21:09 -0,5 C -0,6 C 83 % 1016,1 hPa 0,0 mm 0,0 km/h (0 Bft) W 270 0 min -3,0 C 0,0 km/h (0 Bft)
23.02.2016 21:10 -0,5 C -0,6 C 83 % 1016,1 hPa 0,0 mm 0,0 km/h (0 Bft) W 270 0 min -3,0 C 0,0 km/h (0 Bft)
23.02.2016 21:11 -0,5 C -0,6 C 83 % 1016,1 hPa 0,0 mm 0,0 km/h (0 Bft) W 270 0 min -3,0 C 0,0 km/h (0 Bft)
23.02.2016 21:12 -0,5 C -0,6 C 83 % 1016,1 hPa 0,0 mm 0,0 km/h (0 Bft) W 270 0 min -3,0 C 0,0 km/h (0 Bft)
23.02.2016 21:13 -0,5 C -0,6 C 83 % 1016,1 hPa 0,0 mm 0,0 km/h (0 Bft) W 270 0 min -3,0 C 0,0 km/h (0 Bft)
23.02.2016 21:14 -0,5 C -0,6 C 83 % 1016,1 hPa 0,0 mm 0,0 km/h (0 Bft) W 270 0 min -3,0 C 0,0 km/h (0 Bft)
23.02.2016 21:15 -0,5 C -0,6 C 83 % 1016,1 hPa 0,0 mm 0,0 km/h (0 Bft) W 270 0 min -3,0 C 0,0 km/h (0 Bft)
23.02.2016 21:16 -0,5 C -0,6 C 83 % 1016,1 hPa 0,0 mm 0,0 km/h (0 Bft) W 270 0 min -3,0 C 0,0 km/h (0 Bft)
23.02.2016 21:17 -0,5 C -0,6 C 83 % 1016,1 hPa 0,0 mm 0,0 km/h (0 Bft) W 270 0 min -3,0 C 0,0 km/h (0 Bft)
23.02.2016 21:18 -0,5 C -0,6 C 83 % 1016,1 hPa 0,0 mm 0,0 km/h (0 Bft) W 270 0 min -3,0 C 0,0 km/h (0 Bft)
23.02.2016 21:19 -0,5 C -0,6 C 83 % 1016,1 hPa 0,0 mm 0,0 km/h (0 Bft) W 270 0 min -3,0 C 0,0 km/h (0 Bft)
23.02.2016 21:20 -0,5 C -0,6 C 83 % 1016,1 hPa 0,0 mm 0,0 km/h (0 Bft) W 270 0 min -3,0 C 0,0 km/h (0 Bft)
23.02.2016 21:21 -0,5 C -0,6 C 83 % 1016,1 hPa 0,0 mm 0,0 km/h (0 Bft) W 270 0 min -3,0 C 0,0 km/h (0 Bft)
23.02.2016 21:22 -0,5 C -0,6 C 83 % 1016,1 hPa 0,0 mm 0,0 km/h (0 Bft) W 270 0 min -3,0 C 0,0 km/h (0 Bft)
23.02.2016 21:23 -0,5 C -0,6 C 83 % 1016,2 hPa 0,0 mm 0,0 km/h (0 Bft) W 270 0 min -3,0 C 0,0 km/h (0 Bft)
23.02.2016 21:24 -0,5 C -0,6 C 83 % 1016,2 hPa 0,0 mm 0,0 km/h (0 Bft) W 270 0 min -3,0 C 0,0 km/h (0 Bft)
23.02.2016 21:25 -0,5 C -0,6 C 83 % 1016,2 hPa 0,0 mm 0,0 km/h (0 Bft) W 270 0 min -3,0 C 0,0 km/h (0 Bft)
23.02.2016 21:26 -0,5 C -0,6 C 83 % 1016,2 hPa 0,0 mm 0,0 km/h (0 Bft) W 270 0 min -3,0 C 0,0 km/h (0 Bft)
23.02.2016 21:27 -0,5 C -0,6 C 83 % 1016,2 hPa 0,0 mm 0,0 km/h (0 Bft) W 270 0 min -3,0 C 0,0 km/h (0 Bft)
23.02.2016 21:28 -0,5 C -0,6 C 83 % 1016,2 hPa 0,0 mm 0,0 km/h (0 Bft) W 270 0 min -3,0 C 0,0 km/h (0 Bft)
23.02.2016 21:29 -0,5 C -0,6 C 83 % 1016,2 hPa 0,0 mm 0,0 km/h (0 Bft) W 270 0 min -3,0 C 0,0 km/h (0 Bft)
23.02.2016 21:30 -0,5 C -0,6 C 83 % 1016,2 hPa 0,0 mm 0,0 km/h (0 Bft) W 270 0 min -3,0 C 0,0 km/h (0 Bft)
23.02.2016 21:31 -0,5 C -0,6 C 83 % 1016,2 hPa 0,0 mm 0,0 km/h (0 Bft) W 270 0 min -3,0 C 0,0 km/h (0 Bft)
23.02.2016 21:32 -0,5 C -0,6 C 83 % 1016,2 hPa 0,0 mm 0,0 km/h (0 Bft) W 270 0 min -3,0 C 0,0 km/h (0 Bft)
23.02.2016 21:33 -0,5 C -0,6 C 83 % 1016,2 hPa 0,0 mm 0,0 km/h (0 Bft) W 270 0 min -3,0 C 0,0 km/h (0 Bft)
23.02.2016 21:34 -0,5 C -0,6 C 83 % 1016,2 hPa 0,0 mm 0,0 km/h (0 Bft) W 270 0 min -3,0 C 0,0 km/h (0 Bft)
23.02.2016 21:35 -0,5 C -0,6 C 83 % 1016,2 hPa 0,0 mm 0,0 km/h (0 Bft) W 270 0 min -3,0 C 0,0 km/h (0 Bft)
23.02.2016 21:36 -0,5 C -0,6 C 83 % 1016,2 hPa 0,0 mm 0,0 km/h (0 Bft) W 270 0 min -3,0 C 0,0 km/h (0 Bft)
23.02.2016 21:37 -0,5 C -0,7 C 89 % 1016,2 hPa 0,0 mm 0,0 km/h (0 Bft) W 270 0 min -2,1 C 0,0 km/h (0 Bft)
23.02.2016 21:38 -0,5 C -0,7 C 89 % 1016,2 hPa 0,0 mm 0,0 km/h (0 Bft) W 270 0 min -2,1 C 0,0 km/h (0 Bft)
23.02.2016 21:39 -0,5 C -0,7 C 89 % 1016,2 hPa 0,0 mm 0,0 km/h (0 Bft) W 270 0 min -2,1 C 0,0 km/h (0 Bft)
23.02.2016 21:40 -0,5 C -0,7 C 89 % 1016,2 hPa 0,0 mm 0,0 km/h (0 Bft) W 270 0 min -2,1 C 0,0 km/h (0 Bft)
23.02.2016 21:41 -0,5 C -0,7 C 89 % 1016,2 hPa 0,0 mm 0,0 km/h (0 Bft) W 270 0 min -2,1 C 0,0 km/h (0 Bft)
23.02.2016 21:42 -0,5 C -0,7 C 89 % 1016,2 hPa 0,0 mm 0,0 km/h (0 Bft) W 270 0 min -2,1 C 0,0 km/h (0 Bft)
23.02.2016 21:43 -0,6 C -0,7 C 83 % 1016,4 hPa 0,0 mm 0,0 km/h (0 Bft) W 270 0 min -3,1 C 0,0 km/h (0 Bft)
23.02.2016 21:44 -0,6 C -0,7 C 83 % 1016,4 hPa 0,0 mm 0,0 km/h (0 Bft) W 270 0 min -3,1 C 0,0 km/h (0 Bft)
23.02.2016 21:45 -0,6 C -0,7 C 83 % 1016,4 hPa 0,0 mm 0,0 km/h (0 Bft) W 270 0 min -3,1 C 0,0 km/h (0 Bft)
23.02.2016 21:46 -0,6 C -0,7 C 83 % 1016,4 hPa 0,0 mm 0,0 km/h (0 Bft) W 270 0 min -3,1 C 0,0 km/h (0 Bft)
23.02.2016 21:47 -0,7 C -0,9 C 89 % 1016,4 hPa 0,0 mm 0,0 km/h (0 Bft) W 270 0 min -2,3 C 0,0 km/h (0 Bft)
23.02.2016 21:48 -0,7 C -0,9 C 89 % 1016,4 hPa 0,0 mm 0,0 km/h (0 Bft) W 270 0 min -2,3 C 0,0 km/h (0 Bft)
23.02.2016 21:49 -0,8 C -1,0 C 89 % 1016,4 hPa 0,0 mm 0,0 km/h (0 Bft) W 270 0 min -2,4 C 0,0 km/h (0 Bft)
23.02.2016 21:50 -0,8 C -1,0 C 89 % 1016,4 hPa 0,0 mm 0,0 km/h (0 Bft) W 270 0 min -2,4 C 0,0 km/h (0 Bft)
23.02.2016 21:51 -1,0 C -1,2 C 88 % 1016,4 hPa 0,0 mm 0,0 km/h (0 Bft) W 270 0 min -2,7 C 0,0 km/h (0 Bft)
23.02.2016 21:52 -1,0 C -1,2 C 88 % 1016,4 hPa 0,0 mm 0,0 km/h (0 Bft) W 270 0 min -2,7 C 0,0 km/h (0 Bft)
23.02.2016 21:53 -1,1 C -1,3 C 88 % 1016,4 hPa 0,0 mm 0,0 km/h (0 Bft) W 270 0 min -2,8 C 0,0 km/h (0 Bft)
23.02.2016 21:54 -1,1 C -1,3 C 88 % 1016,4 hPa 0,0 mm 0,0 km/h (0 Bft) W 270 0 min -2,8 C 0,0 km/h (0 Bft)
23.02.2016 21:55 -1,2 C -1,4 C 88 % 1016,4 hPa 0,0 mm 0,0 km/h (0 Bft) W 270 0 min -2,9 C 0,0 km/h (0 Bft)
23.02.2016 21:56 -1,2 C -1,4 C 88 % 1016,4 hPa 0,0 mm 0,0 km/h (0 Bft) W 270 0 min -2,9 C 0,0 km/h (0 Bft)
23.02.2016 21:57 -1,3 C -1,5 C 88 % 1016,4 hPa 0,0 mm 0,0 km/h (0 Bft) W 270 0 min -3,0 C 0,0 km/h (0 Bft)
23.02.2016 21:58 -1,3 C -1,5 C 88 % 1016,4 hPa 0,0 mm 0,0 km/h (0 Bft) W 270 0 min -3,0 C 0,0 km/h (0 Bft)
23.02.2016 21:59 -1,3 C -1,5 C 88 % 1016,4 hPa 0,0 mm 0,0 km/h (0 Bft) W 270 0 min -3,0 C 0,0 km/h (0 Bft)
23.02.2016 22:00 -1,3 C -1,5 C 88 % 1016,4 hPa 0,0 mm 0,0 km/h (0 Bft) W 270 0 min -3,0 C 0,0 km/h (0 Bft)
23.02.2016 22:01 -1,3 C -1,5 C 88 % 1016,4 hPa 0,0 mm 0,0 km/h (0 Bft) W 270 0 min -3,0 C 0,0 km/h (0 Bft)
23.02.2016 22:02 -1,3 C -1,5 C 88 % 1016,4 hPa 0,0 mm 0,0 km/h (0 Bft) W 270 0 min -3,0 C 0,0 km/h (0 Bft)
23.02.2016 22:03 -1,3 C -1,5 C 88 % 1016,8 hPa 0,0 mm 0,0 km/h (0 Bft) W 270 0 min -3,0 C 0,0 km/h (0 Bft)
23.02.2016 22:04 -1,3 C -1,5 C 88 % 1016,8 hPa 0,0 mm 0,0 km/h (0 Bft) W 270 0 min -3,0 C 0,0 km/h (0 Bft)
23.02.2016 22:05 -1,2 C -1,5 C 88 % 1016,8 hPa 0,0 mm 0,0 km/h (0 Bft) W 270 0 min -2,9 C 0,0 km/h (0 Bft)
23.02.2016 22:06 -1,2 C -1,5 C 88 % 1016,8 hPa 0,0 mm 0,0 km/h (0 Bft) W 270 0 min -2,9 C 0,0 km/h (0 Bft)
23.02.2016 22:07 -1,2 C -1,5 C 88 % 1016,8 hPa 0,0 mm 0,0 km/h (0 Bft) W 270 0 min -2,9 C 0,0 km/h (0 Bft)
23.02.2016 22:08 -1,2 C -1,5 C 88 % 1016,8 hPa 0,0 mm 0,0 km/h (0 Bft) W 270 0 min -2,9 C 0,0 km/h (0 Bft)
23.02.2016 22:09 -1,2 C -1,5 C 88 % 1016,8 hPa 0,0 mm 0,0 km/h (0 Bft) W 270 0 min -2,9 C 0,0 km/h (0 Bft)
23.02.2016 22:10 -1,2 C -1,5 C 88 % 1016,8 hPa 0,0 mm 0,0 km/h (0 Bft) W 270 0 min -2,9 C 0,0 km/h (0 Bft)
23.02.2016 22:11 -1,4 C -1,6 C 88 % 1016,8 hPa 0,0 mm 0,0 km/h (0 Bft) W 270 0 min -3,1 C 0,0 km/h (0 Bft)
23.02.2016 22:12 -1,4 C -1,6 C 88 % 1016,8 hPa 0,0 mm 0,0 km/h (0 Bft) W 270 0 min -3,1 C 0,0 km/h (0 Bft)
23.02.2016 22:13 -1,4 C -1,6 C 88 % 1016,8 hPa 0,0 mm 0,0 km/h (0 Bft) W 270 0 min -3,1 C 0,0 km/h (0 Bft)
23.02.2016 22:14 -1,4 C -1,6 C 88 % 1016,8 hPa 0,0 mm 0,0 km/h (0 Bft) W 270 0 min -3,1 C 0,0 km/h (0 Bft)
23.02.2016 22:15 -1,5 C -1,7 C 88 % 1016,8 hPa 0,0 mm 0,0 km/h (0 Bft) W 270 0 min -3,2 C 0,0 km/h (0 Bft)
23.02.2016 22:16 -1,5 C -1,7 C 88 % 1016,8 hPa 0,0 mm 0,0 km/h (0 Bft) W 270 0 min -3,2 C 0,0 km/h (0 Bft)
23.02.2016 22:17 -1,6 C -1,8 C 88 % 1016,8 hPa 0,0 mm 0,0 km/h (0 Bft) W 270 0 min -3,3 C 0,0 km/h (0 Bft)
23.02.2016 22:18 -1,6 C -1,8 C 88 % 1016,8 hPa 0,0 mm 0,0 km/h (0 Bft) W 270 0 min -3,3 C 0,0 km/h (0 Bft)
23.02.2016 22:19 -1,5 C -1,7 C 88 % 1016,8 hPa 0,0 mm 0,0 km/h (0 Bft) W 270 0 min -3,2 C 0,0 km/h (0 Bft)
23.02.2016 22:20 -1,5 C -1,7 C 88 % 1016,8 hPa 0,0 mm 0,0 km/h (0 Bft) W 270 0 min -3,2 C 0,0 km/h (0 Bft)
23.02.2016 22:21 -1,6 C -1,8 C 88 % 1016,8 hPa 0,0 mm 0,0 km/h (0 Bft) W 270 0 min -3,3 C 0,0 km/h (0 Bft)
23.02.2016 22:22 -1,6 C -1,8 C 88 % 1016,8 hPa 0,0 mm 0,0 km/h (0 Bft) W 270 0 min -3,3 C 0,0 km/h (0 Bft)
23.02.2016 22:23 -1,6 C -1,8 C 88 % 1016,8 hPa 0,0 mm 0,0 km/h (0 Bft) W 270 0 min -3,3 C 0,0 km/h (0 Bft)
23.02.2016 22:24 -1,6 C -1,8 C 88 % 1016,8 hPa 0,0 mm 0,0 km/h (0 Bft) W 270 0 min -3,3 C 0,0 km/h (0 Bft)
23.02.2016 22:25 -1,6 C -1,8 C 88 % 1016,8 hPa 0,0 mm 0,0 km/h (0 Bft) W 270 0 min -3,3 C 0,0 km/h (0 Bft)
23.02.2016 22:26 -1,6 C -1,8 C 88 % 1016,8 hPa 0,0 mm 0,0 km/h (0 Bft) W 270 0 min -3,3 C 0,0 km/h (0 Bft)
23.02.2016 22:27 -1,5 C -1,7 C 88 % 1016,8 hPa 0,0 mm 0,0 km/h (0 Bft) W 270 0 min -3,2 C 0,0 km/h (0 Bft)
23.02.2016 22:28 -1,5 C -1,7 C 88 % 1016,8 hPa 0,0 mm 0,0 km/h (0 Bft) W 270 0 min -3,2 C 0,0 km/h (0 Bft)
23.02.2016 22:29 -1,5 C -1,7 C 88 % 1016,8 hPa 0,0 mm 0,0 km/h (0 Bft) W 270 0 min -3,2 C 0,0 km/h (0 Bft)
23.02.2016 22:30 -1,5 C -1,7 C 88 % 1016,8 hPa 0,0 mm 0,0 km/h (0 Bft) W 270 0 min -3,2 C 0,0 km/h (0 Bft)
23.02.2016 22:31 -1,5 C -1,7 C 88 % 1016,8 hPa 0,0 mm 0,0 km/h (0 Bft) W 270 0 min -3,2 C 0,0 km/h (0 Bft)
23.02.2016 22:32 -1,5 C -1,7 C 88 % 1016,8 hPa 0,0 mm 0,0 km/h (0 Bft) W 270 0 min -3,2 C 0,0 km/h (0 Bft)
23.02.2016 22:33 -1,4 C -1,6 C 88 % 1016,8 hPa 0,0 mm 0,0 km/h (0 Bft) W 270 0 min -3,1 C 0,0 km/h (0 Bft)
23.02.2016 22:34 -1,4 C -1,6 C 88 % 1016,8 hPa 0,0 mm 0,0 km/h (0 Bft) W 270 0 min -3,1 C 0,0 km/h (0 Bft)
23.02.2016 22:35 -1,4 C -1,6 C 88 % 1016,8 hPa 0,0 mm 0,0 km/h (0 Bft) W 270 0 min -3,1 C 0,0 km/h (0 Bft)
23.02.2016 22:36 -1,4 C -1,6 C 88 % 1016,8 hPa 0,0 mm 0,0 km/h (0 Bft) W 270 0 min -3,1 C 0,0 km/h (0 Bft)
23.02.2016 22:37 -1,3 C -1,6 C 88 % 1016,8 hPa 0,0 mm 0,0 km/h (0 Bft) W 270 0 min -3,0 C 0,0 km/h (0 Bft)
23.02.2016 22:38 -1,3 C -1,6 C 88 % 1016,8 hPa 0,0 mm 0,0 km/h (0 Bft) W 270 0 min -3,0 C 0,0 km/h (0 Bft)
23.02.2016 22:39 -1,2 C -1,5 C 88 % 1016,8 hPa 0,0 mm 0,0 km/h (0 Bft) W 270 0 min -2,9 C 0,0 km/h (0 Bft)
23.02.2016 22:40 -1,2 C -1,5 C 88 % 1016,8 hPa 0,0 mm 0,0 km/h (0 Bft) W 270 0 min -2,9 C 0,0 km/h (0 Bft)
23.02.2016 22:41 -1,2 C -1,5 C 88 % 1016,8 hPa 0,0 mm 0,0 km/h (0 Bft) W 270 0 min -2,9 C 0,0 km/h (0 Bft)
23.02.2016 22:42 -1,2 C -1,5 C 88 % 1016,8 hPa 0,0 mm 0,0 km/h (0 Bft) W 270 0 min -2,9 C 0,0 km/h (0 Bft)
23.02.2016 22:43 -1,1 C -1,4 C 89 % 1016,7 hPa 0,0 mm 0,0 km/h (0 Bft) W 270 0 min -2,7 C 0,0 km/h (0 Bft)
23.02.2016 22:44 -1,1 C -1,4 C 89 % 1016,7 hPa 0,0 mm 0,0 km/h (0 Bft) W 270 0 min -2,7 C 0,0 km/h (0 Bft)
23.02.2016 22:45 -1,1 C -1,4 C 89 % 1016,7 hPa 0,0 mm 0,0 km/h (0 Bft) W 270 0 min -2,7 C 0,0 km/h (0 Bft)
23.02.2016 22:46 -1,1 C -1,4 C 89 % 1016,7 hPa 0,0 mm 0,0 km/h (0 Bft) W 270 0 min -2,7 C 0,0 km/h (0 Bft)
23.02.2016 22:47 -1,0 C -1,3 C 89 % 1016,7 hPa 0,0 mm 0,0 km/h (0 Bft) W 270 0 min -2,6 C 0,0 km/h (0 Bft)
23.02.2016 22:48 -1,0 C -1,3 C 89 % 1016,7 hPa 0,0 mm 0,0 km/h (0 Bft) W 270 0 min -2,6 C 0,0 km/h (0 Bft)
23.02.2016 22:49 -1,0 C -1,2 C 83 % 1016,7 hPa 0,0 mm 0,0 km/h (0 Bft) W 270 0 min -3,5 C 0,0 km/h (0 Bft)
23.02.2016 22:50 -1,0 C -1,2 C 83 % 1016,7 hPa 0,0 mm 0,0 km/h (0 Bft) W 270 0 min -3,5 C 0,0 km/h (0 Bft)
23.02.2016 22:51 -1,0 C -1,2 C 83 % 1016,7 hPa 0,0 mm 0,0 km/h (0 Bft) W 270 0 min -3,5 C 0,0 km/h (0 Bft)
23.02.2016 22:52 -1,0 C -1,2 C 83 % 1016,7 hPa 0,0 mm 0,0 km/h (0 Bft) W 270 0 min -3,5 C 0,0 km/h (0 Bft)
23.02.2016 22:53 -1,0 C -1,1 C 83 % 1016,7 hPa 0,0 mm 0,0 km/h (0 Bft) W 270 0 min -3,5 C 0,0 km/h (0 Bft)
23.02.2016 22:54 -1,0 C -1,1 C 83 % 1016,7 hPa 0,0 mm 0,0 km/h (0 Bft) W 270 0 min -3,5 C 0,0 km/h (0 Bft)
23.02.2016 22:55 -0,9 C -1,1 C 83 % 1016,7 hPa 0,0 mm 0,0 km/h (0 Bft) W 270 0 min -3,4 C 0,0 km/h (0 Bft)
23.02.2016 22:56 -0,9 C -1,1 C 83 % 1016,7 hPa 0,0 mm 0,0 km/h (0 Bft) W 270 0 min -3,4 C 0,0 km/h (0 Bft)
23.02.2016 22:57 -0,9 C -1,1 C 83 % 1016,7 hPa 0,0 mm 0,0 km/h (0 Bft) W 270 0 min -3,4 C 0,0 km/h (0 Bft)
23.02.2016 22:58 -0,9 C -1,1 C 83 % 1016,7 hPa 0,0 mm 0,0 km/h (0 Bft) W 270 0 min -3,4 C 0,0 km/h (0 Bft)
23.02.2016 22:59 -0,9 C -1,0 C 83 % 1016,7 hPa 0,0 mm 0,0 km/h (0 Bft) W 270 0 min -3,4 C 0,0 km/h (0 Bft)
23.02.2016 23:00 -0,9 C -1,0 C 83 % 1016,7 hPa 0,0 mm 0,0 km/h (0 Bft) W 270 0 min -3,4 C 0,0 km/h (0 Bft)
23.02.2016 23:01 -0,9 C -1,0 C 83 % 1016,7 hPa 0,0 mm 0,0 km/h (0 Bft) W 270 0 min -3,4 C 0,0 km/h (0 Bft)
23.02.2016 23:02 -0,9 C -1,0 C 83 % 1016,7 hPa 0,0 mm 0,0 km/h (0 Bft) W 270 0 min -3,4 C 0,0 km/h (0 Bft)
23.02.2016 23:03 -0,7 C -1,0 C 89 % 1016,9 hPa 0,0 mm 0,0 km/h (0 Bft) W 270 0 min -2,3 C 0,0 km/h (0 Bft)
23.02.2016 23:04 -0,7 C -1,0 C 89 % 1016,9 hPa 0,0 mm 0,0 km/h (0 Bft) W 270 0 min -2,3 C 0,0 km/h (0 Bft)
23.02.2016 23:05 -0,7 C -1,0 C 89 % 1016,9 hPa 0,0 mm 0,0 km/h (0 Bft) W 270 0 min -2,3 C 0,0 km/h (0 Bft)
23.02.2016 23:06 -0,7 C -1,0 C 89 % 1016,9 hPa 0,0 mm 0,0 km/h (0 Bft) W 270 0 min -2,3 C 0,0 km/h (0 Bft)
23.02.2016 23:07 -0,7 C -0,9 C 89 % 1016,9 hPa 0,0 mm 0,0 km/h (0 Bft) W 270 0 min -2,3 C 0,0 km/h (0 Bft)
23.02.2016 23:08 -0,7 C -0,9 C 89 % 1016,9 hPa 0,0 mm 0,0 km/h (0 Bft) W 270 0 min -2,3 C 0,0 km/h (0 Bft)
23.02.2016 23:09 -0,7 C -0,9 C 89 % 1016,9 hPa 0,0 mm 0,0 km/h (0 Bft) W 270 0 min -2,3 C 0,0 km/h (0 Bft)
23.02.2016 23:10 -0,7 C -0,9 C 89 % 1016,9 hPa 0,0 mm 0,0 km/h (0 Bft) W 270 0 min -2,3 C 0,0 km/h (0 Bft)
23.02.2016 23:11 -0,7 C -0,9 C 89 % 1016,9 hPa 0,0 mm 0,0 km/h (0 Bft) W 270 0 min -2,3 C 0,0 km/h (0 Bft)
23.02.2016 23:12 -0,7 C -0,9 C 89 % 1016,9 hPa 0,0 mm 0,0 km/h (0 Bft) W 270 0 min -2,3 C 0,0 km/h (0 Bft)
23.02.2016 23:13 -0,8 C -1,0 C 89 % 1016,9 hPa 0,0 mm 0,0 km/h (0 Bft) W 270 0 min -2,4 C 0,0 km/h (0 Bft)
23.02.2016 23:14 -0,8 C -1,0 C 89 % 1016,9 hPa 0,0 mm 0,0 km/h (0 Bft) W 270 0 min -2,4 C 0,0 km/h (0 Bft)
23.02.2016 23:15 -0,8 C -1,0 C 89 % 1016,9 hPa 0,0 mm 0,0 km/h (0 Bft) W 270 0 min -2,4 C 0,0 km/h (0 Bft)
23.02.2016 23:16 -0,8 C -1,0 C 89 % 1016,9 hPa 0,0 mm 0,0 km/h (0 Bft) W 270 0 min -2,4 C 0,0 km/h (0 Bft)
23.02.2016 23:17 -0,8 C -1,0 C 89 % 1016,9 hPa 0,0 mm 0,0 km/h (0 Bft) W 270 0 min -2,4 C 0,0 km/h (0 Bft)
23.02.2016 23:18 -0,8 C -1,0 C 89 % 1016,9 hPa 0,0 mm 0,0 km/h (0 Bft) W 270 0 min -2,4 C 0,0 km/h (0 Bft)
23.02.2016 23:19 -0,8 C -1,0 C 89 % 1016,9 hPa 0,0 mm 0,0 km/h (0 Bft) W 270 0 min -2,4 C 0,0 km/h (0 Bft)
23.02.2016 23:20 -0,8 C -1,0 C 89 % 1016,9 hPa 0,0 mm 0,0 km/h (0 Bft) W 270 0 min -2,4 C 0,0 km/h (0 Bft)
23.02.2016 23:21 -0,8 C -1,0 C 89 % 1016,9 hPa 0,0 mm 0,0 km/h (0 Bft) W 270 0 min -2,4 C 0,0 km/h (0 Bft)
23.02.2016 23:22 -0,8 C -1,0 C 89 % 1016,9 hPa 0,0 mm 0,0 km/h (0 Bft) W 270 0 min -2,4 C 0,0 km/h (0 Bft)
23.02.2016 23:23 -0,8 C -1,0 C 89 % 1017,0 hPa 0,0 mm 0,0 km/h (0 Bft) W 270 0 min -2,4 C 0,0 km/h (0 Bft)
23.02.2016 23:24 -0,8 C -1,0 C 89 % 1017,0 hPa 0,0 mm 0,0 km/h (0 Bft) W 270 0 min -2,4 C 0,0 km/h (0 Bft)
23.02.2016 23:25 -0,8 C -1,0 C 89 % 1017,0 hPa 0,0 mm 0,0 km/h (0 Bft) W 270 0 min -2,4 C 0,0 km/h (0 Bft)
23.02.2016 23:26 -0,8 C -1,0 C 89 % 1017,0 hPa 0,0 mm 0,0 km/h (0 Bft) W 270 0 min -2,4 C 0,0 km/h (0 Bft)
23.02.2016 23:27 -0,7 C -1,0 C 89 % 1017,0 hPa 0,0 mm 0,0 km/h (0 Bft) W 270 0 min -2,3 C 0,0 km/h (0 Bft)
23.02.2016 23:28 -0,7 C -1,0 C 89 % 1017,0 hPa 0,0 mm 0,0 km/h (0 Bft) W 270 0 min -2,3 C 0,0 km/h (0 Bft)
23.02.2016 23:29 -0,7 C -1,0 C 89 % 1017,0 hPa 0,0 mm 0,0 km/h (0 Bft) W 270 0 min -2,3 C 0,0 km/h (0 Bft)
23.02.2016 23:30 -0,7 C -1,0 C 89 % 1017,0 hPa 0,0 mm 0,0 km/h (0 Bft) W 270 0 min -2,3 C 0,0 km/h (0 Bft)
23.02.2016 23:31 -0,7 C -1,0 C 89 % 1017,0 hPa 0,0 mm 0,0 km/h (0 Bft) W 270 0 min -2,3 C 0,0 km/h (0 Bft)
23.02.2016 23:32 -0,7 C -1,0 C 89 % 1017,0 hPa 0,0 mm 0,0 km/h (0 Bft) W 270 0 min -2,3 C 0,0 km/h (0 Bft)
23.02.2016 23:33 -0,7 C -0,9 C 83 % 1017,0 hPa 0,0 mm 0,0 km/h (0 Bft) W 270 0 min -3,2 C 0,0 km/h (0 Bft)
23.02.2016 23:34 -0,7 C -0,9 C 83 % 1017,0 hPa 0,0 mm 0,0 km/h (0 Bft) W 270 0 min -3,2 C 0,0 km/h (0 Bft)
23.02.2016 23:35 -0,7 C -0,9 C 83 % 1017,0 hPa 0,0 mm 0,0 km/h (0 Bft) W 270 0 min -3,2 C 0,0 km/h (0 Bft)
23.02.2016 23:36 -0,7 C -0,9 C 83 % 1017,0 hPa 0,0 mm 0,0 km/h (0 Bft) W 270 0 min -3,2 C 0,0 km/h (0 Bft)
23.02.2016 23:37 -0,7 C -1,0 C 89 % 1017,0 hPa 0,0 mm 0,0 km/h (0 Bft) W 270 0 min -2,3 C 0,0 km/h (0 Bft)
23.02.2016 23:38 -0,7 C -1,0 C 89 % 1017,0 hPa 0,0 mm 0,0 km/h (0 Bft) W 270 0 min -2,3 C 0,0 km/h (0 Bft)
23.02.2016 23:39 -0,7 C -1,0 C 89 % 1017,0 hPa 0,0 mm 0,0 km/h (0 Bft) W 270 0 min -2,3 C 0,0 km/h (0 Bft)
23.02.2016 23:40 -0,7 C -1,0 C 89 % 1017,0 hPa 0,0 mm 0,0 km/h (0 Bft) W 270 0 min -2,3 C 0,0 km/h (0 Bft)
23.02.2016 23:41 -0,7 C -0,9 C 83 % 1017,0 hPa 0,0 mm 0,0 km/h (0 Bft) W 270 0 min -3,2 C 0,0 km/h (0 Bft)
23.02.2016 23:42 -0,7 C -0,9 C 83 % 1017,0 hPa 0,0 mm 0,0 km/h (0 Bft) W 270 0 min -3,2 C 0,0 km/h (0 Bft)
23.02.2016 23:43 -0,7 C -0,9 C 83 % 1016,9 hPa 0,0 mm 0,0 km/h (0 Bft) W 270 0 min -3,2 C 0,0 km/h (0 Bft)
23.02.2016 23:44 -0,7 C -0,9 C 83 % 1016,9 hPa 0,0 mm 0,0 km/h (0 Bft) W 270 0 min -3,2 C 0,0 km/h (0 Bft)
23.02.2016 23:45 -0,7 C -0,9 C 83 % 1016,9 hPa 0,0 mm 0,0 km/h (0 Bft) W 270 0 min -3,2 C 0,0 km/h (0 Bft)
23.02.2016 23:46 -0,7 C -0,9 C 83 % 1016,9 hPa 0,0 mm 0,0 km/h (0 Bft) W 270 0 min -3,2 C 0,0 km/h (0 Bft)
23.02.2016 23:47 -0,7 C -0,9 C 83 % 1016,9 hPa 0,0 mm 0,0 km/h (0 Bft) W 270 0 min -3,2 C 0,0 km/h (0 Bft)
23.02.2016 23:48 -0,7 C -0,9 C 83 % 1016,9 hPa 0,0 mm 0,0 km/h (0 Bft) W 270 0 min -3,2 C 0,0 km/h (0 Bft)
23.02.2016 23:49 -0,7 C -1,0 C 89 % 1016,9 hPa 0,0 mm 0,0 km/h (0 Bft) W 270 0 min -2,3 C 0,0 km/h (0 Bft)
23.02.2016 23:51 -0,7 C -1,0 C 89 % 1016,9 hPa 0,0 mm 0,0 km/h (0 Bft) W 270 0 min -2,3 C 0,0 km/h (0 Bft)
23.02.2016 23:52 -0,7 C -1,0 C 89 % 1016,9 hPa 0,0 mm 0,0 km/h (0 Bft) W 270 0 min -2,3 C 0,0 km/h (0 Bft)
23.02.2016 23:53 -0,8 C -1,0 C 89 % 1016,9 hPa 0,0 mm 0,0 km/h (0 Bft) W 270 0 min -2,4 C 0,0 km/h (0 Bft)
23.02.2016 23:54 -0,8 C -1,0 C 89 % 1016,9 hPa 0,0 mm 0,0 km/h (0 Bft) W 270 0 min -2,4 C 0,0 km/h (0 Bft)
23.02.2016 23:55 -0,8 C -1,1 C 89 % 1016,9 hPa 0,0 mm 0,0 km/h (0 Bft) W 270 0 min -2,4 C 0,0 km/h (0 Bft)
23.02.2016 23:56 -0,8 C -1,1 C 89 % 1016,9 hPa 0,0 mm 0,0 km/h (0 Bft) W 270 0 min -2,4 C 0,0 km/h (0 Bft)
23.02.2016 23:57 -0,9 C -1,1 C 88 % 1016,9 hPa 0,0 mm 0,0 km/h (0 Bft) W 270 0 min -2,6 C 0,0 km/h (0 Bft)
23.02.2016 23:58 -0,9 C -1,1 C 88 % 1016,9 hPa 0,0 mm 0,0 km/h (0 Bft) W 270 0 min -2,6 C 0,0 km/h (0 Bft)
23.02.2016 23:59 -0,9 C -1,1 C 88 % 1016,9 hPa 0,0 mm 0,0 km/h (0 Bft) W 270 0 min -2,6 C 0,0 km/h (0 Bft)
_ Min-Zeit 22:26 22:26 14:46 15:02 - 23:59 - - - 22:54 23:59
Minimum _ -1,6 C -1,8 C 58 % 1008,4 hPa - 0,0 km/h (0 Bft) - - - -3,5 C 0,0 km/h (0 Bft)
_ Max-Zeit 14:30 14:31 19:56 23:42 16:49 13:26 - - 23:59 00:24 13:04
Maximum _ 9,6 C 11,3 C 91 % 1017,0 hPa 0,7 mm 25,6 km/h
W-SW (4 Bft)
- - 0 min 3,4 C 61,1 km/h
W-SW (7 Bft)
Durchschnitt _ 5,2 C 5,0 C 71 % 1011,5 hPa #1,4 mm 10,7 km/h (2 Bft) W - #0 min. 0,3 C 13,8 km/h (3 Bft)